Wetterdaten: Donnerstag, 17.11.2022
Datum Zeit Temp. I. Temp. A. Feuchte I. Feuchte A. Luftdruck Regen Wind Richtung Richtung Sonnenschein Solar Taupunkt Windchill Windböen
17.11.2022 00:00 22,0 °C 5,5 °C 58 % 93 % 1003,7 hPa 0,0 l/m² 11,7 km/h (2 Bft) O 83 ° 0 min 0 W/m² 4,5 °C 1,5 °C 14,5 km/h (3 Bft)
17.11.2022 00:02 22,1 °C 5,5 °C 58 % 93 % 1003,7 hPa 0,0 l/m² 14,7 km/h (3 Bft) O-NO 74 ° 0 min 0 W/m² 4,5 °C -0,2 °C 24,1 km/h (4 Bft)
17.11.2022 00:03 22,0 °C 5,5 °C 58 % 93 % 1003,7 hPa 0,0 l/m² 17,6 km/h (3 Bft) O-NO 71 ° 0 min 0 W/m² 4,5 °C -1,5 °C 22,5 km/h (4 Bft)
17.11.2022 00:05 22,0 °C 5,5 °C 58 % 93 % 1003,7 hPa 0,0 l/m² 13,2 km/h (3 Bft) O-NO 71 ° 0 min 0 W/m² 4,5 °C 0,6 °C 20,9 km/h (4 Bft)
17.11.2022 00:06 22,0 °C 5,5 °C 58 % 93 % 1003,6 hPa 0,0 l/m² 17,2 km/h (3 Bft) O 87 ° 0 min 0 W/m² 4,5 °C -1,4 °C 22,5 km/h (4 Bft)
17.11.2022 00:08 22,0 °C 5,4 °C 58 % 93 % 1003,6 hPa 0,0 l/m² 14,2 km/h (3 Bft) NO 53 ° 0 min 0 W/m² 4,4 °C -0,0 °C 20,9 km/h (4 Bft)
17.11.2022 00:10 22,1 °C 5,5 °C 58 % 93 % 1003,5 hPa 0,0 l/m² 11,3 km/h (2 Bft) O 79 ° 0 min 0 W/m² 4,5 °C 1,8 °C 17,7 km/h (3 Bft)
17.11.2022 00:11 22,0 °C 5,4 °C 58 % 93 % 1003,5 hPa 0,0 l/m² 13,7 km/h (3 Bft) O-NO 58 ° 0 min 0 W/m² 4,4 °C 0,2 °C 17,7 km/h (3 Bft)
17.11.2022 00:13 22,0 °C 5,5 °C 58 % 93 % 1003,5 hPa 0,0 l/m² 8,7 km/h (2 Bft) O 89 ° 0 min 0 W/m² 4,5 °C 3,6 °C 22,5 km/h (4 Bft)
17.11.2022 00:14 22,0 °C 5,4 °C 58 % 93 % 1003,5 hPa 0,0 l/m² 14,8 km/h (3 Bft) O 86 ° 0 min 0 W/m² 4,4 °C -0,3 °C 17,7 km/h (3 Bft)
17.11.2022 00:15 22,0 °C 5,4 °C 58 % 93 % 1003,5 hPa 0,0 l/m² 12,6 km/h (3 Bft) O 88 ° 0 min 0 W/m² 4,4 °C 0,9 °C 17,7 km/h (3 Bft)
17.11.2022 00:17 22,0 °C 5,4 °C 58 % 93 % 1003,5 hPa 0,0 l/m² 10,4 km/h (2 Bft) O-NO 73 ° 0 min 0 W/m² 4,4 °C 2,2 °C 16,1 km/h (3 Bft)
17.11.2022 00:19 21,9 °C 5,4 °C 58 % 93 % 1003,5 hPa 0,0 l/m² 17,7 km/h (3 Bft) O 84 ° 0 min 0 W/m² 4,4 °C -1,7 °C 27,4 km/h (5 Bft)
17.11.2022 00:21 22,0 °C 5,4 °C 58 % 93 % 1003,5 hPa 0,0 l/m² 17,7 km/h (3 Bft) O-NO 60 ° 0 min 0 W/m² 4,4 °C -1,7 °C 25,7 km/h (4 Bft)
17.11.2022 00:22 22,0 °C 5,4 °C 58 % 93 % 1003,4 hPa 0,0 l/m² 13,7 km/h (3 Bft) O-NO 71 ° 0 min 0 W/m² 4,4 °C 0,2 °C 22,5 km/h (4 Bft)
17.11.2022 00:24 21,9 °C 5,3 °C 58 % 93 % 1003,4 hPa 0,0 l/m² 16,0 km/h (3 Bft) O-NO 76 ° 0 min 0 W/m² 4,3 °C -1,1 °C 19,3 km/h (3 Bft)
17.11.2022 00:26 22,0 °C 5,3 °C 58 % 93 % 1003,3 hPa 0,0 l/m² 11,1 km/h (2 Bft) O-NO 67 ° 0 min 0 W/m² 4,3 °C 1,7 °C 24,1 km/h (4 Bft)
17.11.2022 00:28 21,9 °C 5,3 °C 58 % 93 % 1003,2 hPa 0,0 l/m² 13,2 km/h (3 Bft) O-NO 70 ° 0 min 0 W/m² 4,3 °C 0,4 °C 19,3 km/h (3 Bft)
17.11.2022 00:30 21,9 °C 5,3 °C 58 % 93 % 1003,2 hPa 0,0 l/m² 15,4 km/h (3 Bft) O 83 ° 0 min 0 W/m² 4,3 °C -0,8 °C 22,5 km/h (4 Bft)
17.11.2022 00:32 21,9 °C 5,3 °C 58 % 93 % 1003,1 hPa 0,0 l/m² 13,8 km/h (3 Bft) O-NO 73 ° 0 min 0 W/m² 4,3 °C 0,1 °C 22,5 km/h (4 Bft)
17.11.2022 00:33 21,9 °C 5,2 °C 58 % 93 % 1003,1 hPa 0,0 l/m² 14,8 km/h (3 Bft) O 92 ° 0 min 0 W/m² 4,2 °C -0,6 °C 20,9 km/h (4 Bft)
17.11.2022 00:34 21,9 °C 5,3 °C 58 % 93 % 1003,1 hPa 0,0 l/m² 13,8 km/h (3 Bft) O-NO 76 ° 0 min 0 W/m² 4,3 °C 0,1 °C 19,3 km/h (3 Bft)
17.11.2022 00:36 21,9 °C 5,2 °C 58 % 93 % 1003,1 hPa 0,0 l/m² 13,9 km/h (3 Bft) O 87 ° 0 min 0 W/m² 4,2 °C -0,1 °C 17,7 km/h (3 Bft)
17.11.2022 00:38 21,9 °C 5,3 °C 58 % 93 % 1003,1 hPa 0,0 l/m² 11,5 km/h (2 Bft) O 82 ° 0 min 0 W/m² 4,3 °C 1,4 °C 16,1 km/h (3 Bft)
17.11.2022 00:40 21,9 °C 5,2 °C 58 % 93 % 1003,1 hPa 0,0 l/m² 14,6 km/h (3 Bft) O 80 ° 0 min 0 W/m² 4,2 °C -0,5 °C 24,1 km/h (4 Bft)
17.11.2022 00:42 21,9 °C 5,2 °C 58 % 93 % 1003,1 hPa 0,0 l/m² 14,0 km/h (3 Bft) O 90 ° 0 min 0 W/m² 4,2 °C -0,2 °C 20,9 km/h (4 Bft)
17.11.2022 00:43 21,9 °C 5,2 °C 58 % 93 % 1003,1 hPa 0,0 l/m² 16,8 km/h (3 Bft) O-NO 67 ° 0 min 0 W/m² 4,2 °C -1,6 °C 19,3 km/h (3 Bft)
17.11.2022 00:46 21,9 °C 5,2 °C 58 % 93 % 1003,1 hPa 0,0 l/m² 15,3 km/h (3 Bft) O 80 ° 0 min 0 W/m² 4,2 °C -0,8 °C 20,9 km/h (4 Bft)
17.11.2022 00:48 21,9 °C 5,1 °C 58 % 93 % 1003,0 hPa 0,0 l/m² 13,5 km/h (3 Bft) O-NO 72 ° 0 min 0 W/m² 4,1 °C -0,0 °C 20,9 km/h (4 Bft)
17.11.2022 00:50 21,9 °C 5,2 °C 58 % 93 % 1003,0 hPa 0,0 l/m² 13,8 km/h (3 Bft) O 88 ° 0 min 0 W/m² 4,2 °C -0,0 °C 19,3 km/h (3 Bft)
17.11.2022 00:52 21,9 °C 5,1 °C 58 % 93 % 1003,0 hPa 0,0 l/m² 13,0 km/h (3 Bft) O 82 ° 0 min 0 W/m² 4,1 °C 0,3 °C 19,3 km/h (3 Bft)
17.11.2022 00:53 21,9 °C 5,1 °C 58 % 93 % 1003,0 hPa 0,0 l/m² 11,8 km/h (2 Bft) NO 52 ° 0 min 0 W/m² 4,1 °C 1,0 °C 19,3 km/h (3 Bft)
17.11.2022 00:54 21,9 °C 5,1 °C 58 % 93 % 1003,0 hPa 0,0 l/m² 15,0 km/h (3 Bft) O-NO 67 ° 0 min 0 W/m² 4,1 °C -0,8 °C 22,5 km/h (4 Bft)
17.11.2022 00:56 21,9 °C 5,1 °C 58 % 93 % 1003,0 hPa 0,0 l/m² 9,5 km/h (2 Bft) O 89 ° 0 min 0 W/m² 4,1 °C 2,5 °C 14,5 km/h (3 Bft)
17.11.2022 00:58 21,9 °C 5,1 °C 58 % 93 % 1003,0 hPa 0,0 l/m² 11,3 km/h (2 Bft) O-NO 71 ° 0 min 0 W/m² 4,1 °C 1,3 °C 16,1 km/h (3 Bft)
17.11.2022 01:00 21,9 °C 5,1 °C 58 % 93 % 1003,0 hPa 0,0 l/m² 13,5 km/h (3 Bft) O 85 ° 0 min 0 W/m² 4,1 °C -0,0 °C 20,9 km/h (4 Bft)
17.11.2022 01:02 21,9 °C 5,1 °C 58 % 93 % 1002,9 hPa 0,0 l/m² 12,6 km/h (3 Bft) O 99 ° 0 min 0 W/m² 4,1 °C 0,5 °C 24,1 km/h (4 Bft)
17.11.2022 01:03 21,9 °C 5,1 °C 58 % 93 % 1002,8 hPa 0,0 l/m² 9,8 km/h (2 Bft) O-NO 76 ° 0 min 0 W/m² 4,1 °C 2,3 °C 19,3 km/h (3 Bft)
17.11.2022 01:04 21,9 °C 5,1 °C 58 % 93 % 1002,8 hPa 0,0 l/m² 9,5 km/h (2 Bft) O-NO 63 ° 0 min 0 W/m² 4,1 °C 2,5 °C 12,9 km/h (3 Bft)
17.11.2022 01:06 21,9 °C 5,1 °C 58 % 93 % 1002,8 hPa 0,0 l/m² 11,6 km/h (2 Bft) O 80 ° 0 min 0 W/m² 4,1 °C 1,1 °C 19,3 km/h (3 Bft)
17.11.2022 01:08 21,9 °C 5,1 °C 58 % 93 % 1002,7 hPa 0,0 l/m² 9,2 km/h (2 Bft) NO 47 ° 0 min 0 W/m² 4,1 °C 2,8 °C 16,1 km/h (3 Bft)
17.11.2022 01:10 21,9 °C 5,0 °C 58 % 93 % 1002,8 hPa 0,0 l/m² 12,1 km/h (2 Bft) O 79 ° 0 min 0 W/m² 4,0 °C 0,7 °C 19,3 km/h (3 Bft)
17.11.2022 01:12 21,9 °C 5,0 °C 58 % 93 % 1002,7 hPa 0,0 l/m² 11,3 km/h (2 Bft) NO 51 ° 0 min 0 W/m² 4,0 °C 1,2 °C 19,3 km/h (3 Bft)
17.11.2022 01:13 21,9 °C 5,0 °C 58 % 93 % 1002,7 hPa 0,0 l/m² 17,4 km/h (3 Bft) O 84 ° 0 min 0 W/m² 4,0 °C -2,1 °C 27,4 km/h (5 Bft)
17.11.2022 01:14 21,9 °C 4,9 °C 58 % 93 % 1002,7 hPa 0,0 l/m² 15,6 km/h (3 Bft) O 87 ° 0 min 0 W/m² 3,9 °C -1,3 °C 24,1 km/h (4 Bft)
17.11.2022 01:16 21,9 °C 4,9 °C 58 % 93 % 1002,7 hPa 0,0 l/m² 14,9 km/h (3 Bft) O-NO 71 ° 0 min 0 W/m² 3,9 °C -1,0 °C 27,4 km/h (5 Bft)
17.11.2022 01:18 21,8 °C 4,9 °C 58 % 93 % 1002,7 hPa 0,0 l/m² 14,3 km/h (3 Bft) O-NO 71 ° 0 min 0 W/m² 3,9 °C -0,7 °C 25,7 km/h (4 Bft)
17.11.2022 01:20 21,9 °C 4,9 °C 58 % 93 % 1002,7 hPa 0,0 l/m² 12,6 km/h (3 Bft) NO 46 ° 0 min 0 W/m² 3,9 °C 0,3 °C 17,7 km/h (3 Bft)
17.11.2022 01:22 21,9 °C 4,9 °C 58 % 93 % 1002,7 hPa 0,0 l/m² 16,4 km/h (3 Bft) O-NO 60 ° 0 min 0 W/m² 3,9 °C -1,7 °C 29,0 km/h (5 Bft)
17.11.2022 01:23 21,9 °C 4,9 °C 58 % 93 % 1002,6 hPa 0,0 l/m² 21,5 km/h (4 Bft) NO 53 ° 0 min 0 W/m² 3,9 °C -3,9 °C 27,4 km/h (5 Bft)
17.11.2022 01:24 21,9 °C 4,9 °C 58 % 93 % 1002,6 hPa 0,0 l/m² 19,7 km/h (3 Bft) O 81 ° 0 min 0 W/m² 3,9 °C -3,2 °C 24,1 km/h (4 Bft)
17.11.2022 01:26 21,8 °C 4,9 °C 58 % 93 % 1002,6 hPa 0,0 l/m² 17,2 km/h (3 Bft) O 83 ° 0 min 0 W/m² 3,9 °C -2,1 °C 25,7 km/h (4 Bft)
17.11.2022 01:28 21,9 °C 4,9 °C 58 % 93 % 1002,6 hPa 0,0 l/m² 12,9 km/h (3 Bft) O-NO 71 ° 0 min 0 W/m² 3,9 °C 0,1 °C 20,9 km/h (4 Bft)
17.11.2022 01:30 21,9 °C 4,8 °C 58 % 93 % 1002,7 hPa 0,0 l/m² 17,8 km/h (3 Bft) O 92 ° 0 min 0 W/m² 3,8 °C -2,5 °C 27,4 km/h (5 Bft)
17.11.2022 01:32 21,9 °C 4,9 °C 58 % 93 % 1002,7 hPa 0,0 l/m² 19,1 km/h (3 Bft) O 83 ° 0 min 0 W/m² 3,9 °C -2,9 °C 27,4 km/h (5 Bft)
17.11.2022 01:33 21,9 °C 4,9 °C 58 % 93 % 1002,7 hPa 0,0 l/m² 12,0 km/h (2 Bft) NO 43 ° 0 min 0 W/m² 3,9 °C 0,6 °C 19,3 km/h (3 Bft)
17.11.2022 01:34 21,8 °C 4,9 °C 58 % 93 % 1002,7 hPa 0,0 l/m² 14,0 km/h (3 Bft) O 88 ° 0 min 0 W/m² 3,9 °C -0,5 °C 20,9 km/h (4 Bft)
17.11.2022 01:36 21,9 °C 4,9 °C 58 % 93 % 1002,7 hPa 0,0 l/m² 13,9 km/h (3 Bft) O 81 ° 0 min 0 W/m² 3,9 °C -0,5 °C 22,5 km/h (4 Bft)
17.11.2022 01:38 21,9 °C 4,9 °C 58 % 93 % 1002,6 hPa 0,0 l/m² 16,8 km/h (3 Bft) O-NO 68 ° 0 min 0 W/m² 3,9 °C -1,9 °C 25,7 km/h (4 Bft)
17.11.2022 01:40 21,9 °C 4,8 °C 57 % 93 % 1002,6 hPa 0,0 l/m² 17,8 km/h (3 Bft) O 82 ° 0 min 0 W/m² 3,8 °C -2,5 °C 29,0 km/h (5 Bft)
17.11.2022 01:42 21,9 °C 4,9 °C 57 % 93 % 1002,6 hPa 0,0 l/m² 13,2 km/h (3 Bft) O-NO 57 ° 0 min 0 W/m² 3,9 °C -0,1 °C 19,3 km/h (3 Bft)
17.11.2022 01:43 21,9 °C 4,9 °C 57 % 93 % 1002,6 hPa 0,0 l/m² 16,2 km/h (3 Bft) O 86 ° 0 min 0 W/m² 3,9 °C -1,6 °C 20,9 km/h (4 Bft)
17.11.2022 01:44 21,9 °C 4,8 °C 57 % 93 % 1002,7 hPa 0,0 l/m² 12,8 km/h (3 Bft) O 95 ° 0 min 0 W/m² 3,8 °C 0,0 °C 17,7 km/h (3 Bft)
17.11.2022 01:46 21,9 °C 4,9 °C 57 % 93 % 1002,7 hPa 0,0 l/m² 16,5 km/h (3 Bft) O 88 ° 0 min 0 W/m² 3,9 °C -1,8 °C 20,9 km/h (4 Bft)
17.11.2022 01:48 21,9 °C 4,9 °C 57 % 93 % 1002,6 hPa 0,0 l/m² 18,3 km/h (3 Bft) O 83 ° 0 min 0 W/m² 3,9 °C -2,6 °C 27,4 km/h (5 Bft)
17.11.2022 01:50 21,9 °C 4,8 °C 57 % 93 % 1002,7 hPa 0,0 l/m² 16,6 km/h (3 Bft) O 97 ° 0 min 0 W/m² 3,8 °C -2,0 °C 25,7 km/h (4 Bft)
17.11.2022 01:52 21,9 °C 4,8 °C 57 % 93 % 1002,6 hPa 0,0 l/m² 14,2 km/h (3 Bft) O-NO 67 ° 0 min 0 W/m² 3,8 °C -0,7 °C 22,5 km/h (4 Bft)
17.11.2022 01:53 21,9 °C 4,8 °C 57 % 93 % 1002,7 hPa 0,0 l/m² 16,5 km/h (3 Bft) O 83 ° 0 min 0 W/m² 3,8 °C -1,9 °C 24,1 km/h (4 Bft)
17.11.2022 01:54 21,9 °C 4,8 °C 57 % 93 % 1002,6 hPa 0,0 l/m² 9,3 km/h (2 Bft) O 84 ° 0 min 0 W/m² 3,8 °C 2,4 °C 16,1 km/h (3 Bft)
17.11.2022 01:56 21,9 °C 4,8 °C 57 % 93 % 1002,6 hPa 0,0 l/m² 16,7 km/h (3 Bft) NO 55 ° 0 min 0 W/m² 3,8 °C -2,0 °C 22,5 km/h (4 Bft)
17.11.2022 01:58 21,9 °C 4,8 °C 57 % 93 % 1002,5 hPa 0,0 l/m² 17,9 km/h (3 Bft) O 80 ° 0 min 0 W/m² 3,8 °C -2,5 °C 25,7 km/h (4 Bft)
17.11.2022 02:00 21,9 °C 4,8 °C 57 % 93 % 1002,6 hPa 0,0 l/m² 16,8 km/h (3 Bft) N-NO 32 ° 0 min 0 W/m² 3,8 °C -2,0 °C 25,7 km/h (4 Bft)
17.11.2022 02:02 21,9 °C 4,8 °C 57 % 93 % 1002,5 hPa 0,0 l/m² 11,5 km/h (2 Bft) O 88 ° 0 min 0 W/m² 3,8 °C 0,8 °C 20,9 km/h (4 Bft)
17.11.2022 02:03 21,9 °C 4,8 °C 57 % 93 % 1002,6 hPa 0,0 l/m² 15,8 km/h (3 Bft) O 80 ° 0 min 0 W/m² 3,8 °C -1,6 °C 20,9 km/h (4 Bft)
17.11.2022 02:04 21,9 °C 4,8 °C 57 % 93 % 1002,5 hPa 0,0 l/m² 17,4 km/h (3 Bft) O 86 ° 0 min 0 W/m² 3,8 °C -2,3 °C 20,9 km/h (4 Bft)
17.11.2022 02:06 21,9 °C 4,8 °C 57 % 93 % 1002,5 hPa 0,0 l/m² 10,4 km/h (2 Bft) O 88 ° 0 min 0 W/m² 3,8 °C 1,6 °C 14,5 km/h (3 Bft)
17.11.2022 02:08 21,9 °C 4,8 °C 57 % 93 % 1002,5 hPa 0,0 l/m² 9,5 km/h (2 Bft) O-NO 78 ° 0 min 0 W/m² 3,8 °C 2,2 °C 17,7 km/h (3 Bft)
17.11.2022 02:10 21,9 °C 4,8 °C 57 % 93 % 1002,4 hPa 0,0 l/m² 11,9 km/h (2 Bft) O-NO 71 ° 0 min 0 W/m² 3,8 °C 0,6 °C 17,7 km/h (3 Bft)
17.11.2022 02:12 21,9 °C 4,8 °C 57 % 93 % 1002,4 hPa 0,0 l/m² 16,9 km/h (3 Bft) O-NO 65 ° 0 min 0 W/m² 3,8 °C -2,1 °C 24,1 km/h (4 Bft)
17.11.2022 02:13 21,9 °C 4,8 °C 57 % 93 % 1002,4 hPa 0,0 l/m² 15,4 km/h (3 Bft) NO 38 ° 0 min 0 W/m² 3,8 °C -1,4 °C 22,5 km/h (4 Bft)
17.11.2022 02:15 21,9 °C 4,7 °C 57 % 93 % 1002,4 hPa 0,0 l/m² 20,1 km/h (4 Bft) O-NO 61 ° 0 min 0 W/m² 3,7 °C -3,6 °C 29,0 km/h (5 Bft)
17.11.2022 02:17 21,9 °C 4,7 °C 57 % 93 % 1002,3 hPa 0,0 l/m² 15,1 km/h (3 Bft) O 87 ° 0 min 0 W/m² 3,7 °C -1,3 °C 20,9 km/h (4 Bft)
17.11.2022 02:19 21,9 °C 4,7 °C 57 % 93 % 1002,4 hPa 0,0 l/m² 16,0 km/h (3 Bft) O 80 ° 0 min 0 W/m² 3,7 °C -1,8 °C 22,5 km/h (4 Bft)
17.11.2022 02:21 21,9 °C 4,7 °C 57 % 93 % 1002,3 hPa 0,0 l/m² 13,5 km/h (3 Bft) O-NO 60 ° 0 min 0 W/m² 3,7 °C -0,5 °C 19,3 km/h (3 Bft)
17.11.2022 02:22 21,9 °C 4,7 °C 57 % 93 % 1002,4 hPa 0,0 l/m² 14,1 km/h (3 Bft) O-NO 58 ° 0 min 0 W/m² 3,7 °C -0,8 °C 22,5 km/h (4 Bft)
17.11.2022 02:23 21,9 °C 4,7 °C 57 % 93 % 1002,4 hPa 0,0 l/m² 12,0 km/h (2 Bft) O-NO 76 ° 0 min 0 W/m² 3,7 °C 0,4 °C 16,1 km/h (3 Bft)
17.11.2022 02:24 21,9 °C 4,7 °C 57 % 93 % 1002,3 hPa 0,0 l/m² 15,1 km/h (3 Bft) O 81 ° 0 min 0 W/m² 3,7 °C -1,3 °C 20,9 km/h (4 Bft)
17.11.2022 02:25 21,9 °C 4,7 °C 57 % 93 % 1002,3 hPa 0,0 l/m² 12,0 km/h (2 Bft) O-NO 72 ° 0 min 0 W/m² 3,7 °C 0,4 °C 19,3 km/h (3 Bft)
17.11.2022 02:27 21,9 °C 4,7 °C 57 % 93 % 1002,3 hPa 0,0 l/m² 17,6 km/h (3 Bft) O-NO 69 ° 0 min 0 W/m² 3,7 °C -2,5 °C 22,5 km/h (4 Bft)
17.11.2022 02:29 21,9 °C 4,7 °C 57 % 93 % 1002,3 hPa 0,0 l/m² 18,8 km/h (3 Bft) O 92 ° 0 min 0 W/m² 3,7 °C -3,1 °C 27,4 km/h (5 Bft)
17.11.2022 02:31 21,9 °C 4,7 °C 57 % 93 % 1002,2 hPa 0,0 l/m² 16,4 km/h (3 Bft) O 81 ° 0 min 0 W/m² 3,7 °C -2,0 °C 24,1 km/h (4 Bft)
17.11.2022 02:32 21,9 °C 4,7 °C 57 % 93 % 1002,2 hPa 0,0 l/m² 15,5 km/h (3 Bft) O 80 ° 0 min 0 W/m² 3,7 °C -1,5 °C 22,5 km/h (4 Bft)
17.11.2022 02:33 21,9 °C 4,7 °C 57 % 93 % 1002,2 hPa 0,0 l/m² 15,7 km/h (3 Bft) O 86 ° 0 min 0 W/m² 3,7 °C -1,6 °C 20,9 km/h (4 Bft)
17.11.2022 02:35 21,9 °C 4,7 °C 57 % 93 % 1002,3 hPa 0,0 l/m² 14,2 km/h (3 Bft) O 82 ° 0 min 0 W/m² 3,7 °C -0,9 °C 22,5 km/h (4 Bft)
17.11.2022 02:37 21,9 °C 4,7 °C 57 % 93 % 1002,3 hPa 0,0 l/m² 14,7 km/h (3 Bft) O 79 ° 0 min 0 W/m² 3,7 °C -1,1 °C 19,3 km/h (3 Bft)
17.11.2022 02:39 21,9 °C 4,7 °C 57 % 93 % 1002,2 hPa 0,0 l/m² 17,6 km/h (3 Bft) O 95 ° 0 min 0 W/m² 3,7 °C -2,5 °C 25,7 km/h (4 Bft)
17.11.2022 02:41 21,9 °C 4,7 °C 57 % 93 % 1002,3 hPa 0,0 l/m² 14,2 km/h (3 Bft) O 86 ° 0 min 0 W/m² 3,7 °C -0,9 °C 20,9 km/h (4 Bft)
17.11.2022 02:42 21,9 °C 4,8 °C 57 % 93 % 1002,1 hPa 0,0 l/m² 20,8 km/h (4 Bft) O-NO 73 ° 0 min 0 W/m² 3,8 °C -3,7 °C 25,7 km/h (4 Bft)
17.11.2022 02:43 21,9 °C 4,8 °C 57 % 93 % 1002,2 hPa 0,0 l/m² 21,5 km/h (4 Bft) O 80 ° 0 min 0 W/m² 3,8 °C -4,0 °C 27,4 km/h (5 Bft)
17.11.2022 02:45 21,9 °C 4,8 °C 57 % 93 % 1002,1 hPa 0,0 l/m² 17,8 km/h (3 Bft) O 94 ° 0 min 0 W/m² 3,8 °C -2,5 °C 29,0 km/h (5 Bft)
17.11.2022 02:47 21,9 °C 4,8 °C 57 % 93 % 1002,2 hPa 0,0 l/m² 14,1 km/h (3 Bft) O-NO 76 ° 0 min 0 W/m² 3,8 °C -0,7 °C 27,4 km/h (5 Bft)
17.11.2022 02:49 21,9 °C 4,8 °C 57 % 93 % 1002,2 hPa 0,0 l/m² 11,4 km/h (2 Bft) O 90 ° 0 min 0 W/m² 3,8 °C 0,9 °C 19,3 km/h (3 Bft)
17.11.2022 02:51 21,9 °C 4,8 °C 57 % 93 % 1002,2 hPa 0,0 l/m² 14,5 km/h (3 Bft) O 84 ° 0 min 0 W/m² 3,8 °C -0,9 °C 24,1 km/h (4 Bft)
17.11.2022 02:52 21,9 °C 4,8 °C 57 % 93 % 1002,2 hPa 0,0 l/m² 19,5 km/h (3 Bft) O 86 ° 0 min 0 W/m² 3,8 °C -3,2 °C 22,5 km/h (4 Bft)
17.11.2022 02:53 21,9 °C 4,8 °C 57 % 93 % 1002,2 hPa 0,0 l/m² 13,8 km/h (3 Bft) O-NO 78 ° 0 min 0 W/m² 3,8 °C -0,5 °C 19,3 km/h (3 Bft)
17.11.2022 02:55 21,9 °C 4,8 °C 57 % 93 % 1002,2 hPa 0,0 l/m² 16,3 km/h (3 Bft) O 82 ° 0 min 0 W/m² 3,8 °C -1,8 °C 20,9 km/h (4 Bft)
17.11.2022 02:57 21,9 °C 4,8 °C 57 % 93 % 1002,1 hPa 0,0 l/m² 18,4 km/h (3 Bft) O 82 ° 0 min 0 W/m² 3,8 °C -2,8 °C 22,5 km/h (4 Bft)
17.11.2022 02:59 21,9 °C 4,8 °C 57 % 93 % 1002,2 hPa 0,0 l/m² 15,3 km/h (3 Bft) O 95 ° 0 min 0 W/m² 3,8 °C -1,3 °C 20,9 km/h (4 Bft)
17.11.2022 03:00 21,9 °C 4,8 °C 57 % 93 % 1002,2 hPa 0,0 l/m² 16,1 km/h (3 Bft) O 90 ° 0 min 0 W/m² 3,8 °C -1,7 °C 19,3 km/h (3 Bft)
17.11.2022 03:01 21,9 °C 4,8 °C 57 % 93 % 1002,1 hPa 0,0 l/m² 14,5 km/h (3 Bft) O 90 ° 0 min 0 W/m² 3,8 °C -0,9 °C 17,7 km/h (3 Bft)
17.11.2022 03:12 21,9 °C 4,8 °C 57 % 92 % 1001,9 hPa 0,0 l/m² 13,5 km/h (3 Bft) O-NO 71 ° 0 min 0 W/m² 3,6 °C -0,4 °C 16,1 km/h (3 Bft)
17.11.2022 03:14 21,9 °C 4,8 °C 57 % 93 % 1001,9 hPa 0,0 l/m² 17,1 km/h (3 Bft) O 80 ° 0 min 0 W/m² 3,8 °C -2,2 °C 22,5 km/h (4 Bft)
17.11.2022 03:15 21,9 °C 4,8 °C 57 % 92 % 1001,9 hPa 0,0 l/m² 16,0 km/h (3 Bft) O 84 ° 0 min 0 W/m² 3,6 °C -1,7 °C 19,3 km/h (3 Bft)
17.11.2022 03:17 21,9 °C 4,8 °C 57 % 92 % 1002,0 hPa 0,0 l/m² 17,8 km/h (3 Bft) O-NO 74 ° 0 min 0 W/m² 3,6 °C -2,5 °C 24,1 km/h (4 Bft)
17.11.2022 03:19 21,9 °C 4,8 °C 57 % 93 % 1002,0 hPa 0,0 l/m² 17,1 km/h (3 Bft) O-NO 68 ° 0 min 0 W/m² 3,8 °C -2,2 °C 22,5 km/h (4 Bft)
17.11.2022 03:20 21,9 °C 4,8 °C 57 % 92 % 1001,9 hPa 0,0 l/m² 14,2 km/h (3 Bft) O 91 ° 0 min 0 W/m² 3,6 °C -0,7 °C 22,5 km/h (4 Bft)
17.11.2022 03:22 21,9 °C 4,8 °C 57 % 92 % 1001,9 hPa 0,0 l/m² 16,8 km/h (3 Bft) O-NO 74 ° 0 min 0 W/m² 3,6 °C -2,0 °C 24,1 km/h (4 Bft)
17.11.2022 03:23 21,9 °C 4,8 °C 57 % 92 % 1001,9 hPa 0,0 l/m² 12,9 km/h (3 Bft) O 90 ° 0 min 0 W/m² 3,6 °C -0,0 °C 16,1 km/h (3 Bft)
17.11.2022 03:25 21,9 °C 4,8 °C 57 % 92 % 1002,0 hPa 0,0 l/m² 14,5 km/h (3 Bft) O-NO 62 ° 0 min 0 W/m² 3,6 °C -0,9 °C 20,9 km/h (4 Bft)
17.11.2022 03:27 21,9 °C 4,8 °C 57 % 92 % 1002,0 hPa 0,0 l/m² 15,2 km/h (3 Bft) O-NO 59 ° 0 min 0 W/m² 3,6 °C -1,3 °C 20,9 km/h (4 Bft)
17.11.2022 03:29 21,8 °C 4,8 °C 57 % 92 % 1002,0 hPa 0,0 l/m² 16,2 km/h (3 Bft) NO 55 ° 0 min 0 W/m² 3,6 °C -1,8 °C 22,5 km/h (4 Bft)
17.11.2022 03:30 21,9 °C 4,8 °C 57 % 92 % 1001,9 hPa 0,0 l/m² 21,6 km/h (4 Bft) O-NO 68 ° 0 min 0 W/m² 3,6 °C -4,0 °C 27,4 km/h (5 Bft)
17.11.2022 03:32 21,8 °C 4,8 °C 57 % 92 % 1001,9 hPa 0,0 l/m² 19,7 km/h (3 Bft) O 91 ° 0 min 0 W/m² 3,6 °C -3,3 °C 27,4 km/h (5 Bft)
17.11.2022 03:33 21,8 °C 4,8 °C 57 % 92 % 1001,9 hPa 0,0 l/m² 16,6 km/h (3 Bft) O 84 ° 0 min 0 W/m² 3,6 °C -2,0 °C 20,9 km/h (4 Bft)
17.11.2022 03:35 21,8 °C 4,8 °C 57 % 92 % 1001,8 hPa 0,0 l/m² 21,7 km/h (4 Bft) O-NO 72 ° 0 min 0 W/m² 3,6 °C -4,1 °C 32,2 km/h (5 Bft)
17.11.2022 03:37 21,9 °C 4,8 °C 57 % 92 % 1001,8 hPa 0,0 l/m² 17,3 km/h (3 Bft) O 95 ° 0 min 0 W/m² 3,6 °C -2,3 °C 22,5 km/h (4 Bft)
17.11.2022 03:39 21,8 °C 4,8 °C 57 % 92 % 1001,7 hPa 0,0 l/m² 21,7 km/h (4 Bft) O-NO 69 ° 0 min 0 W/m² 3,6 °C -4,1 °C 29,0 km/h (5 Bft)
17.11.2022 03:40 21,9 °C 4,8 °C 57 % 92 % 1001,8 hPa 0,0 l/m² 18,4 km/h (3 Bft) O 91 ° 0 min 0 W/m² 3,6 °C -2,8 °C 24,1 km/h (4 Bft)
17.11.2022 03:42 21,8 °C 4,8 °C 57 % 92 % 1001,7 hPa 0,0 l/m² 19,4 km/h (3 Bft) O 82 ° 0 min 0 W/m² 3,6 °C -3,2 °C 27,4 km/h (5 Bft)
17.11.2022 03:43 21,8 °C 4,8 °C 57 % 92 % 1001,7 hPa 0,0 l/m² 12,6 km/h (3 Bft) O-NO 78 ° 0 min 0 W/m² 3,6 °C 0,2 °C 14,5 km/h (3 Bft)
17.11.2022 03:45 21,9 °C 4,8 °C 57 % 92 % 1001,7 hPa 0,0 l/m² 22,0 km/h (4 Bft) O 90 ° 0 min 0 W/m² 3,6 °C -4,2 °C 29,0 km/h (5 Bft)
17.11.2022 03:47 21,8 °C 4,8 °C 57 % 92 % 1001,6 hPa 0,0 l/m² 19,1 km/h (3 Bft) O-NO 64 ° 0 min 0 W/m² 3,6 °C -3,1 °C 27,4 km/h (5 Bft)
17.11.2022 03:48 21,9 °C 4,8 °C 57 % 92 % 1001,6 hPa 0,0 l/m² 23,0 km/h (4 Bft) O 92 ° 0 min 0 W/m² 3,6 °C -4,5 °C 27,4 km/h (5 Bft)
17.11.2022 03:50 21,8 °C 4,8 °C 57 % 92 % 1001,6 hPa 0,0 l/m² 17,0 km/h (3 Bft) O 90 ° 0 min 0 W/m² 3,6 °C -2,1 °C 24,1 km/h (4 Bft)
17.11.2022 03:51 21,8 °C 4,8 °C 57 % 92 % 1001,7 hPa 0,0 l/m² 21,0 km/h (4 Bft) O-SO 104 ° 0 min 0 W/m² 3,6 °C -3,8 °C 27,4 km/h (5 Bft)
17.11.2022 03:52 21,8 °C 4,8 °C 57 % 92 % 1001,6 hPa 0,0 l/m² 21,3 km/h (4 Bft) O-NO 78 ° 0 min 0 W/m² 3,6 °C -3,9 °C 27,4 km/h (5 Bft)
17.11.2022 03:54 21,8 °C 4,8 °C 57 % 92 % 1001,6 hPa 0,0 l/m² 18,2 km/h (3 Bft) O 86 ° 0 min 0 W/m² 3,6 °C -2,7 °C 24,1 km/h (4 Bft)
17.11.2022 03:56 21,8 °C 4,8 °C 57 % 92 % 1001,6 hPa 0,0 l/m² 16,0 km/h (3 Bft) O-NO 74 ° 0 min 0 W/m² 3,6 °C -1,7 °C 24,1 km/h (4 Bft)
17.11.2022 03:58 21,8 °C 4,8 °C 57 % 92 % 1001,5 hPa 0,0 l/m² 15,2 km/h (3 Bft) O 101 ° 0 min 0 W/m² 3,6 °C -1,3 °C 25,7 km/h (4 Bft)
17.11.2022 04:00 21,8 °C 4,8 °C 57 % 92 % 1001,4 hPa 0,0 l/m² 18,1 km/h (3 Bft) O 81 ° 0 min 0 W/m² 3,6 °C -2,6 °C 27,4 km/h (5 Bft)
17.11.2022 04:01 21,8 °C 4,8 °C 57 % 92 % 1001,2 hPa 0,0 l/m² 19,4 km/h (3 Bft) O 80 ° 0 min 0 W/m² 3,6 °C -3,2 °C 32,2 km/h (5 Bft)
17.11.2022 04:02 21,8 °C 4,8 °C 57 % 92 % 1001,2 hPa 0,0 l/m² 20,2 km/h (4 Bft) O-NO 76 ° 0 min 0 W/m² 3,6 °C -3,5 °C 32,2 km/h (5 Bft)
17.11.2022 04:04 21,8 °C 4,8 °C 57 % 92 % 1001,3 hPa 0,0 l/m² 19,9 km/h (4 Bft) O 82 ° 0 min 0 W/m² 3,6 °C -3,4 °C 29,0 km/h (5 Bft)
17.11.2022 04:06 21,8 °C 4,8 °C 57 % 92 % 1001,3 hPa 0,0 l/m² 19,9 km/h (4 Bft) O-NO 57 ° 0 min 0 W/m² 3,6 °C -3,4 °C 32,2 km/h (5 Bft)
17.11.2022 04:08 21,8 °C 4,8 °C 57 % 91 % 1001,2 hPa 0,0 l/m² 17,7 km/h (3 Bft) O 81 ° 0 min 0 W/m² 3,5 °C -2,5 °C 25,7 km/h (4 Bft)
17.11.2022 04:10 21,8 °C 4,8 °C 57 % 91 % 1001,3 hPa 0,0 l/m² 17,3 km/h (3 Bft) O 92 ° 0 min 0 W/m² 3,5 °C -2,3 °C 25,7 km/h (4 Bft)
17.11.2022 04:11 21,8 °C 4,8 °C 57 % 91 % 1001,2 hPa 0,0 l/m² 16,5 km/h (3 Bft) O-NO 72 ° 0 min 0 W/m² 3,5 °C -1,9 °C 22,5 km/h (4 Bft)
17.11.2022 04:12 21,8 °C 4,8 °C 57 % 91 % 1001,3 hPa 0,0 l/m² 19,8 km/h (3 Bft) O 96 ° 0 min 0 W/m² 3,5 °C -3,4 °C 27,4 km/h (5 Bft)
17.11.2022 04:14 21,8 °C 4,8 °C 57 % 91 % 1001,3 hPa 0,0 l/m² 16,0 km/h (3 Bft) O 86 ° 0 min 0 W/m² 3,5 °C -1,7 °C 25,7 km/h (4 Bft)
17.11.2022 04:16 21,8 °C 4,8 °C 57 % 91 % 1001,3 hPa 0,0 l/m² 14,6 km/h (3 Bft) O 84 ° 0 min 0 W/m² 3,5 °C -1,0 °C 20,9 km/h (4 Bft)
17.11.2022 04:18 21,8 °C 4,8 °C 57 % 91 % 1001,3 hPa 0,0 l/m² 19,2 km/h (3 Bft) O 88 ° 0 min 0 W/m² 3,5 °C -3,1 °C 27,4 km/h (5 Bft)
17.11.2022 04:20 21,8 °C 4,8 °C 57 % 91 % 1001,4 hPa 0,0 l/m² 16,1 km/h (3 Bft) O 89 ° 0 min 0 W/m² 3,5 °C -1,7 °C 22,5 km/h (4 Bft)
17.11.2022 04:21 21,8 °C 4,8 °C 57 % 91 % 1001,3 hPa 0,0 l/m² 13,7 km/h (3 Bft) O 92 ° 0 min 0 W/m² 3,5 °C -0,5 °C 17,7 km/h (3 Bft)
17.11.2022 04:22 21,8 °C 4,8 °C 57 % 91 % 1001,3 hPa 0,0 l/m² 17,7 km/h (3 Bft) O 90 ° 0 min 0 W/m² 3,5 °C -2,5 °C 22,5 km/h (4 Bft)
17.11.2022 04:24 21,8 °C 4,8 °C 57 % 91 % 1001,3 hPa 0,0 l/m² 11,7 km/h (2 Bft) NO 49 ° 0 min 0 W/m² 3,5 °C 0,7 °C 22,5 km/h (4 Bft)
17.11.2022 04:26 21,8 °C 4,8 °C 57 % 91 % 1001,2 hPa 0,0 l/m² 15,1 km/h (3 Bft) O 84 ° 0 min 0 W/m² 3,5 °C -1,2 °C 24,1 km/h (4 Bft)
17.11.2022 04:28 21,8 °C 4,8 °C 57 % 92 % 1001,2 hPa 0,0 l/m² 11,0 km/h (2 Bft) O-NO 65 ° 0 min 0 W/m² 3,6 °C 1,2 °C 20,9 km/h (4 Bft)
17.11.2022 04:30 21,8 °C 4,8 °C 57 % 92 % 1001,2 hPa 0,0 l/m² 18,9 km/h (3 Bft) NO 46 ° 0 min 0 W/m² 3,6 °C -3,0 °C 29,0 km/h (5 Bft)
17.11.2022 04:31 21,8 °C 4,8 °C 57 % 92 % 1001,2 hPa 0,0 l/m² 13,9 km/h (3 Bft) O-NO 59 ° 0 min 0 W/m² 3,6 °C -0,6 °C 17,7 km/h (3 Bft)
17.11.2022 04:32 21,8 °C 4,8 °C 57 % 92 % 1001,2 hPa 0,0 l/m² 13,5 km/h (3 Bft) O 80 ° 0 min 0 W/m² 3,6 °C -0,4 °C 19,3 km/h (3 Bft)
17.11.2022 04:33 21,8 °C 4,8 °C 57 % 92 % 1001,2 hPa 0,0 l/m² 16,2 km/h (3 Bft) O 80 ° 0 min 0 W/m² 3,6 °C -1,8 °C 20,9 km/h (4 Bft)
17.11.2022 04:34 21,8 °C 4,8 °C 57 % 92 % 1001,2 hPa 0,0 l/m² 17,8 km/h (3 Bft) O 82 ° 0 min 0 W/m² 3,6 °C -2,5 °C 24,1 km/h (4 Bft)
17.11.2022 04:36 21,8 °C 4,8 °C 57 % 92 % 1001,3 hPa 0,0 l/m² 19,1 km/h (3 Bft) O-NO 74 ° 0 min 0 W/m² 3,6 °C -3,1 °C 32,2 km/h (5 Bft)
17.11.2022 04:38 21,8 °C 4,8 °C 57 % 92 % 1001,3 hPa 0,0 l/m² 18,3 km/h (3 Bft) O 92 ° 0 min 0 W/m² 3,6 °C -2,7 °C 24,1 km/h (4 Bft)
17.11.2022 04:40 21,8 °C 4,8 °C 57 % 92 % 1001,2 hPa 0,0 l/m² 20,0 km/h (4 Bft) O 84 ° 0 min 0 W/m² 3,6 °C -3,4 °C 27,4 km/h (5 Bft)
17.11.2022 04:41 21,8 °C 4,8 °C 57 % 92 % 1001,2 hPa 0,0 l/m² 15,9 km/h (3 Bft) O-NO 70 ° 0 min 0 W/m² 3,6 °C -1,6 °C 20,9 km/h (4 Bft)
17.11.2022 04:42 21,8 °C 4,7 °C 57 % 92 % 1001,1 hPa 0,0 l/m² 13,6 km/h (3 Bft) O 91 ° 0 min 0 W/m² 3,5 °C -0,5 °C 22,5 km/h (4 Bft)
17.11.2022 04:44 21,8 °C 4,7 °C 57 % 92 % 1001,0 hPa 0,0 l/m² 16,1 km/h (3 Bft) O 92 ° 0 min 0 W/m² 3,5 °C -1,8 °C 24,1 km/h (4 Bft)
17.11.2022 04:46 21,7 °C 4,7 °C 57 % 92 % 1001,1 hPa 0,0 l/m² 14,3 km/h (3 Bft) O-NO 64 ° 0 min 0 W/m² 3,5 °C -0,9 °C 25,7 km/h (4 Bft)
17.11.2022 04:48 21,8 °C 4,7 °C 57 % 92 % 1001,0 hPa 0,0 l/m² 21,8 km/h (4 Bft) O-NO 73 ° 0 min 0 W/m² 3,5 °C -4,3 °C 30,6 km/h (5 Bft)
17.11.2022 04:50 21,8 °C 4,7 °C 56 % 92 % 1001,0 hPa 0,0 l/m² 22,0 km/h (4 Bft) O 84 ° 0 min 0 W/m² 3,5 °C -4,3 °C 32,2 km/h (5 Bft)
17.11.2022 04:51 21,7 °C 4,7 °C 56 % 92 % 1001,0 hPa 0,0 l/m² 20,7 km/h (4 Bft) O 89 ° 0 min 0 W/m² 3,5 °C -3,8 °C 25,7 km/h (4 Bft)
17.11.2022 04:52 21,8 °C 4,7 °C 56 % 92 % 1000,9 hPa 0,0 l/m² 18,3 km/h (3 Bft) O 81 ° 0 min 0 W/m² 3,5 °C -2,9 °C 24,1 km/h (4 Bft)
17.11.2022 04:54 21,7 °C 4,7 °C 57 % 92 % 1001,0 hPa 0,0 l/m² 19,0 km/h (3 Bft) NO 44 ° 0 min 0 W/m² 3,5 °C -3,1 °C 30,6 km/h (5 Bft)
17.11.2022 04:56 21,7 °C 4,7 °C 57 % 92 % 1000,9 hPa 0,0 l/m² 16,6 km/h (3 Bft) O 79 ° 0 min 0 W/m² 3,5 °C -2,1 °C 22,5 km/h (4 Bft)
17.11.2022 04:58 21,7 °C 4,7 °C 57 % 91 % 1000,9 hPa 0,0 l/m² 21,2 km/h (4 Bft) O 93 ° 0 min 0 W/m² 3,4 °C -4,0 °C 32,2 km/h (5 Bft)
17.11.2022 05:00 21,7 °C 4,7 °C 57 % 91 % 1001,0 hPa 0,0 l/m² 18,0 km/h (3 Bft) O 84 ° 0 min 0 W/m² 3,4 °C -2,7 °C 29,0 km/h (5 Bft)
17.11.2022 05:01 21,7 °C 4,7 °C 57 % 91 % 1001,0 hPa 0,0 l/m² 17,2 km/h (3 Bft) O 86 ° 0 min 0 W/m² 3,4 °C -2,4 °C 24,1 km/h (4 Bft)
17.11.2022 05:02 21,7 °C 4,7 °C 57 % 91 % 1001,0 hPa 0,0 l/m² 17,2 km/h (3 Bft) NO 56 ° 0 min 0 W/m² 3,4 °C -2,4 °C 22,5 km/h (4 Bft)
17.11.2022 05:04 21,7 °C 4,7 °C 57 % 91 % 1001,1 hPa 0,0 l/m² 17,3 km/h (3 Bft) O-NO 78 ° 0 min 0 W/m² 3,4 °C -2,4 °C 24,1 km/h (4 Bft)
17.11.2022 05:06 21,7 °C 4,7 °C 57 % 91 % 1001,1 hPa 0,0 l/m² 18,0 km/h (3 Bft) O-NO 67 ° 0 min 0 W/m² 3,4 °C -2,7 °C 25,7 km/h (4 Bft)
17.11.2022 05:08 21,7 °C 4,7 °C 57 % 91 % 1001,0 hPa 0,0 l/m² 18,6 km/h (3 Bft) O 84 ° 0 min 0 W/m² 3,4 °C -3,0 °C 25,7 km/h (4 Bft)
17.11.2022 05:10 21,7 °C 4,6 °C 57 % 92 % 1001,1 hPa 0,0 l/m² 21,2 km/h (4 Bft) O 97 ° 0 min 0 W/m² 3,4 °C -4,2 °C 25,7 km/h (4 Bft)
17.11.2022 05:11 21,8 °C 4,7 °C 57 % 92 % 1001,0 hPa 0,0 l/m² 17,8 km/h (3 Bft) O 92 ° 0 min 0 W/m² 3,5 °C -2,6 °C 30,6 km/h (5 Bft)
17.11.2022 05:12 21,8 °C 4,7 °C 57 % 91 % 1001,0 hPa 0,0 l/m² 19,3 km/h (3 Bft) O 90 ° 0 min 0 W/m² 3,4 °C -3,3 °C 33,8 km/h (5 Bft)
17.11.2022 05:13 21,7 °C 4,6 °C 57 % 91 % 1000,9 hPa 0,0 l/m² 24,0 km/h (4 Bft) O-NO 78 ° 0 min 0 W/m² 3,3 °C -5,2 °C 33,8 km/h (5 Bft)
17.11.2022 05:14 21,7 °C 4,7 °C 57 % 91 % 1001,0 hPa 0,0 l/m² 30,0 km/h (5 Bft) O 85 ° 0 min 0 W/m² 3,4 °C -6,8 °C 43,5 km/h (6 Bft)
17.11.2022 05:16 21,7 °C 4,6 °C 57 % 91 % 1001,0 hPa 0,0 l/m² 21,2 km/h (4 Bft) O 88 ° 0 min 0 W/m² 3,3 °C -4,2 °C 25,7 km/h (4 Bft)
17.11.2022 05:18 21,8 °C 4,6 °C 57 % 91 % 1001,0 hPa 0,0 l/m² 20,0 km/h (4 Bft) O 98 ° 0 min 0 W/m² 3,3 °C -3,7 °C 27,4 km/h (5 Bft)
17.11.2022 05:20 21,8 °C 4,7 °C 57 % 91 % 1001,0 hPa 0,0 l/m² 24,0 km/h (4 Bft) O 92 ° 0 min 0 W/m² 3,4 °C -5,0 °C 32,2 km/h (5 Bft)
17.11.2022 05:21 21,8 °C 4,6 °C 57 % 91 % 1001,0 hPa 0,0 l/m² 22,4 km/h (4 Bft) O 101 ° 0 min 0 W/m² 3,3 °C -4,6 °C 25,7 km/h (4 Bft)
17.11.2022 05:22 21,7 °C 4,6 °C 57 % 91 % 1001,0 hPa 0,0 l/m² 24,6 km/h (4 Bft) O 89 ° 0 min 0 W/m² 3,3 °C -5,4 °C 32,2 km/h (5 Bft)
17.11.2022 05:23 21,7 °C 4,6 °C 57 % 91 % 1001,0 hPa 0,0 l/m² 25,8 km/h (4 Bft) O 96 ° 0 min 0 W/m² 3,3 °C -5,7 °C 29,0 km/h (5 Bft)
17.11.2022 05:24 21,7 °C 4,6 °C 57 % 91 % 1001,0 hPa 0,0 l/m² 21,7 km/h (4 Bft) O 94 ° 0 min 0 W/m² 3,3 °C -4,3 °C 25,7 km/h (4 Bft)
17.11.2022 05:25 21,8 °C 4,6 °C 57 % 91 % 1001,0 hPa 0,0 l/m² 19,3 km/h (3 Bft) O 97 ° 0 min 0 W/m² 3,3 °C -3,4 °C 25,7 km/h (4 Bft)
17.11.2022 05:27 21,7 °C 4,6 °C 57 % 91 % 1001,1 hPa 0,0 l/m² 19,0 km/h (3 Bft) O 80 ° 0 min 0 W/m² 3,3 °C -3,3 °C 25,7 km/h (4 Bft)
17.11.2022 05:29 21,7 °C 4,6 °C 57 % 91 % 1001,1 hPa 0,0 l/m² 19,1 km/h (3 Bft) O 83 ° 0 min 0 W/m² 3,3 °C -3,3 °C 25,7 km/h (4 Bft)
17.11.2022 05:31 21,8 °C 4,6 °C 57 % 91 % 1001,0 hPa 0,0 l/m² 22,3 km/h (4 Bft) O-NO 59 ° 0 min 0 W/m² 3,3 °C -4,6 °C 30,6 km/h (5 Bft)
17.11.2022 05:32 21,7 °C 4,6 °C 57 % 91 % 1001,0 hPa 0,0 l/m² 18,3 km/h (3 Bft) O 90 ° 0 min 0 W/m² 3,3 °C -3,0 °C 22,5 km/h (4 Bft)
17.11.2022 05:33 21,7 °C 4,6 °C 57 % 91 % 1001,0 hPa 0,0 l/m² 19,6 km/h (3 Bft) O 99 ° 0 min 0 W/m² 3,3 °C -3,5 °C 29,0 km/h (5 Bft)
17.11.2022 05:35 21,7 °C 4,6 °C 57 % 91 % 1001,1 hPa 0,0 l/m² 19,8 km/h (3 Bft) O 90 ° 0 min 0 W/m² 3,3 °C -3,6 °C 27,4 km/h (5 Bft)
17.11.2022 05:36 21,8 °C 4,6 °C 58 % 91 % 1001,1 hPa 0,0 l/m² 18,8 km/h (3 Bft) O 96 ° 0 min 0 W/m² 3,3 °C -3,2 °C 24,1 km/h (4 Bft)
17.11.2022 05:38 21,8 °C 4,6 °C 58 % 90 % 1001,0 hPa 0,0 l/m² 21,3 km/h (4 Bft) O 82 ° 0 min 0 W/m² 3,1 °C -4,2 °C 27,4 km/h (5 Bft)
17.11.2022 05:40 21,8 °C 4,6 °C 58 % 90 % 1001,0 hPa 0,0 l/m² 23,9 km/h (4 Bft) O-SO 116 ° 0 min 0 W/m² 3,1 °C -5,1 °C 30,6 km/h (5 Bft)
17.11.2022 05:41 21,7 °C 4,6 °C 57 % 90 % 1001,0 hPa 0,0 l/m² 24,1 km/h (4 Bft) O 90 ° 0 min 0 W/m² 3,1 °C -5,2 °C 30,6 km/h (5 Bft)
17.11.2022 05:42 21,7 °C 4,7 °C 58 % 90 % 1001,0 hPa 0,0 l/m² 23,6 km/h (4 Bft) O-NO 78 ° 0 min 0 W/m² 3,2 °C -4,9 °C 29,0 km/h (5 Bft)
17.11.2022 05:43 21,8 °C 4,6 °C 58 % 90 % 1001,0 hPa 0,0 l/m² 24,0 km/h (4 Bft) O 88 ° 0 min 0 W/m² 3,1 °C -5,2 °C 30,6 km/h (5 Bft)
17.11.2022 05:45 21,7 °C 4,6 °C 58 % 90 % 1000,8 hPa 0,0 l/m² 21,4 km/h (4 Bft) O-NO 76 ° 0 min 0 W/m² 3,1 °C -4,2 °C 29,0 km/h (5 Bft)
17.11.2022 05:47 21,8 °C 4,6 °C 58 % 90 % 1000,9 hPa 0,0 l/m² 18,3 km/h (3 Bft) O 96 ° 0 min 0 W/m² 3,1 °C -3,0 °C 25,7 km/h (4 Bft)
17.11.2022 05:49 21,7 °C 4,6 °C 57 % 90 % 1000,8 hPa 0,0 l/m² 25,3 km/h (4 Bft) O-SO 105 ° 0 min 0 W/m² 3,1 °C -5,6 °C 30,6 km/h (5 Bft)
17.11.2022 05:51 21,8 °C 4,6 °C 57 % 90 % 1000,8 hPa 0,0 l/m² 22,2 km/h (4 Bft) O 90 ° 0 min 0 W/m² 3,1 °C -4,5 °C 32,2 km/h (5 Bft)
17.11.2022 05:52 21,8 °C 4,6 °C 57 % 90 % 1000,8 hPa 0,0 l/m² 23,4 km/h (4 Bft) O 84 ° 0 min 0 W/m² 3,1 °C -5,0 °C 29,0 km/h (5 Bft)
17.11.2022 05:53 21,8 °C 4,6 °C 57 % 90 % 1000,7 hPa 0,0 l/m² 21,8 km/h (4 Bft) O 84 ° 0 min 0 W/m² 3,1 °C -4,4 °C 33,8 km/h (5 Bft)
17.11.2022 05:55 21,7 °C 4,6 °C 57 % 90 % 1000,8 hPa 0,0 l/m² 24,8 km/h (4 Bft) O-SO 106 ° 0 min 0 W/m² 3,1 °C -5,4 °C 35,4 km/h (5 Bft)
17.11.2022 05:57 21,7 °C 4,6 °C 57 % 90 % 1000,8 hPa 0,0 l/m² 25,0 km/h (4 Bft) O 88 ° 0 min 0 W/m² 3,1 °C -5,5 °C 32,2 km/h (5 Bft)
17.11.2022 05:59 21,7 °C 4,6 °C 57 % 90 % 1000,7 hPa 0,0 l/m² 23,7 km/h (4 Bft) O 96 ° 0 min 0 W/m² 3,1 °C -5,1 °C 33,8 km/h (5 Bft)
17.11.2022 06:01 21,7 °C 4,6 °C 57 % 90 % 1000,8 hPa 0,0 l/m² 24,4 km/h (4 Bft) O 93 ° 0 min 0 W/m² 3,1 °C -5,3 °C 32,2 km/h (5 Bft)
17.11.2022 06:02 21,7 °C 4,6 °C 57 % 90 % 1000,8 hPa 0,0 l/m² 19,9 km/h (4 Bft) O 98 ° 0 min 0 W/m² 3,1 °C -3,6 °C 25,7 km/h (4 Bft)
17.11.2022 06:03 21,7 °C 4,6 °C 57 % 90 % 1000,8 hPa 0,0 l/m² 22,8 km/h (4 Bft) O 90 ° 0 min 0 W/m² 3,1 °C -4,7 °C 25,7 km/h (4 Bft)
17.11.2022 06:04 21,7 °C 4,6 °C 57 % 90 % 1000,8 hPa 0,0 l/m² 19,2 km/h (3 Bft) O 82 ° 0 min 0 W/m² 3,1 °C -3,4 °C 22,5 km/h (4 Bft)
17.11.2022 06:05 21,7 °C 4,6 °C 57 % 90 % 1000,8 hPa 0,0 l/m² 20,1 km/h (4 Bft) O 100 ° 0 min 0 W/m² 3,1 °C -3,7 °C 32,2 km/h (5 Bft)
17.11.2022 06:07 21,7 °C 4,6 °C 57 % 90 % 1000,7 hPa 0,0 l/m² 23,1 km/h (4 Bft) O 85 ° 0 min 0 W/m² 3,1 °C -4,8 °C 32,2 km/h (5 Bft)
17.11.2022 06:09 21,7 °C 4,6 °C 57 % 90 % 1000,8 hPa 0,0 l/m² 19,6 km/h (3 Bft) O-NO 60 ° 0 min 0 W/m² 3,1 °C -3,5 °C 29,0 km/h (5 Bft)
17.11.2022 06:11 21,7 °C 4,6 °C 57 % 90 % 1000,6 hPa 0,0 l/m² 17,5 km/h (3 Bft) O-SO 105 ° 0 min 0 W/m² 3,1 °C -2,6 °C 24,1 km/h (4 Bft)
17.11.2022 06:12 21,7 °C 4,6 °C 57 % 90 % 1000,7 hPa 0,0 l/m² 18,2 km/h (3 Bft) O-NO 71 ° 0 min 0 W/m² 3,1 °C -2,9 °C 25,7 km/h (4 Bft)
17.11.2022 06:13 21,7 °C 4,6 °C 57 % 90 % 1000,6 hPa 0,0 l/m² 17,9 km/h (3 Bft) O 89 ° 0 min 0 W/m² 3,1 °C -2,8 °C 25,7 km/h (4 Bft)
17.11.2022 06:15 21,7 °C 4,6 °C 57 % 90 % 1000,5 hPa 0,0 l/m² 16,2 km/h (3 Bft) O 91 ° 0 min 0 W/m² 3,1 °C -2,0 °C 22,5 km/h (4 Bft)
17.11.2022 06:17 21,7 °C 4,6 °C 57 % 90 % 1000,5 hPa 0,0 l/m² 13,5 km/h (3 Bft) O-NO 71 ° 0 min 0 W/m² 3,1 °C -0,6 °C 17,7 km/h (3 Bft)
17.11.2022 06:19 21,7 °C 4,6 °C 58 % 90 % 1000,5 hPa 0,0 l/m² 20,3 km/h (4 Bft) O 101 ° 0 min 0 W/m² 3,1 °C -3,8 °C 32,2 km/h (5 Bft)
17.11.2022 06:21 21,7 °C 4,6 °C 58 % 90 % 1000,5 hPa 0,0 l/m² 24,8 km/h (4 Bft) O 94 ° 0 min 0 W/m² 3,1 °C -5,4 °C 40,2 km/h (6 Bft)
17.11.2022 06:22 21,7 °C 4,6 °C 58 % 90 % 1000,6 hPa 0,0 l/m² 25,7 km/h (4 Bft) O 98 ° 0 min 0 W/m² 3,1 °C -5,7 °C 32,2 km/h (5 Bft)
17.11.2022 06:23 21,7 °C 4,6 °C 58 % 90 % 1000,6 hPa 0,2 l/m² 23,1 km/h (4 Bft) O 94 ° 0 min 0 W/m² 3,1 °C -4,8 °C 30,6 km/h (5 Bft)
17.11.2022 06:25 21,7 °C 4,5 °C 58 % 90 % 1000,6 hPa 0,0 l/m² 26,0 km/h (4 Bft) O 81 ° 0 min 0 W/m² 3,0 °C -5,9 °C 37,0 km/h (5 Bft)
17.11.2022 06:27 21,7 °C 4,6 °C 58 % 90 % 1000,6 hPa 0,0 l/m² 26,8 km/h (4 Bft) O 88 ° 0 min 0 W/m² 3,1 °C -6,0 °C 40,2 km/h (6 Bft)
17.11.2022 06:29 21,7 °C 4,5 °C 58 % 90 % 1000,6 hPa 0,0 l/m² 27,7 km/h (5 Bft) O-SO 110 ° 0 min 0 W/m² 3,0 °C -6,4 °C 35,4 km/h (5 Bft)
17.11.2022 06:31 21,7 °C 4,5 °C 58 % 90 % 1000,6 hPa 0,0 l/m² 26,7 km/h (4 Bft) O 90 ° 0 min 0 W/m² 3,0 °C -6,2 °C 38,6 km/h (6 Bft)
17.11.2022 06:32 21,7 °C 4,5 °C 58 % 90 % 1000,6 hPa 0,0 l/m² 25,3 km/h (4 Bft) O 91 ° 0 min 0 W/m² 3,0 °C -5,7 °C 35,4 km/h (5 Bft)
17.11.2022 06:33 21,7 °C 4,5 °C 58 % 90 % 1000,6 hPa 0,0 l/m² 17,6 km/h (3 Bft) O 86 ° 0 min 0 W/m² 3,0 °C -2,8 °C 20,9 km/h (4 Bft)
17.11.2022 06:35 21,7 °C 4,4 °C 58 % 90 % 1000,6 hPa 0,0 l/m² 16,1 km/h (3 Bft) O 79 ° 0 min 0 W/m² 2,9 °C -2,2 °C 22,5 km/h (4 Bft)
17.11.2022 06:37 21,7 °C 4,4 °C 58 % 90 % 1000,5 hPa 0,0 l/m² 16,1 km/h (3 Bft) O 94 ° 0 min 0 W/m² 2,9 °C -2,2 °C 22,5 km/h (4 Bft)
17.11.2022 06:39 21,7 °C 4,4 °C 58 % 90 % 1000,5 hPa 0,0 l/m² 18,4 km/h (3 Bft) O 96 ° 0 min 0 W/m² 2,9 °C -3,3 °C 25,7 km/h (4 Bft)
17.11.2022 06:41 21,7 °C 4,4 °C 58 % 90 % 1000,4 hPa 0,0 l/m² 19,5 km/h (3 Bft) O 84 ° 0 min 0 W/m² 2,9 °C -3,7 °C 27,4 km/h (5 Bft)
17.11.2022 06:42 21,7 °C 4,4 °C 58 % 90 % 1000,3 hPa 0,0 l/m² 18,0 km/h (3 Bft) O 86 ° 0 min 0 W/m² 2,9 °C -3,1 °C 24,1 km/h (4 Bft)
17.11.2022 06:43 21,7 °C 4,4 °C 58 % 90 % 1000,3 hPa 0,0 l/m² 13,8 km/h (3 Bft) O 80 ° 0 min 0 W/m² 2,9 °C -1,0 °C 19,3 km/h (3 Bft)
17.11.2022 06:45 21,7 °C 4,4 °C 58 % 90 % 1000,4 hPa 0,0 l/m² 13,9 km/h (3 Bft) O-NO 62 ° 0 min 0 W/m² 2,9 °C -1,1 °C 19,3 km/h (3 Bft)
17.11.2022 06:47 21,7 °C 4,4 °C 58 % 90 % 1000,3 hPa 0,0 l/m² 17,9 km/h (3 Bft) O-NO 76 ° 0 min 0 W/m² 2,9 °C -3,1 °C 25,7 km/h (4 Bft)
17.11.2022 06:48 21,8 °C 4,4 °C 58 % 90 % 1000,2 hPa 0,0 l/m² 17,6 km/h (3 Bft) O-NO 76 ° 0 min 0 W/m² 2,9 °C -2,9 °C 20,9 km/h (4 Bft)
17.11.2022 06:50 21,7 °C 4,4 °C 58 % 90 % 1000,3 hPa 0,0 l/m² 18,2 km/h (3 Bft) O-NO 78 ° 0 min 0 W/m² 2,9 °C -3,2 °C 27,4 km/h (5 Bft)
17.11.2022 06:51 21,7 °C 4,4 °C 58 % 90 % 1000,2 hPa 0,0 l/m² 17,3 km/h (3 Bft) O-NO 74 ° 0 min 0 W/m² 2,9 °C -2,8 °C 22,5 km/h (4 Bft)
17.11.2022 06:52 21,7 °C 4,4 °C 58 % 90 % 1000,2 hPa 0,0 l/m² 16,8 km/h (3 Bft) O 87 ° 0 min 0 W/m² 2,9 °C -2,5 °C 24,1 km/h (4 Bft)
17.11.2022 06:53 21,7 °C 4,4 °C 58 % 90 % 1000,2 hPa 0,0 l/m² 15,9 km/h (3 Bft) O 83 ° 0 min 0 W/m² 2,9 °C -2,1 °C 20,9 km/h (4 Bft)
17.11.2022 06:55 21,8 °C 4,4 °C 58 % 90 % 1000,2 hPa 0,0 l/m² 12,0 km/h (2 Bft) O-NO 74 ° 0 min 0 W/m² 2,9 °C 0,1 °C 19,3 km/h (3 Bft)
17.11.2022 06:57 21,8 °C 4,4 °C 58 % 90 % 1000,1 hPa 0,0 l/m² 19,4 km/h (3 Bft) O 89 ° 0 min 0 W/m² 2,9 °C -3,7 °C 25,7 km/h (4 Bft)
17.11.2022 06:59 21,8 °C 4,4 °C 58 % 90 % 1000,2 hPa 0,0 l/m² 18,2 km/h (3 Bft) O-NO 73 ° 0 min 0 W/m² 2,9 °C -3,2 °C 24,1 km/h (4 Bft)
17.11.2022 07:01 21,8 °C 4,3 °C 58 % 90 % 1000,1 hPa 0,0 l/m² 19,0 km/h (3 Bft) O-NO 62 ° 0 min 0 W/m² 2,8 °C -3,7 °C 25,7 km/h (4 Bft)
17.11.2022 07:02 21,8 °C 4,3 °C 58 % 90 % 1000,1 hPa 0,0 l/m² 17,9 km/h (3 Bft) O-SO 103 ° 0 min 0 W/m² 2,8 °C -3,2 °C 24,1 km/h (4 Bft)
17.11.2022 07:03 21,8 °C 4,3 °C 58 % 90 % 1000,1 hPa 0,0 l/m² 24,1 km/h (4 Bft) O 82 ° 0 min 0 W/m² 2,8 °C -5,6 °C 33,8 km/h (5 Bft)
17.11.2022 07:06 21,8 °C 4,3 °C 58 % 91 % 1000,1 hPa 0,0 l/m² 21,2 km/h (4 Bft) O 86 ° 0 min 0 W/m² 3,0 °C -4,6 °C 32,2 km/h (5 Bft)
17.11.2022 07:08 21,8 °C 4,3 °C 58 % 91 % 1000,0 hPa 0,0 l/m² 19,0 km/h (3 Bft) O 80 ° 0 min 0 W/m² 3,0 °C -3,7 °C 25,7 km/h (4 Bft)
17.11.2022 07:10 21,8 °C 4,3 °C 58 % 91 % 999,9 hPa 0,0 l/m² 17,2 km/h (3 Bft) O-NO 75 ° 0 min 0 W/m² 3,0 °C -2,9 °C 25,7 km/h (4 Bft)
17.11.2022 07:11 21,8 °C 4,3 °C 57 % 91 % 999,8 hPa 0,0 l/m² 15,2 km/h (3 Bft) O 92 ° 0 min 0 W/m² 3,0 °C -1,9 °C 25,7 km/h (4 Bft)
17.11.2022 07:12 21,8 °C 4,3 °C 57 % 91 % 999,9 hPa 0,0 l/m² 18,6 km/h (3 Bft) O 90 ° 0 min 0 W/m² 3,0 °C -3,5 °C 24,1 km/h (4 Bft)
17.11.2022 07:13 21,8 °C 4,2 °C 57 % 91 % 999,9 hPa 0,0 l/m² 17,7 km/h (3 Bft) O 84 ° 0 min 0 W/m² 2,9 °C -3,2 °C 22,5 km/h (4 Bft)
17.11.2022 07:15 21,7 °C 4,3 °C 57 % 91 % 999,8 hPa 0,0 l/m² 16,5 km/h (3 Bft) O 82 ° 0 min 0 W/m² 3,0 °C -2,5 °C 24,1 km/h (4 Bft)
17.11.2022 07:17 21,7 °C 4,2 °C 57 % 91 % 999,8 hPa 0,0 l/m² 19,0 km/h (3 Bft) O 80 ° 0 min 0 W/m² 2,9 °C -3,8 °C 24,1 km/h (4 Bft)
17.11.2022 07:19 21,8 °C 4,3 °C 57 % 91 % 999,8 hPa 0,0 l/m² 19,9 km/h (4 Bft) O 86 ° 0 min 0 W/m² 3,0 °C -4,0 °C 25,7 km/h (4 Bft)
17.11.2022 07:21 21,8 °C 4,2 °C 57 % 91 % 999,8 hPa 0,0 l/m² 22,8 km/h (4 Bft) O 82 ° 0 min 0 W/m² 2,9 °C -5,3 °C 32,2 km/h (5 Bft)
17.11.2022 07:22 21,7 °C 4,2 °C 57 % 91 % 999,8 hPa 0,0 l/m² 20,0 km/h (4 Bft) O-NO 71 ° 0 min 0 W/m² 2,9 °C -4,2 °C 27,4 km/h (5 Bft)
17.11.2022 07:23 21,8 °C 4,2 °C 57 % 91 % 999,8 hPa 0,0 l/m² 19,4 km/h (3 Bft) O 88 ° 0 min 0 W/m² 2,9 °C -4,0 °C 27,4 km/h (5 Bft)
17.11.2022 07:26 21,7 °C 4,2 °C 57 % 91 % 999,7 hPa 0,0 l/m² 17,4 km/h (3 Bft) O 80 ° 0 min 0 W/m² 2,9 °C -3,1 °C 29,0 km/h (5 Bft)
17.11.2022 07:28 21,7 °C 4,2 °C 57 % 91 % 999,8 hPa 0,0 l/m² 22,5 km/h (4 Bft) O 88 ° 0 min 0 W/m² 2,9 °C -5,2 °C 29,0 km/h (5 Bft)
17.11.2022 07:30 21,7 °C 4,2 °C 57 % 91 % 999,7 hPa 0,0 l/m² 21,1 km/h (4 Bft) O 84 ° 0 min 0 W/m² 2,9 °C -4,6 °C 32,2 km/h (5 Bft)
17.11.2022 07:31 21,7 °C 4,2 °C 57 % 91 % 999,8 hPa 0,0 l/m² 28,5 km/h (5 Bft) O-NO 63 ° 0 min 0 W/m² 2,9 °C -7,1 °C 40,2 km/h (6 Bft)
17.11.2022 07:32 21,7 °C 4,2 °C 57 % 91 % 999,7 hPa 0,0 l/m² 21,5 km/h (4 Bft) O 84 ° 0 min 0 W/m² 2,9 °C -4,8 °C 27,4 km/h (5 Bft)
17.11.2022 07:33 21,7 °C 4,2 °C 57 % 91 % 999,7 hPa 0,0 l/m² 16,6 km/h (3 Bft) O-NO 78 ° 0 min 0 W/m² 2,9 °C -2,7 °C 22,5 km/h (4 Bft)
17.11.2022 07:36 21,7 °C 4,2 °C 57 % 91 % 999,7 hPa 0,0 l/m² 22,2 km/h (4 Bft) O 90 ° 0 min 0 W/m² 2,9 °C -5,1 °C 35,4 km/h (5 Bft)
17.11.2022 07:38 21,7 °C 4,2 °C 57 % 91 % 999,7 hPa 0,0 l/m² 22,2 km/h (4 Bft) O 82 ° 0 min 0 W/m² 2,9 °C -5,1 °C 29,0 km/h (5 Bft)
17.11.2022 07:40 21,7 °C 4,2 °C 57 % 91 % 999,7 hPa 0,0 l/m² 22,1 km/h (4 Bft) O 85 ° 0 min 0 W/m² 2,9 °C -5,0 °C 32,2 km/h (5 Bft)
17.11.2022 07:41 21,7 °C 4,2 °C 57 % 91 % 999,7 hPa 0,0 l/m² 23,9 km/h (4 Bft) O 82 ° 0 min 0 W/m² 2,9 °C -5,7 °C 32,2 km/h (5 Bft)
17.11.2022 07:42 21,7 °C 4,2 °C 56 % 91 % 999,7 hPa 0,0 l/m² 19,8 km/h (3 Bft) O 82 ° 0 min 0 W/m² 2,9 °C -4,1 °C 25,7 km/h (4 Bft)
17.11.2022 07:43 21,7 °C 4,2 °C 56 % 91 % 999,8 hPa 0,0 l/m² 24,1 km/h (4 Bft) O 80 ° 0 min 0 W/m² 2,9 °C -5,7 °C 29,0 km/h (5 Bft)
17.11.2022 07:45 21,7 °C 4,2 °C 57 % 91 % 999,8 hPa 0,0 l/m² 23,0 km/h (4 Bft) O-NO 63 ° 0 min 0 W/m² 2,9 °C -5,3 °C 29,0 km/h (5 Bft)
17.11.2022 07:47 21,7 °C 4,2 °C 56 % 91 % 999,7 hPa 0,0 l/m² 25,0 km/h (4 Bft) O-NO 67 ° 0 min 0 W/m² 2,9 °C -6,0 °C 33,8 km/h (5 Bft)
17.11.2022 07:49 21,7 °C 4,2 °C 56 % 91 % 999,7 hPa 0,0 l/m² 24,8 km/h (4 Bft) O 80 ° 0 min 5 W/m² 2,9 °C -6,0 °C 33,8 km/h (5 Bft)
17.11.2022 07:51 21,7 °C 4,2 °C 56 % 91 % 999,9 hPa 0,0 l/m² 21,6 km/h (4 Bft) O-NO 74 ° 0 min 5 W/m² 2,9 °C -4,8 °C 32,2 km/h (5 Bft)
17.11.2022 07:52 21,7 °C 4,2 °C 56 % 91 % 999,9 hPa 0,0 l/m² 17,0 km/h (3 Bft) O 94 ° 0 min 5 W/m² 2,9 °C -2,9 °C 24,1 km/h (4 Bft)
17.11.2022 07:53 21,7 °C 4,2 °C 56 % 91 % 999,9 hPa 0,0 l/m² 22,5 km/h (4 Bft) O 84 ° 0 min 5 W/m² 2,9 °C -5,2 °C 27,4 km/h (5 Bft)
17.11.2022 07:56 21,7 °C 4,2 °C 56 % 91 % 1000,0 hPa 0,0 l/m² 20,3 km/h (4 Bft) NO 54 ° 0 min 7 W/m² 2,9 °C -4,3 °C 29,0 km/h (5 Bft)
17.11.2022 07:58 21,7 °C 4,2 °C 56 % 91 % 1000,0 hPa 0,0 l/m² 17,7 km/h (3 Bft) O 81 ° 0 min 7 W/m² 2,9 °C -3,2 °C 25,7 km/h (4 Bft)
17.11.2022 08:00 21,7 °C 4,2 °C 56 % 91 % 1000,1 hPa 0,0 l/m² 13,9 km/h (3 Bft) O-NO 68 ° 0 min 7 W/m² 2,9 °C -1,3 °C 24,1 km/h (4 Bft)
17.11.2022 08:01 21,7 °C 4,3 °C 56 % 91 % 1000,1 hPa 0,0 l/m² 19,3 km/h (3 Bft) O 92 ° 0 min 7 W/m² 3,0 °C -3,8 °C 29,0 km/h (5 Bft)
17.11.2022 08:02 21,7 °C 4,2 °C 56 % 91 % 1000,0 hPa 0,0 l/m² 22,2 km/h (4 Bft) O 88 ° 0 min 7 W/m² 2,9 °C -5,1 °C 27,4 km/h (5 Bft)
17.11.2022 08:03 21,7 °C 4,2 °C 56 % 91 % 1000,0 hPa 0,0 l/m² 16,6 km/h (3 Bft) O 90 ° 0 min 9 W/m² 2,9 °C -2,7 °C 20,9 km/h (4 Bft)
17.11.2022 08:06 21,7 °C 4,3 °C 56 % 91 % 1000,1 hPa 0,0 l/m² 18,8 km/h (3 Bft) O-SO 103 ° 0 min 11 W/m² 3,0 °C -3,6 °C 30,6 km/h (5 Bft)
17.11.2022 08:08 21,7 °C 4,3 °C 56 % 91 % 1000,1 hPa 0,0 l/m² 16,4 km/h (3 Bft) O 91 ° 0 min 11 W/m² 3,0 °C -2,5 °C 24,1 km/h (4 Bft)
17.11.2022 08:10 21,7 °C 4,3 °C 56 % 91 % 1000,0 hPa 0,0 l/m² 23,0 km/h (4 Bft) O 83 ° 0 min 11 W/m² 3,0 °C -5,2 °C 30,6 km/h (5 Bft)
17.11.2022 08:11 21,7 °C 4,3 °C 56 % 91 % 1000,0 hPa 0,0 l/m² 26,7 km/h (4 Bft) O 88 ° 0 min 11 W/m² 3,0 °C -6,4 °C 33,8 km/h (5 Bft)
17.11.2022 08:12 21,7 °C 4,3 °C 56 % 91 % 1000,1 hPa 0,0 l/m² 25,6 km/h (4 Bft) O 86 ° 0 min 11 W/m² 3,0 °C -6,1 °C 30,6 km/h (5 Bft)
17.11.2022 08:13 21,7 °C 4,3 °C 56 % 91 % 1000,0 hPa 0,0 l/m² 26,8 km/h (4 Bft) O 87 ° 0 min 11 W/m² 3,0 °C -6,5 °C 33,8 km/h (5 Bft)
17.11.2022 08:16 21,7 °C 4,3 °C 56 % 91 % 999,9 hPa 0,0 l/m² 21,5 km/h (4 Bft) O 81 ° 0 min 12 W/m² 3,0 °C -4,7 °C 33,8 km/h (5 Bft)
17.11.2022 08:18 21,7 °C 4,3 °C 56 % 91 % 1000,0 hPa 0,0 l/m² 19,1 km/h (3 Bft) O 101 ° 0 min 12 W/m² 3,0 °C -3,7 °C 29,0 km/h (5 Bft)
17.11.2022 08:20 21,7 °C 4,3 °C 56 % 91 % 999,9 hPa 0,0 l/m² 19,3 km/h (3 Bft) O 91 ° 0 min 14 W/m² 3,0 °C -3,8 °C 27,4 km/h (5 Bft)
17.11.2022 08:21 21,7 °C 4,3 °C 56 % 91 % 999,9 hPa 0,0 l/m² 20,2 km/h (4 Bft) O-NO 71 ° 0 min 16 W/m² 3,0 °C -4,2 °C 27,4 km/h (5 Bft)
17.11.2022 08:22 21,7 °C 4,3 °C 56 % 91 % 999,9 hPa 0,0 l/m² 18,0 km/h (3 Bft) O 93 ° 0 min 16 W/m² 3,0 °C -3,2 °C 27,4 km/h (5 Bft)
17.11.2022 08:23 21,7 °C 4,3 °C 56 % 91 % 999,9 hPa 0,0 l/m² 21,4 km/h (4 Bft) O-NO 66 ° 0 min 16 W/m² 3,0 °C -4,6 °C 24,1 km/h (4 Bft)
17.11.2022 08:24 21,7 °C 4,3 °C 56 % 91 % 999,8 hPa 0,0 l/m² 23,1 km/h (4 Bft) O-NO 76 ° 0 min 18 W/m² 3,0 °C -5,2 °C 30,6 km/h (5 Bft)
17.11.2022 08:25 21,7 °C 4,3 °C 56 % 91 % 999,9 hPa 0,0 l/m² 21,3 km/h (4 Bft) O 82 ° 0 min 19 W/m² 3,0 °C -4,6 °C 25,7 km/h (4 Bft)
17.11.2022 08:27 21,7 °C 4,3 °C 56 % 91 % 999,8 hPa 0,0 l/m² 17,5 km/h (3 Bft) O 79 ° 0 min 19 W/m² 3,0 °C -3,0 °C 29,0 km/h (5 Bft)
17.11.2022 08:29 21,7 °C 4,3 °C 56 % 91 % 999,7 hPa 0,0 l/m² 16,8 km/h (3 Bft) O-NO 67 ° 0 min 19 W/m² 3,0 °C -2,7 °C 25,7 km/h (4 Bft)
17.11.2022 08:31 21,7 °C 4,3 °C 56 % 91 % 999,7 hPa 0,0 l/m² 19,6 km/h (3 Bft) O 80 ° 0 min 19 W/m² 3,0 °C -3,9 °C 37,0 km/h (5 Bft)
17.11.2022 08:32 21,7 °C 4,3 °C 56 % 91 % 999,8 hPa 0,0 l/m² 17,9 km/h (3 Bft) O-NO 75 ° 0 min 18 W/m² 3,0 °C -3,2 °C 25,7 km/h (4 Bft)
17.11.2022 08:33 21,7 °C 4,3 °C 56 % 91 % 999,8 hPa 0,0 l/m² 19,7 km/h (3 Bft) O 84 ° 0 min 18 W/m² 3,0 °C -4,0 °C 22,5 km/h (4 Bft)
17.11.2022 08:36 21,7 °C 4,3 °C 56 % 91 % 999,8 hPa 0,0 l/m² 20,0 km/h (4 Bft) O 85 ° 0 min 16 W/m² 3,0 °C -4,1 °C 30,6 km/h (5 Bft)
17.11.2022 08:38 21,7 °C 4,3 °C 56 % 91 % 999,7 hPa 0,0 l/m² 20,2 km/h (4 Bft) O 81 ° 0 min 16 W/m² 3,0 °C -4,2 °C 30,6 km/h (5 Bft)
17.11.2022 08:40 21,7 °C 4,4 °C 56 % 91 % 999,7 hPa 0,0 l/m² 19,8 km/h (3 Bft) O 90 ° 0 min 16 W/m² 3,1 °C -3,9 °C 29,0 km/h (5 Bft)
17.11.2022 08:41 21,7 °C 4,3 °C 56 % 91 % 999,6 hPa 0,0 l/m² 16,8 km/h (3 Bft) O 96 ° 0 min 16 W/m² 3,0 °C -2,7 °C 25,7 km/h (4 Bft)
17.11.2022 08:42 21,7 °C 4,3 °C 56 % 91 % 999,6 hPa 0,0 l/m² 20,8 km/h (4 Bft) O 90 ° 0 min 16 W/m² 3,0 °C -4,4 °C 27,4 km/h (5 Bft)
17.11.2022 08:43 21,7 °C 4,4 °C 56 % 91 % 999,6 hPa 0,0 l/m² 19,7 km/h (3 Bft) O-NO 72 ° 0 min 16 W/m² 3,1 °C -3,8 °C 25,7 km/h (4 Bft)
17.11.2022 08:46 21,7 °C 4,4 °C 56 % 91 % 999,6 hPa 0,0 l/m² 21,4 km/h (4 Bft) O 88 ° 0 min 16 W/m² 3,1 °C -4,5 °C 30,6 km/h (5 Bft)
17.11.2022 08:48 21,7 °C 4,4 °C 56 % 91 % 999,7 hPa 0,0 l/m² 13,9 km/h (3 Bft) O-NO 66 ° 0 min 16 W/m² 3,1 °C -1,1 °C 20,9 km/h (4 Bft)
17.11.2022 08:50 21,7 °C 4,4 °C 56 % 91 % 999,6 hPa 0,0 l/m² 19,2 km/h (3 Bft) O 87 ° 0 min 14 W/m² 3,1 °C -3,6 °C 29,0 km/h (5 Bft)
17.11.2022 08:51 21,7 °C 4,4 °C 56 % 91 % 999,5 hPa 0,0 l/m² 19,5 km/h (3 Bft) O-NO 75 ° 0 min 16 W/m² 3,1 °C -3,7 °C 27,4 km/h (5 Bft)
17.11.2022 08:52 21,6 °C 4,4 °C 56 % 91 % 999,5 hPa 0,0 l/m² 13,9 km/h (3 Bft) O 97 ° 0 min 14 W/m² 3,1 °C -1,1 °C 19,3 km/h (3 Bft)
17.11.2022 08:53 21,6 °C 4,4 °C 56 % 91 % 999,5 hPa 0,0 l/m² 16,3 km/h (3 Bft) O 89 ° 0 min 16 W/m² 3,1 °C -2,3 °C 20,9 km/h (4 Bft)
17.11.2022 08:56 21,7 °C 4,4 °C 56 % 91 % 999,5 hPa 0,0 l/m² 19,9 km/h (4 Bft) O 86 ° 0 min 16 W/m² 3,1 °C -3,9 °C 29,0 km/h (5 Bft)
17.11.2022 08:58 21,7 °C 4,4 °C 56 % 91 % 999,6 hPa 0,0 l/m² 18,2 km/h (3 Bft) O-NO 68 ° 0 min 16 W/m² 3,1 °C -3,2 °C 27,4 km/h (5 Bft)
17.11.2022 09:00 21,6 °C 4,4 °C 56 % 91 % 999,5 hPa 0,0 l/m² 22,5 km/h (4 Bft) O-NO 64 ° 0 min 19 W/m² 3,1 °C -4,9 °C 29,0 km/h (5 Bft)
17.11.2022 09:01 21,7 °C 4,4 °C 56 % 91 % 999,4 hPa 0,0 l/m² 20,7 km/h (4 Bft) O 87 ° 0 min 19 W/m² 3,1 °C -4,2 °C 27,4 km/h (5 Bft)
17.11.2022 09:02 21,7 °C 4,4 °C 56 % 91 % 999,4 hPa 0,0 l/m² 22,8 km/h (4 Bft) O 88 ° 0 min 21 W/m² 3,1 °C -5,0 °C 30,6 km/h (5 Bft)
17.11.2022 09:03 21,7 °C 4,4 °C 56 % 91 % 999,5 hPa 0,0 l/m² 22,0 km/h (4 Bft) O 93 ° 0 min 21 W/m² 3,1 °C -4,7 °C 27,4 km/h (5 Bft)
17.11.2022 09:04 21,6 °C 4,4 °C 56 % 91 % 999,5 hPa 0,0 l/m² 19,8 km/h (3 Bft) O-NO 75 ° 0 min 21 W/m² 3,1 °C -3,9 °C 24,1 km/h (4 Bft)
17.11.2022 09:06 21,6 °C 4,4 °C 56 % 92 % 999,5 hPa 0,0 l/m² 21,6 km/h (4 Bft) O 92 ° 0 min 21 W/m² 3,2 °C -4,6 °C 30,6 km/h (5 Bft)
17.11.2022 09:08 21,6 °C 4,4 °C 56 % 92 % 999,5 hPa 0,0 l/m² 23,6 km/h (4 Bft) O 90 ° 0 min 19 W/m² 3,2 °C -5,3 °C 30,6 km/h (5 Bft)
17.11.2022 09:10 21,6 °C 4,4 °C 56 % 92 % 999,4 hPa 0,0 l/m² 18,9 km/h (3 Bft) O 87 ° 0 min 21 W/m² 3,2 °C -3,5 °C 27,4 km/h (5 Bft)
17.11.2022 09:11 21,6 °C 4,4 °C 56 % 92 % 999,5 hPa 0,0 l/m² 15,3 km/h (3 Bft) O 90 ° 0 min 21 W/m² 3,2 °C -1,8 °C 19,3 km/h (3 Bft)
17.11.2022 09:12 21,6 °C 4,4 °C 56 % 92 % 999,5 hPa 0,0 l/m² 20,8 km/h (4 Bft) O 82 ° 0 min 21 W/m² 3,2 °C -4,3 °C 25,7 km/h (4 Bft)
17.11.2022 09:13 21,6 °C 4,4 °C 56 % 92 % 999,5 hPa 0,0 l/m² 23,5 km/h (4 Bft) O 95 ° 0 min 21 W/m² 3,2 °C -5,3 °C 30,6 km/h (5 Bft)
17.11.2022 09:14 21,6 °C 4,4 °C 56 % 92 % 999,3 hPa 0,0 l/m² 23,3 km/h (4 Bft) O 87 ° 0 min 23 W/m² 3,2 °C -5,2 °C 32,2 km/h (5 Bft)
17.11.2022 09:16 21,6 °C 4,4 °C 56 % 92 % 999,3 hPa 0,0 l/m² 22,9 km/h (4 Bft) O 87 ° 0 min 25 W/m² 3,2 °C -5,0 °C 30,6 km/h (5 Bft)
17.11.2022 09:18 21,7 °C 4,4 °C 56 % 92 % 999,3 hPa 0,0 l/m² 21,2 km/h (4 Bft) O-NO 65 ° 0 min 25 W/m² 3,2 °C -4,4 °C 29,0 km/h (5 Bft)
17.11.2022 09:20 21,6 °C 4,4 °C 56 % 92 % 999,3 hPa 0,0 l/m² 21,3 km/h (4 Bft) O 90 ° 0 min 25 W/m² 3,2 °C -4,5 °C 29,0 km/h (5 Bft)
17.11.2022 09:21 21,6 °C 4,4 °C 56 % 92 % 999,4 hPa 0,0 l/m² 25,1 km/h (4 Bft) O 84 ° 0 min 25 W/m² 3,2 °C -5,8 °C 33,8 km/h (5 Bft)
17.11.2022 09:22 21,6 °C 4,4 °C 56 % 92 % 999,4 hPa 0,0 l/m² 23,0 km/h (4 Bft) O 97 ° 0 min 26 W/m² 3,2 °C -5,1 °C 30,6 km/h (5 Bft)
17.11.2022 09:23 21,6 °C 4,4 °C 56 % 92 % 999,4 hPa 0,0 l/m² 22,2 km/h (4 Bft) O-NO 76 ° 0 min 26 W/m² 3,2 °C -4,8 °C 30,6 km/h (5 Bft)
17.11.2022 09:24 21,6 °C 4,4 °C 56 % 92 % 999,4 hPa 0,0 l/m² 20,9 km/h (4 Bft) O 96 ° 0 min 23 W/m² 3,2 °C -4,3 °C 27,4 km/h (5 Bft)
17.11.2022 09:26 21,6 °C 4,4 °C 56 % 92 % 999,4 hPa 0,0 l/m² 21,4 km/h (4 Bft) O 86 ° 0 min 25 W/m² 3,2 °C -4,5 °C 30,6 km/h (5 Bft)
17.11.2022 09:28 21,6 °C 4,5 °C 56 % 92 % 999,4 hPa 0,0 l/m² 17,1 km/h (3 Bft) O-NO 66 ° 0 min 25 W/m² 3,3 °C -2,6 °C 20,9 km/h (4 Bft)
17.11.2022 09:30 21,6 °C 4,5 °C 56 % 92 % 999,3 hPa 0,0 l/m² 19,7 km/h (3 Bft) O 80 ° 0 min 26 W/m² 3,3 °C -3,7 °C 29,0 km/h (5 Bft)
17.11.2022 09:31 21,6 °C 4,5 °C 56 % 92 % 999,3 hPa 0,0 l/m² 20,1 km/h (4 Bft) O 84 ° 0 min 26 W/m² 3,3 °C -3,9 °C 29,0 km/h (5 Bft)
17.11.2022 09:32 21,6 °C 4,4 °C 56 % 92 % 999,3 hPa 0,0 l/m² 24,9 km/h (4 Bft) O 88 ° 0 min 25 W/m² 3,2 °C -5,7 °C 30,6 km/h (5 Bft)
17.11.2022 09:33 21,6 °C 4,5 °C 56 % 92 % 999,3 hPa 0,0 l/m² 20,7 km/h (4 Bft) O 80 ° 0 min 25 W/m² 3,3 °C -4,1 °C 27,4 km/h (5 Bft)
17.11.2022 09:34 21,6 °C 4,5 °C 56 % 92 % 999,3 hPa 0,0 l/m² 22,5 km/h (4 Bft) O 88 ° 0 min 25 W/m² 3,3 °C -4,8 °C 27,4 km/h (5 Bft)
17.11.2022 09:36 21,6 °C 4,5 °C 56 % 92 % 999,3 hPa 0,0 l/m² 22,6 km/h (4 Bft) O 79 ° 0 min 23 W/m² 3,3 °C -4,8 °C 29,0 km/h (5 Bft)
17.11.2022 09:38 21,6 °C 4,5 °C 56 % 92 % 999,3 hPa 0,0 l/m² 24,2 km/h (4 Bft) O 86 ° 0 min 25 W/m² 3,3 °C -5,4 °C 33,8 km/h (5 Bft)
17.11.2022 09:40 21,6 °C 4,5 °C 56 % 92 % 999,2 hPa 0,2 l/m² 25,6 km/h (4 Bft) O-NO 76 ° 0 min 23 W/m² 3,3 °C -5,8 °C 35,4 km/h (5 Bft)
17.11.2022 09:41 21,6 °C 4,5 °C 56 % 92 % 999,2 hPa 0,0 l/m² 21,0 km/h (4 Bft) O 83 ° 0 min 23 W/m² 3,3 °C -4,2 °C 29,0 km/h (5 Bft)
17.11.2022 09:42 21,6 °C 4,6 °C 56 % 92 % 999,2 hPa 0,0 l/m² 25,6 km/h (4 Bft) O 89 ° 0 min 23 W/m² 3,4 °C -5,7 °C 35,4 km/h (5 Bft)
17.11.2022 09:43 21,6 °C 4,5 °C 56 % 92 % 999,2 hPa 0,0 l/m² 29,0 km/h (5 Bft) O 94 ° 0 min 23 W/m² 3,3 °C -6,8 °C 33,8 km/h (5 Bft)
17.11.2022 09:45 21,6 °C 4,5 °C 56 % 92 % 999,3 hPa 0,0 l/m² 18,7 km/h (3 Bft) O-SO 115 ° 0 min 23 W/m² 3,3 °C -3,3 °C 29,0 km/h (5 Bft)
17.11.2022 09:47 21,6 °C 4,6 °C 56 % 92 % 999,2 hPa 0,0 l/m² 22,9 km/h (4 Bft) O 94 ° 0 min 25 W/m² 3,4 °C -4,8 °C 30,6 km/h (5 Bft)
17.11.2022 09:49 21,6 °C 4,6 °C 56 % 92 % 999,2 hPa 0,0 l/m² 23,0 km/h (4 Bft) O-SO 105 ° 0 min 26 W/m² 3,4 °C -4,8 °C 33,8 km/h (5 Bft)
17.11.2022 09:50 21,6 °C 4,6 °C 56 % 92 % 999,2 hPa 0,0 l/m² 16,8 km/h (3 Bft) O 86 ° 0 min 26 W/m² 3,4 °C -2,3 °C 20,9 km/h (4 Bft)
17.11.2022 09:52 21,6 °C 4,6 °C 56 % 92 % 999,3 hPa 0,0 l/m² 18,5 km/h (3 Bft) O 93 ° 0 min 32 W/m² 3,4 °C -3,1 °C 29,0 km/h (5 Bft)
17.11.2022 09:54 21,6 °C 4,6 °C 56 % 92 % 999,2 hPa 0,0 l/m² 20,2 km/h (4 Bft) O-NO 61 ° 0 min 32 W/m² 3,4 °C -3,8 °C 27,4 km/h (5 Bft)
17.11.2022 09:56 21,6 °C 4,6 °C 56 % 92 % 999,3 hPa 0,2 l/m² 22,4 km/h (4 Bft) O 98 ° 0 min 35 W/m² 3,4 °C -4,6 °C 30,6 km/h (5 Bft)
17.11.2022 09:58 21,6 °C 4,6 °C 56 % 92 % 999,3 hPa 0,0 l/m² 19,4 km/h (3 Bft) O 95 ° 0 min 37 W/m² 3,4 °C -3,4 °C 29,0 km/h (5 Bft)
17.11.2022 10:00 21,6 °C 4,6 °C 56 % 92 % 999,2 hPa 0,0 l/m² 19,3 km/h (3 Bft) O 92 ° 0 min 39 W/m² 3,4 °C -3,4 °C 24,1 km/h (4 Bft)
17.11.2022 10:01 21,6 °C 4,6 °C 56 % 92 % 999,2 hPa 0,0 l/m² 20,9 km/h (4 Bft) O 86 ° 0 min 39 W/m² 3,4 °C -4,0 °C 27,4 km/h (5 Bft)
17.11.2022 10:02 21,6 °C 4,6 °C 56 % 92 % 999,2 hPa 0,0 l/m² 20,8 km/h (4 Bft) O 88 ° 0 min 40 W/m² 3,4 °C -4,0 °C 27,4 km/h (5 Bft)
17.11.2022 10:03 21,6 °C 4,6 °C 56 % 92 % 999,1 hPa 0,0 l/m² 20,8 km/h (4 Bft) O-NO 70 ° 0 min 39 W/m² 3,4 °C -4,0 °C 25,7 km/h (4 Bft)
17.11.2022 10:04 21,6 °C 4,6 °C 56 % 92 % 999,1 hPa 0,0 l/m² 22,8 km/h (4 Bft) O 88 ° 0 min 39 W/m² 3,4 °C -4,7 °C 30,6 km/h (5 Bft)
17.11.2022 10:06 21,6 °C 4,6 °C 56 % 92 % 999,0 hPa 0,0 l/m² 20,1 km/h (4 Bft) O 84 ° 0 min 40 W/m² 3,4 °C -3,7 °C 30,6 km/h (5 Bft)
17.11.2022 10:08 21,6 °C 4,6 °C 56 % 92 % 999,0 hPa 0,0 l/m² 19,6 km/h (3 Bft) O-NO 76 ° 0 min 39 W/m² 3,4 °C -3,5 °C 27,4 km/h (5 Bft)
17.11.2022 10:10 21,6 °C 4,6 °C 56 % 92 % 999,0 hPa 0,0 l/m² 21,4 km/h (4 Bft) O 84 ° 0 min 37 W/m² 3,4 °C -4,2 °C 33,8 km/h (5 Bft)
17.11.2022 10:11 21,6 °C 4,6 °C 56 % 92 % 999,1 hPa 0,0 l/m² 23,8 km/h (4 Bft) O 90 ° 0 min 37 W/m² 3,4 °C -5,1 °C 29,0 km/h (5 Bft)
17.11.2022 10:12 21,6 °C 4,7 °C 56 % 92 % 999,1 hPa 0,0 l/m² 20,9 km/h (4 Bft) O-NO 74 ° 0 min 39 W/m² 3,5 °C -3,9 °C 25,7 km/h (4 Bft)
17.11.2022 10:13 21,6 °C 4,6 °C 56 % 92 % 999,2 hPa 0,0 l/m² 20,4 km/h (4 Bft) O 89 ° 0 min 39 W/m² 3,4 °C -3,8 °C 25,7 km/h (4 Bft)
17.11.2022 10:14 21,6 °C 4,6 °C 56 % 92 % 999,2 hPa 0,0 l/m² 17,7 km/h (3 Bft) O 85 ° 0 min 39 W/m² 3,4 °C -2,7 °C 20,9 km/h (4 Bft)
17.11.2022 10:16 21,6 °C 4,7 °C 56 % 92 % 999,1 hPa 0,0 l/m² 22,0 km/h (4 Bft) O 95 ° 0 min 40 W/m² 3,5 °C -4,3 °C 30,6 km/h (5 Bft)
17.11.2022 10:18 21,6 °C 4,7 °C 56 % 92 % 999,0 hPa 0,0 l/m² 18,0 km/h (3 Bft) O-NO 74 ° 0 min 40 W/m² 3,5 °C -2,7 °C 27,4 km/h (5 Bft)
17.11.2022 10:20 21,6 °C 4,7 °C 56 % 92 % 999,1 hPa 0,0 l/m² 18,6 km/h (3 Bft) O 86 ° 0 min 40 W/m² 3,5 °C -3,0 °C 25,7 km/h (4 Bft)
17.11.2022 10:21 21,6 °C 4,7 °C 56 % 92 % 999,1 hPa 0,0 l/m² 22,5 km/h (4 Bft) O 91 ° 0 min 40 W/m² 3,5 °C -4,5 °C 29,0 km/h (5 Bft)
17.11.2022 10:22 21,6 °C 4,7 °C 56 % 92 % 999,1 hPa 0,0 l/m² 24,4 km/h (4 Bft) O-NO 76 ° 0 min 44 W/m² 3,5 °C -5,2 °C 32,2 km/h (5 Bft)
17.11.2022 10:23 21,6 °C 4,7 °C 56 % 92 % 999,0 hPa 0,0 l/m² 18,7 km/h (3 Bft) O-NO 75 ° 0 min 47 W/m² 3,5 °C -3,0 °C 22,5 km/h (4 Bft)
17.11.2022 10:24 21,6 °C 4,7 °C 56 % 92 % 999,1 hPa 0,0 l/m² 18,1 km/h (3 Bft) O-NO 58 ° 0 min 49 W/m² 3,5 °C -2,8 °C 22,5 km/h (4 Bft)
17.11.2022 10:26 21,6 °C 4,7 °C 56 % 92 % 999,1 hPa 0,0 l/m² 22,1 km/h (4 Bft) O-NO 60 ° 0 min 49 W/m² 3,5 °C -4,4 °C 33,8 km/h (5 Bft)
17.11.2022 10:28 21,6 °C 4,7 °C 56 % 92 % 999,1 hPa 0,0 l/m² 20,9 km/h (4 Bft) O 86 ° 0 min 51 W/m² 3,5 °C -3,9 °C 29,0 km/h (5 Bft)
17.11.2022 10:30 21,6 °C 4,7 °C 56 % 92 % 999,2 hPa 0,0 l/m² 18,7 km/h (3 Bft) O-NO 75 ° 0 min 51 W/m² 3,5 °C -3,0 °C 25,7 km/h (4 Bft)
17.11.2022 10:31 21,6 °C 4,8 °C 56 % 92 % 999,1 hPa 0,0 l/m² 22,4 km/h (4 Bft) O 80 ° 0 min 49 W/m² 3,6 °C -4,3 °C 29,0 km/h (5 Bft)
17.11.2022 10:32 21,6 °C 4,8 °C 56 % 92 % 999,1 hPa 0,0 l/m² 22,6 km/h (4 Bft) O 82 ° 0 min 51 W/m² 3,6 °C -4,4 °C 29,0 km/h (5 Bft)
17.11.2022 10:33 21,6 °C 4,8 °C 56 % 92 % 999,1 hPa 0,0 l/m² 21,2 km/h (4 Bft) O 86 ° 0 min 49 W/m² 3,6 °C -3,9 °C 27,4 km/h (5 Bft)
17.11.2022 10:34 21,6 °C 4,8 °C 56 % 92 % 999,1 hPa 0,0 l/m² 26,3 km/h (4 Bft) O 83 ° 0 min 49 W/m² 3,6 °C -5,6 °C 33,8 km/h (5 Bft)
17.11.2022 10:36 21,6 °C 4,8 °C 56 % 92 % 999,2 hPa 0,2 l/m² 21,2 km/h (4 Bft) O-SO 103 ° 0 min 47 W/m² 3,6 °C -3,9 °C 27,4 km/h (5 Bft)
17.11.2022 10:38 21,6 °C 4,8 °C 56 % 93 % 999,2 hPa 0,0 l/m² 19,5 km/h (3 Bft) O 86 ° 0 min 44 W/m² 3,8 °C -3,2 °C 32,2 km/h (5 Bft)
17.11.2022 10:40 21,6 °C 4,8 °C 56 % 93 % 999,2 hPa 0,0 l/m² 21,4 km/h (4 Bft) O 88 ° 0 min 44 W/m² 3,8 °C -4,0 °C 33,8 km/h (5 Bft)
17.11.2022 10:41 21,6 °C 4,8 °C 56 % 93 % 999,1 hPa 0,0 l/m² 22,2 km/h (4 Bft) O 91 ° 0 min 42 W/m² 3,8 °C -4,3 °C 32,2 km/h (5 Bft)
17.11.2022 10:42 21,6 °C 4,8 °C 56 % 93 % 999,1 hPa 0,0 l/m² 19,8 km/h (3 Bft) O 86 ° 0 min 40 W/m² 3,8 °C -3,4 °C 27,4 km/h (5 Bft)
17.11.2022 10:43 21,6 °C 4,8 °C 56 % 92 % 999,0 hPa 0,0 l/m² 21,5 km/h (4 Bft) O 80 ° 0 min 40 W/m² 3,6 °C -4,0 °C 29,0 km/h (5 Bft)
17.11.2022 10:44 21,6 °C 4,8 °C 56 % 92 % 999,0 hPa 0,0 l/m² 23,2 km/h (4 Bft) O 83 ° 0 min 39 W/m² 3,6 °C -4,6 °C 30,6 km/h (5 Bft)
17.11.2022 10:46 21,6 °C 4,8 °C 56 % 93 % 998,9 hPa 0,2 l/m² 18,4 km/h (3 Bft) O 87 ° 0 min 39 W/m² 3,8 °C -2,8 °C 24,1 km/h (4 Bft)
17.11.2022 10:48 21,6 °C 4,8 °C 56 % 93 % 998,9 hPa 0,0 l/m² 21,5 km/h (4 Bft) O 85 ° 0 min 35 W/m² 3,8 °C -4,0 °C 27,4 km/h (5 Bft)
17.11.2022 10:50 21,6 °C 4,8 °C 56 % 93 % 998,7 hPa 0,0 l/m² 21,7 km/h (4 Bft) NO 50 ° 0 min 39 W/m² 3,8 °C -4,1 °C 30,6 km/h (5 Bft)
17.11.2022 10:51 21,6 °C 4,8 °C 56 % 93 % 998,7 hPa 0,0 l/m² 23,5 km/h (4 Bft) O 88 ° 0 min 39 W/m² 3,8 °C -4,7 °C 33,8 km/h (5 Bft)
17.11.2022 10:52 21,6 °C 4,8 °C 56 % 93 % 998,7 hPa 0,0 l/m² 27,4 km/h (5 Bft) O-NO 78 ° 0 min 39 W/m² 3,8 °C -5,9 °C 33,8 km/h (5 Bft)
17.11.2022 10:53 21,6 °C 4,8 °C 56 % 93 % 998,7 hPa 0,2 l/m² 25,7 km/h (4 Bft) O-SO 102 ° 0 min 39 W/m² 3,8 °C -5,4 °C 32,2 km/h (5 Bft)
17.11.2022 10:54 21,6 °C 4,8 °C 56 % 93 % 998,6 hPa 0,0 l/m² 22,3 km/h (4 Bft) O 80 ° 0 min 40 W/m² 3,8 °C -4,3 °C 30,6 km/h (5 Bft)
17.11.2022 10:56 21,6 °C 4,8 °C 56 % 93 % 998,6 hPa 0,0 l/m² 21,5 km/h (4 Bft) O-NO 77 ° 0 min 40 W/m² 3,8 °C -4,0 °C 27,4 km/h (5 Bft)
17.11.2022 10:58 21,6 °C 4,8 °C 56 % 93 % 998,6 hPa 0,0 l/m² 24,2 km/h (4 Bft) O 84 ° 0 min 40 W/m² 3,8 °C -5,0 °C 33,8 km/h (5 Bft)
17.11.2022 11:00 21,6 °C 4,8 °C 56 % 93 % 998,7 hPa 0,0 l/m² 22,2 km/h (4 Bft) O 94 ° 0 min 40 W/m² 3,8 °C -4,3 °C 30,6 km/h (5 Bft)
17.11.2022 11:01 21,6 °C 4,8 °C 56 % 93 % 998,7 hPa 0,0 l/m² 17,5 km/h (3 Bft) O 88 ° 0 min 42 W/m² 3,8 °C -2,4 °C 20,9 km/h (4 Bft)
17.11.2022 11:02 21,6 °C 4,8 °C 56 % 93 % 998,7 hPa 0,0 l/m² 22,8 km/h (4 Bft) O 86 ° 0 min 40 W/m² 3,8 °C -4,5 °C 29,0 km/h (5 Bft)
17.11.2022 11:03 21,6 °C 4,8 °C 56 % 93 % 998,5 hPa 0,0 l/m² 19,5 km/h (3 Bft) O 83 ° 0 min 40 W/m² 3,8 °C -3,2 °C 25,7 km/h (4 Bft)
17.11.2022 11:04 21,6 °C 4,8 °C 56 % 93 % 998,7 hPa 0,0 l/m² 18,5 km/h (3 Bft) O-NO 76 ° 0 min 39 W/m² 3,8 °C -2,8 °C 22,5 km/h (4 Bft)
17.11.2022 11:06 21,6 °C 4,8 °C 56 % 93 % 998,6 hPa 0,2 l/m² 24,8 km/h (4 Bft) O 101 ° 0 min 37 W/m² 3,8 °C -5,2 °C 33,8 km/h (5 Bft)
17.11.2022 11:08 21,6 °C 4,9 °C 56 % 93 % 998,5 hPa 0,0 l/m² 25,6 km/h (4 Bft) O 80 ° 0 min 40 W/m² 3,9 °C -5,3 °C 32,2 km/h (5 Bft)
17.11.2022 11:10 21,6 °C 4,8 °C 56 % 93 % 998,6 hPa 0,0 l/m² 22,8 km/h (4 Bft) O-NO 57 ° 0 min 44 W/m² 3,8 °C -4,5 °C 32,2 km/h (5 Bft)
17.11.2022 11:11 21,6 °C 4,8 °C 56 % 93 % 998,5 hPa 0,2 l/m² 20,5 km/h (4 Bft) O 86 ° 0 min 46 W/m² 3,8 °C -3,6 °C 25,7 km/h (4 Bft)
17.11.2022 11:12 21,6 °C 4,8 °C 56 % 93 % 998,5 hPa 0,0 l/m² 29,9 km/h (5 Bft) O-SO 104 ° 0 min 49 W/m² 3,8 °C -6,6 °C 38,6 km/h (6 Bft)
17.11.2022 11:13 21,6 °C 4,8 °C 56 % 93 % 998,4 hPa 0,0 l/m² 22,9 km/h (4 Bft) O 85 ° 0 min 49 W/m² 3,8 °C -4,5 °C 32,2 km/h (5 Bft)
17.11.2022 11:14 21,6 °C 4,9 °C 56 % 93 % 998,4 hPa 0,0 l/m² 22,2 km/h (4 Bft) O 79 ° 1 min 53 W/m² 3,9 °C -4,1 °C 27,4 km/h (5 Bft)
17.11.2022 11:16 21,6 °C 4,9 °C 56 % 93 % 998,4 hPa 0,2 l/m² 23,1 km/h (4 Bft) O 79 ° 2 min 60 W/m² 3,9 °C -4,4 °C 32,2 km/h (5 Bft)
17.11.2022 11:18 21,6 °C 4,8 °C 56 % 93 % 998,4 hPa 0,0 l/m² 24,9 km/h (4 Bft) O 85 ° 2 min 63 W/m² 3,8 °C -5,2 °C 33,8 km/h (5 Bft)
17.11.2022 11:20 21,6 °C 4,9 °C 56 % 93 % 998,3 hPa 0,0 l/m² 22,9 km/h (4 Bft) O 80 ° 2 min 69 W/m² 3,9 °C -4,4 °C 29,0 km/h (5 Bft)
17.11.2022 11:21 21,6 °C 4,9 °C 56 % 93 % 998,3 hPa 0,0 l/m² 22,2 km/h (4 Bft) O-NO 74 ° 1 min 70 W/m² 3,9 °C -4,1 °C 27,4 km/h (5 Bft)
17.11.2022 11:22 21,6 °C 4,9 °C 56 % 93 % 998,3 hPa 0,0 l/m² 19,9 km/h (4 Bft) O-NO 71 ° 1 min 77 W/m² 3,9 °C -3,3 °C 24,1 km/h (4 Bft)
17.11.2022 11:23 21,6 °C 4,9 °C 56 % 93 % 998,2 hPa 0,0 l/m² 22,5 km/h (4 Bft) O 94 ° 1 min 81 W/m² 3,9 °C -4,2 °C 25,7 km/h (4 Bft)
17.11.2022 11:24 21,6 °C 4,9 °C 56 % 93 % 998,2 hPa 0,0 l/m² 20,7 km/h (4 Bft) O 80 ° 1 min 83 W/m² 3,9 °C -3,6 °C 25,7 km/h (4 Bft)
17.11.2022 11:26 21,6 °C 4,9 °C 56 % 93 % 998,2 hPa 0,2 l/m² 20,6 km/h (4 Bft) O-NO 69 ° 2 min 77 W/m² 3,9 °C -3,5 °C 32,2 km/h (5 Bft)
17.11.2022 11:28 21,6 °C 4,9 °C 56 % 93 % 998,3 hPa 0,0 l/m² 22,0 km/h (4 Bft) O 86 ° 2 min 67 W/m² 3,9 °C -4,1 °C 30,6 km/h (5 Bft)
17.11.2022 11:30 21,6 °C 5,0 °C 56 % 93 % 998,3 hPa 0,0 l/m² 16,7 km/h (3 Bft) O-NO 57 ° 2 min 69 W/m² 4,0 °C -1,8 °C 20,9 km/h (4 Bft)
17.11.2022 11:31 21,6 °C 5,0 °C 56 % 93 % 998,3 hPa 0,0 l/m² 20,9 km/h (4 Bft) O 87 ° 1 min 67 W/m² 4,0 °C -3,5 °C 32,2 km/h (5 Bft)
17.11.2022 11:32 21,6 °C 5,0 °C 56 % 93 % 998,3 hPa 0,0 l/m² 21,8 km/h (4 Bft) O 84 ° 1 min 63 W/m² 4,0 °C -3,9 °C 32,2 km/h (5 Bft)
17.11.2022 11:34 21,6 °C 5,0 °C 56 % 93 % 998,3 hPa 0,0 l/m² 23,8 km/h (4 Bft) O 90 ° 0 min 49 W/m² 4,0 °C -4,6 °C 32,2 km/h (5 Bft)
17.11.2022 11:35 21,6 °C 5,0 °C 56 % 93 % 998,3 hPa 0,0 l/m² 21,9 km/h (4 Bft) O 90 ° 0 min 42 W/m² 4,0 °C -3,9 °C 27,4 km/h (5 Bft)
17.11.2022 11:37 21,6 °C 5,0 °C 56 % 93 % 998,3 hPa 0,0 l/m² 23,3 km/h (4 Bft) NO 52 ° 0 min 40 W/m² 4,0 °C -4,4 °C 33,8 km/h (5 Bft)
17.11.2022 11:39 21,6 °C 5,0 °C 56 % 93 % 998,3 hPa 0,0 l/m² 21,1 km/h (4 Bft) O-NO 78 ° 0 min 28 W/m² 4,0 °C -3,6 °C 30,6 km/h (5 Bft)
17.11.2022 11:40 21,6 °C 5,0 °C 56 % 93 % 998,3 hPa 0,0 l/m² 20,1 km/h (4 Bft) O 86 ° 0 min 32 W/m² 4,0 °C -3,2 °C 22,5 km/h (4 Bft)
17.11.2022 11:41 21,6 °C 5,0 °C 56 % 93 % 998,2 hPa 0,0 l/m² 22,1 km/h (4 Bft) O-NO 69 ° 0 min 32 W/m² 4,0 °C -4,0 °C 25,7 km/h (4 Bft)
17.11.2022 11:42 21,6 °C 4,9 °C 56 % 93 % 998,2 hPa 0,0 l/m² 23,5 km/h (4 Bft) O 90 ° 0 min 32 W/m² 3,9 °C -4,6 °C 33,8 km/h (5 Bft)
17.11.2022 11:43 21,6 °C 5,0 °C 56 % 93 % 998,3 hPa 0,2 l/m² 18,5 km/h (3 Bft) O 88 ° 0 min 32 W/m² 4,0 °C -2,6 °C 22,5 km/h (4 Bft)
17.11.2022 11:44 21,6 °C 4,9 °C 56 % 93 % 998,3 hPa 0,0 l/m² 20,8 km/h (4 Bft) O-NO 61 ° 0 min 35 W/m² 3,9 °C -3,6 °C 29,0 km/h (5 Bft)
17.11.2022 11:46 21,6 °C 5,0 °C 56 % 93 % 998,1 hPa 0,0 l/m² 24,3 km/h (4 Bft) O 79 ° 0 min 44 W/m² 4,0 °C -4,7 °C 30,6 km/h (5 Bft)
17.11.2022 11:48 21,6 °C 4,9 °C 56 % 93 % 998,2 hPa 0,2 l/m² 25,3 km/h (4 Bft) O-NO 76 ° 0 min 51 W/m² 3,9 °C -5,2 °C 37,0 km/h (5 Bft)
17.11.2022 11:50 21,6 °C 4,9 °C 56 % 93 % 998,1 hPa 0,0 l/m² 25,3 km/h (4 Bft) O 82 ° 2 min 56 W/m² 3,9 °C -5,2 °C 37,0 km/h (5 Bft)
17.11.2022 11:51 21,6 °C 4,9 °C 56 % 93 % 998,1 hPa 0,0 l/m² 23,4 km/h (4 Bft) O 82 ° 1 min 58 W/m² 3,9 °C -4,6 °C 33,8 km/h (5 Bft)
17.11.2022 11:52 21,6 °C 5,0 °C 56 % 93 % 998,1 hPa 0,0 l/m² 19,5 km/h (3 Bft) O 79 ° 1 min 54 W/m² 4,0 °C -3,0 °C 29,0 km/h (5 Bft)
17.11.2022 11:54 21,6 °C 5,0 °C 56 % 93 % 998,1 hPa 0,0 l/m² 22,8 km/h (4 Bft) O 79 ° 2 min 54 W/m² 4,0 °C -4,2 °C 37,0 km/h (5 Bft)
17.11.2022 11:55 21,6 °C 5,0 °C 56 % 94 % 998,0 hPa 0,0 l/m² 24,0 km/h (4 Bft) O 90 ° 0 min 46 W/m² 4,1 °C -4,6 °C 30,6 km/h (5 Bft)
17.11.2022 11:57 21,6 °C 5,0 °C 56 % 93 % 998,1 hPa 0,0 l/m² 19,1 km/h (3 Bft) O-NO 76 ° 0 min 47 W/m² 4,0 °C -2,8 °C 29,0 km/h (5 Bft)
17.11.2022 11:59 21,6 °C 4,9 °C 56 % 94 % 998,0 hPa 0,2 l/m² 22,4 km/h (4 Bft) O 86 ° 0 min 39 W/m² 4,0 °C -4,2 °C 30,6 km/h (5 Bft)
17.11.2022 12:00 21,6 °C 4,9 °C 56 % 93 % 998,0 hPa 0,0 l/m² 23,5 km/h (4 Bft) O-NO 63 ° 0 min 37 W/m² 3,9 °C -4,6 °C 29,0 km/h (5 Bft)
17.11.2022 12:01 21,6 °C 4,9 °C 56 % 94 % 998,0 hPa 0,0 l/m² 19,6 km/h (3 Bft) O-NO 65 ° 0 min 37 W/m² 4,0 °C -3,1 °C 25,7 km/h (4 Bft)
17.11.2022 12:02 21,6 °C 5,0 °C 56 % 94 % 998,0 hPa 0,0 l/m² 12,9 km/h (3 Bft) O-NO 74 ° 0 min 33 W/m² 4,1 °C 0,2 °C 20,9 km/h (4 Bft)
17.11.2022 12:03 21,6 °C 5,0 °C 56 % 94 % 998,0 hPa 0,0 l/m² 20,7 km/h (4 Bft) O 90 ° 0 min 33 W/m² 4,1 °C -3,4 °C 25,7 km/h (4 Bft)
17.11.2022 12:04 21,6 °C 4,9 °C 56 % 94 % 998,0 hPa 0,0 l/m² 17,0 km/h (3 Bft) O-NO 78 ° 0 min 35 W/m² 4,0 °C -2,0 °C 22,5 km/h (4 Bft)
17.11.2022 12:06 21,6 °C 5,0 °C 56 % 94 % 998,0 hPa 0,0 l/m² 17,3 km/h (3 Bft) O 91 ° 0 min 35 W/m² 4,1 °C -2,0 °C 25,7 km/h (4 Bft)
17.11.2022 12:08 21,6 °C 5,0 °C 56 % 94 % 997,9 hPa 0,2 l/m² 20,5 km/h (4 Bft) O 92 ° 0 min 44 W/m² 4,1 °C -3,4 °C 29,0 km/h (5 Bft)
17.11.2022 12:10 21,6 °C 5,0 °C 56 % 94 % 997,9 hPa 0,0 l/m² 21,5 km/h (4 Bft) O-NO 62 ° 0 min 42 W/m² 4,1 °C -3,7 °C 33,8 km/h (5 Bft)
17.11.2022 12:11 21,6 °C 4,9 °C 56 % 94 % 997,8 hPa 0,0 l/m² 22,5 km/h (4 Bft) O 87 ° 0 min 42 W/m² 4,0 °C -4,2 °C 29,0 km/h (5 Bft)
17.11.2022 12:12 21,6 °C 4,9 °C 56 % 94 % 997,8 hPa 0,0 l/m² 25,5 km/h (4 Bft) O 86 ° 0 min 46 W/m² 4,0 °C -5,2 °C 30,6 km/h (5 Bft)
17.11.2022 12:13 21,6 °C 4,9 °C 56 % 94 % 997,8 hPa 0,0 l/m² 17,2 km/h (3 Bft) O 89 ° 0 min 42 W/m² 4,0 °C -2,1 °C 24,1 km/h (4 Bft)
17.11.2022 12:15 21,6 °C 5,0 °C 56 % 94 % 997,8 hPa 0,2 l/m² 19,8 km/h (3 Bft) O-NO 69 ° 0 min 32 W/m² 4,1 °C -3,1 °C 25,7 km/h (4 Bft)
17.11.2022 12:17 21,6 °C 4,9 °C 56 % 94 % 997,8 hPa 0,0 l/m² 20,8 km/h (4 Bft) O 85 ° 0 min 28 W/m² 4,0 °C -3,6 °C 33,8 km/h (5 Bft)
17.11.2022 12:19 21,6 °C 5,0 °C 56 % 94 % 997,6 hPa 0,2 l/m² 15,8 km/h (3 Bft) O 92 ° 0 min 26 W/m² 4,1 °C -1,3 °C 24,1 km/h (4 Bft)
17.11.2022 12:21 21,6 °C 4,9 °C 56 % 94 % 997,7 hPa 0,0 l/m² 17,0 km/h (3 Bft) O-NO 76 ° 0 min 26 W/m² 4,0 °C -2,0 °C 24,1 km/h (4 Bft)
17.11.2022 12:22 21,6 °C 4,9 °C 56 % 94 % 997,7 hPa 0,0 l/m² 19,4 km/h (3 Bft) O 85 ° 0 min 26 W/m² 4,0 °C -3,1 °C 32,2 km/h (5 Bft)
17.11.2022 12:23 21,6 °C 4,9 °C 56 % 94 % 997,8 hPa 0,2 l/m² 23,1 km/h (4 Bft) O 84 ° 0 min 25 W/m² 4,0 °C -4,4 °C 27,4 km/h (5 Bft)
17.11.2022 12:25 21,6 °C 5,0 °C 56 % 94 % 997,7 hPa 0,0 l/m² 21,1 km/h (4 Bft) O 81 ° 0 min 25 W/m² 4,1 °C -3,6 °C 29,0 km/h (5 Bft)
17.11.2022 12:27 21,6 °C 4,9 °C 56 % 94 % 997,8 hPa 0,2 l/m² 22,8 km/h (4 Bft) O-NO 78 ° 0 min 23 W/m² 4,0 °C -4,3 °C 30,6 km/h (5 Bft)
17.11.2022 12:29 21,6 °C 4,9 °C 56 % 94 % 997,7 hPa 0,0 l/m² 17,3 km/h (3 Bft) O-NO 78 ° 0 min 23 W/m² 4,0 °C -2,2 °C 29,0 km/h (5 Bft)
17.11.2022 12:31 21,6 °C 4,9 °C 56 % 94 % 997,7 hPa 0,2 l/m² 15,1 km/h (3 Bft) O 91 ° 0 min 21 W/m² 4,0 °C -1,1 °C 22,5 km/h (4 Bft)
17.11.2022 12:32 21,6 °C 4,9 °C 56 % 94 % 997,7 hPa 0,0 l/m² 21,2 km/h (4 Bft) O 81 ° 0 min 21 W/m² 4,0 °C -3,8 °C 25,7 km/h (4 Bft)
17.11.2022 12:33 21,6 °C 4,9 °C 56 % 94 % 997,6 hPa 0,0 l/m² 27,0 km/h (5 Bft) O-NO 76 ° 0 min 19 W/m² 4,0 °C -5,7 °C 33,8 km/h (5 Bft)
17.11.2022 12:35 21,6 °C 5,0 °C 56 % 94 % 997,6 hPa 0,0 l/m² 23,9 km/h (4 Bft) O-NO 74 ° 0 min 18 W/m² 4,1 °C -4,6 °C 33,8 km/h (5 Bft)
17.11.2022 12:37 21,6 °C 4,9 °C 56 % 94 % 997,6 hPa 0,2 l/m² 22,8 km/h (4 Bft) O-NO 69 ° 0 min 21 W/m² 4,0 °C -4,3 °C 32,2 km/h (5 Bft)
17.11.2022 12:39 21,6 °C 4,9 °C 56 % 94 % 997,6 hPa 0,0 l/m² 20,3 km/h (4 Bft) O 81 ° 0 min 26 W/m² 4,0 °C -3,4 °C 37,0 km/h (5 Bft)
17.11.2022 12:41 21,6 °C 5,0 °C 56 % 94 % 997,5 hPa 0,0 l/m² 27,0 km/h (5 Bft) O-NO 77 ° 0 min 37 W/m² 4,1 °C -5,6 °C 35,4 km/h (5 Bft)
17.11.2022 12:42 21,6 °C 5,0 °C 56 % 94 % 997,5 hPa 0,0 l/m² 19,1 km/h (3 Bft) O-NO 66 ° 0 min 37 W/m² 4,1 °C -2,8 °C 29,0 km/h (5 Bft)
17.11.2022 12:43 21,6 °C 5,0 °C 56 % 94 % 997,5 hPa 0,0 l/m² 19,9 km/h (4 Bft) O-NO 78 ° 0 min 39 W/m² 4,1 °C -3,1 °C 27,4 km/h (5 Bft)
17.11.2022 12:45 21,6 °C 5,0 °C 56 % 94 % 997,4 hPa 0,2 l/m² 20,8 km/h (4 Bft) O-NO 69 ° 0 min 46 W/m² 4,1 °C -3,5 °C 33,8 km/h (5 Bft)
17.11.2022 12:47 21,6 °C 5,0 °C 56 % 94 % 997,3 hPa 0,0 l/m² 24,2 km/h (4 Bft) O-NO 74 ° 2 min 69 W/m² 4,1 °C -4,7 °C 35,4 km/h (5 Bft)
17.11.2022 12:48 21,6 °C 5,1 °C 56 % 94 % 997,3 hPa 0,0 l/m² 15,2 km/h (3 Bft) NO 52 ° 1 min 74 W/m² 4,2 °C -0,9 °C 20,9 km/h (4 Bft)
17.11.2022 12:49 21,5 °C 5,1 °C 56 % 94 % 997,4 hPa 0,2 l/m² 27,6 km/h (5 Bft) O 86 ° 1 min 69 W/m² 4,2 °C -5,6 °C 32,2 km/h (5 Bft)
17.11.2022 12:51 21,5 °C 5,1 °C 56 % 94 % 997,4 hPa 0,0 l/m² 22,1 km/h (4 Bft) O-NO 78 ° 0 min 42 W/m² 4,2 °C -3,8 °C 33,8 km/h (5 Bft)
17.11.2022 12:52 21,5 °C 5,1 °C 56 % 94 % 997,4 hPa 0,0 l/m² 22,9 km/h (4 Bft) O 90 ° 0 min 37 W/m² 4,2 °C -4,1 °C 30,6 km/h (5 Bft)
17.11.2022 12:53 21,6 °C 5,1 °C 56 % 94 % 997,4 hPa 0,0 l/m² 23,0 km/h (4 Bft) O-NO 76 ° 0 min 37 W/m² 4,2 °C -4,1 °C 27,4 km/h (5 Bft)
17.11.2022 12:55 21,6 °C 5,1 °C 56 % 94 % 997,5 hPa 0,0 l/m² 22,6 km/h (4 Bft) O-SO 102 ° 0 min 28 W/m² 4,2 °C -4,0 °C 33,8 km/h (5 Bft)
17.11.2022 12:57 21,5 °C 5,1 °C 56 % 94 % 997,6 hPa 0,0 l/m² 22,2 km/h (4 Bft) O 82 ° 0 min 26 W/m² 4,2 °C -3,9 °C 29,0 km/h (5 Bft)
17.11.2022 12:59 21,6 °C 5,1 °C 56 % 94 % 997,6 hPa 0,0 l/m² 21,6 km/h (4 Bft) O 95 ° 0 min 26 W/m² 4,2 °C -3,7 °C 30,6 km/h (5 Bft)
17.11.2022 13:01 21,6 °C 5,1 °C 56 % 94 % 997,6 hPa 0,0 l/m² 21,6 km/h (4 Bft) O-NO 78 ° 0 min 30 W/m² 4,2 °C -3,7 °C 27,4 km/h (5 Bft)
17.11.2022 13:02 21,6 °C 5,1 °C 56 % 94 % 997,6 hPa 0,0 l/m² 17,9 km/h (3 Bft) O 93 ° 0 min 30 W/m² 4,2 °C -2,2 °C 22,5 km/h (4 Bft)
17.11.2022 13:03 21,6 °C 5,1 °C 56 % 94 % 997,6 hPa 0,0 l/m² 17,2 km/h (3 Bft) O 89 ° 0 min 35 W/m² 4,2 °C -1,9 °C 25,7 km/h (4 Bft)
17.11.2022 13:05 21,5 °C 5,2 °C 56 % 94 % 997,5 hPa 0,0 l/m² 18,8 km/h (3 Bft) O 86 ° 0 min 39 W/m² 4,3 °C -2,4 °C 27,4 km/h (5 Bft)
17.11.2022 13:07 21,6 °C 5,2 °C 56 % 94 % 997,6 hPa 0,0 l/m² 24,7 km/h (4 Bft) O 81 ° 0 min 40 W/m² 4,3 °C -4,6 °C 33,8 km/h (5 Bft)
17.11.2022 13:08 21,5 °C 5,2 °C 56 % 94 % 997,5 hPa 0,0 l/m² 22,9 km/h (4 Bft) O 89 ° 0 min 37 W/m² 4,3 °C -4,0 °C 29,0 km/h (5 Bft)
17.11.2022 13:09 21,5 °C 5,2 °C 56 % 94 % 997,5 hPa 0,0 l/m² 22,0 km/h (4 Bft) O 80 ° 0 min 39 W/m² 4,3 °C -3,7 °C 30,6 km/h (5 Bft)
17.11.2022 13:11 21,5 °C 5,2 °C 56 % 94 % 997,5 hPa 0,0 l/m² 26,4 km/h (4 Bft) O-NO 74 ° 2 min 54 W/m² 4,3 °C -5,1 °C 37,0 km/h (5 Bft)
17.11.2022 13:12 21,5 °C 5,2 °C 56 % 94 % 997,5 hPa 0,0 l/m² 21,5 km/h (4 Bft) O-NO 63 ° 1 min 62 W/m² 4,3 °C -3,5 °C 29,0 km/h (5 Bft)
17.11.2022 13:13 21,6 °C 5,2 °C 56 % 94 % 997,5 hPa 0,0 l/m² 26,7 km/h (4 Bft) O 83 ° 1 min 63 W/m² 4,3 °C -5,2 °C 33,8 km/h (5 Bft)
17.11.2022 13:15 21,6 °C 5,2 °C 56 % 94 % 997,5 hPa 0,0 l/m² 23,1 km/h (4 Bft) O 86 ° 2 min 79 W/m² 4,3 °C -4,0 °C 29,0 km/h (5 Bft)
17.11.2022 13:17 21,6 °C 5,3 °C 56 % 94 % 997,6 hPa 0,0 l/m² 22,5 km/h (4 Bft) O-NO 77 ° 2 min 93 W/m² 4,4 °C -3,7 °C 29,0 km/h (5 Bft)
17.11.2022 13:19 21,5 °C 5,3 °C 56 % 94 % 997,5 hPa 0,0 l/m² 24,7 km/h (4 Bft) O 80 ° 2 min 70 W/m² 4,4 °C -4,4 °C 33,8 km/h (5 Bft)
17.11.2022 13:21 21,5 °C 5,3 °C 56 % 94 % 997,6 hPa 0,0 l/m² 16,6 km/h (3 Bft) O 94 ° 2 min 69 W/m² 4,4 °C -1,3 °C 25,7 km/h (4 Bft)
17.11.2022 13:22 21,5 °C 5,3 °C 56 % 94 % 997,6 hPa 0,0 l/m² 22,2 km/h (4 Bft) O 84 ° 1 min 74 W/m² 4,4 °C -3,6 °C 24,1 km/h (4 Bft)
17.11.2022 13:23 21,5 °C 5,3 °C 56 % 94 % 997,5 hPa 0,0 l/m² 23,1 km/h (4 Bft) O 100 ° 1 min 84 W/m² 4,4 °C -3,9 °C 30,6 km/h (5 Bft)
17.11.2022 13:25 21,6 °C 5,3 °C 56 % 94 % 997,6 hPa 0,0 l/m² 22,2 km/h (4 Bft) O 82 ° 2 min 79 W/m² 4,4 °C -3,6 °C 29,0 km/h (5 Bft)
17.11.2022 13:27 21,5 °C 5,3 °C 56 % 94 % 997,6 hPa 0,0 l/m² 19,5 km/h (3 Bft) O 88 ° 2 min 95 W/m² 4,4 °C -2,6 °C 27,4 km/h (5 Bft)
17.11.2022 13:29 21,6 °C 5,4 °C 56 % 94 % 997,5 hPa 0,0 l/m² 19,2 km/h (3 Bft) O 92 ° 2 min 77 W/m² 4,5 °C -2,3 °C 27,4 km/h (5 Bft)
17.11.2022 13:31 21,5 °C 5,4 °C 56 % 94 % 997,7 hPa 0,0 l/m² 20,7 km/h (4 Bft) NO 53 ° 2 min 70 W/m² 4,5 °C -2,9 °C 27,4 km/h (5 Bft)
17.11.2022 13:32 21,5 °C 5,4 °C 56 % 94 % 997,7 hPa 0,0 l/m² 20,9 km/h (4 Bft) O 95 ° 1 min 70 W/m² 4,5 °C -3,0 °C 27,4 km/h (5 Bft)
17.11.2022 13:33 21,6 °C 5,4 °C 56 % 94 % 997,7 hPa 0,0 l/m² 21,5 km/h (4 Bft) O 80 ° 1 min 70 W/m² 4,5 °C -3,2 °C 32,2 km/h (5 Bft)
17.11.2022 13:35 21,5 °C 5,4 °C 56 % 94 % 997,6 hPa 0,0 l/m² 22,1 km/h (4 Bft) O 98 ° 2 min 63 W/m² 4,5 °C -3,4 °C 33,8 km/h (5 Bft)
17.11.2022 13:37 21,5 °C 5,4 °C 56 % 94 % 997,6 hPa 0,0 l/m² 21,9 km/h (4 Bft) O-NO 66 ° 2 min 62 W/m² 4,5 °C -3,4 °C 27,4 km/h (5 Bft)
17.11.2022 13:39 21,5 °C 5,5 °C 56 % 94 % 997,6 hPa 0,0 l/m² 23,2 km/h (4 Bft) O 84 ° 2 min 53 W/m² 4,6 °C -3,7 °C 30,6 km/h (5 Bft)
17.11.2022 13:41 21,5 °C 5,5 °C 56 % 94 % 997,6 hPa 0,0 l/m² 20,0 km/h (4 Bft) O 96 ° 0 min 42 W/m² 4,6 °C -2,5 °C 30,6 km/h (5 Bft)
17.11.2022 13:42 21,5 °C 5,5 °C 56 % 94 % 997,6 hPa 0,0 l/m² 18,4 km/h (3 Bft) O 84 ° 0 min 39 W/m² 4,6 °C -1,9 °C 24,1 km/h (4 Bft)
17.11.2022 13:43 21,5 °C 5,5 °C 56 % 94 % 997,6 hPa 0,0 l/m² 16,6 km/h (3 Bft) O-NO 57 ° 0 min 35 W/m² 4,6 °C -1,1 °C 27,4 km/h (5 Bft)
17.11.2022 13:45 21,5 °C 5,5 °C 56 % 94 % 997,6 hPa 0,0 l/m² 23,2 km/h (4 Bft) NO 46 ° 0 min 32 W/m² 4,6 °C -3,7 °C 32,2 km/h (5 Bft)
17.11.2022 13:47 21,5 °C 5,5 °C 56 % 94 % 997,5 hPa 0,0 l/m² 25,1 km/h (4 Bft) O-NO 65 ° 0 min 28 W/m² 4,6 °C -4,3 °C 33,8 km/h (5 Bft)
17.11.2022 13:49 21,5 °C 5,5 °C 56 % 94 % 997,6 hPa 0,0 l/m² 16,5 km/h (3 Bft) O-NO 76 ° 0 min 32 W/m² 4,6 °C -1,0 °C 22,5 km/h (4 Bft)
17.11.2022 13:51 21,5 °C 5,5 °C 56 % 94 % 997,5 hPa 0,0 l/m² 19,6 km/h (3 Bft) O 84 ° 0 min 33 W/m² 4,6 °C -2,4 °C 25,7 km/h (4 Bft)
17.11.2022 13:52 21,5 °C 5,5 °C 56 % 94 % 997,5 hPa 0,0 l/m² 21,0 km/h (4 Bft) O-NO 71 ° 0 min 32 W/m² 4,6 °C -2,9 °C 29,0 km/h (5 Bft)
17.11.2022 13:53 21,5 °C 5,5 °C 56 % 94 % 997,6 hPa 0,0 l/m² 21,5 km/h (4 Bft) O 95 ° 0 min 32 W/m² 4,6 °C -3,1 °C 24,1 km/h (4 Bft)
17.11.2022 13:55 21,4 °C 5,5 °C 56 % 94 % 997,6 hPa 0,0 l/m² 22,8 km/h (4 Bft) O-NO 73 ° 0 min 28 W/m² 4,6 °C -3,5 °C 33,8 km/h (5 Bft)
17.11.2022 13:57 21,5 °C 5,6 °C 56 % 94 % 997,5 hPa 0,0 l/m² 19,7 km/h (3 Bft) NO 50 ° 0 min 30 W/m² 4,7 °C -2,3 °C 27,4 km/h (5 Bft)
17.11.2022 13:59 21,5 °C 5,5 °C 56 % 94 % 997,6 hPa 0,0 l/m² 17,5 km/h (3 Bft) O-NO 63 ° 0 min 37 W/m² 4,6 °C -1,5 °C 29,0 km/h (5 Bft)
17.11.2022 14:01 21,4 °C 5,6 °C 56 % 94 % 997,5 hPa 0,0 l/m² 20,3 km/h (4 Bft) O 88 ° 0 min 33 W/m² 4,7 °C -2,5 °C 30,6 km/h (5 Bft)
17.11.2022 14:02 21,4 °C 5,6 °C 56 % 94 % 997,5 hPa 0,0 l/m² 15,7 km/h (3 Bft) O 91 ° 0 min 33 W/m² 4,7 °C -0,5 °C 22,5 km/h (4 Bft)
17.11.2022 14:03 21,5 °C 5,6 °C 56 % 94 % 997,4 hPa 0,0 l/m² 24,5 km/h (4 Bft) O-NO 76 ° 0 min 35 W/m² 4,7 °C -4,0 °C 29,0 km/h (5 Bft)
17.11.2022 14:05 21,4 °C 5,6 °C 56 % 94 % 997,5 hPa 0,0 l/m² 20,6 km/h (4 Bft) O-NO 78 ° 0 min 33 W/m² 4,7 °C -2,6 °C 25,7 km/h (4 Bft)
17.11.2022 14:07 21,4 °C 5,6 °C 56 % 94 % 997,4 hPa 0,0 l/m² 20,2 km/h (4 Bft) O 96 ° 0 min 26 W/m² 4,7 °C -2,5 °C 29,0 km/h (5 Bft)
17.11.2022 14:08 21,5 °C 5,6 °C 56 % 94 % 997,4 hPa 0,0 l/m² 21,3 km/h (4 Bft) O 98 ° 0 min 26 W/m² 4,7 °C -2,9 °C 29,0 km/h (5 Bft)
17.11.2022 14:09 21,5 °C 5,6 °C 56 % 94 % 997,4 hPa 0,0 l/m² 15,4 km/h (3 Bft) O 85 ° 0 min 25 W/m² 4,7 °C -0,4 °C 20,9 km/h (4 Bft)
17.11.2022 14:11 21,4 °C 5,6 °C 56 % 94 % 997,4 hPa 0,0 l/m² 19,0 km/h (3 Bft) O 82 ° 0 min 16 W/m² 4,7 °C -2,0 °C 29,0 km/h (5 Bft)
17.11.2022 14:12 21,4 °C 5,6 °C 56 % 94 % 997,4 hPa 0,0 l/m² 24,7 km/h (4 Bft) O 82 ° 0 min 14 W/m² 4,7 °C -4,0 °C 32,2 km/h (5 Bft)
17.11.2022 14:13 21,4 °C 5,6 °C 56 % 94 % 997,4 hPa 0,0 l/m² 23,8 km/h (4 Bft) O 89 ° 0 min 12 W/m² 4,7 °C -3,7 °C 29,0 km/h (5 Bft)
17.11.2022 14:15 21,4 °C 5,6 °C 56 % 94 % 997,5 hPa 0,0 l/m² 21,0 km/h (4 Bft) O-NO 61 ° 0 min 11 W/m² 4,7 °C -2,8 °C 30,6 km/h (5 Bft)
17.11.2022 14:17 21,4 °C 5,6 °C 56 % 94 % 997,4 hPa 0,0 l/m² 18,8 km/h (3 Bft) O-NO 72 ° 0 min 14 W/m² 4,7 °C -1,9 °C 24,1 km/h (4 Bft)
17.11.2022 14:19 21,4 °C 5,6 °C 56 % 94 % 997,5 hPa 0,0 l/m² 18,8 km/h (3 Bft) O-NO 65 ° 0 min 16 W/m² 4,7 °C -1,9 °C 27,4 km/h (5 Bft)
17.11.2022 14:21 21,4 °C 5,6 °C 56 % 94 % 997,4 hPa 0,0 l/m² 17,5 km/h (3 Bft) O-NO 72 ° 0 min 14 W/m² 4,7 °C -1,4 °C 22,5 km/h (4 Bft)
17.11.2022 14:22 21,4 °C 5,6 °C 56 % 94 % 997,4 hPa 0,0 l/m² 19,0 km/h (3 Bft) O-NO 67 ° 0 min 16 W/m² 4,7 °C -2,0 °C 22,5 km/h (4 Bft)
17.11.2022 14:23 21,4 °C 5,6 °C 56 % 94 % 997,4 hPa 0,0 l/m² 20,3 km/h (4 Bft) O 82 ° 0 min 19 W/m² 4,7 °C -2,5 °C 29,0 km/h (5 Bft)
17.11.2022 14:25 21,4 °C 5,7 °C 56 % 94 % 997,4 hPa 0,0 l/m² 22,3 km/h (4 Bft) O-NO 78 ° 0 min 18 W/m² 4,8 °C -3,1 °C 32,2 km/h (5 Bft)
17.11.2022 14:27 21,4 °C 5,7 °C 56 % 94 % 997,5 hPa 0,0 l/m² 21,8 km/h (4 Bft) O 80 ° 0 min 14 W/m² 4,8 °C -2,9 °C 32,2 km/h (5 Bft)
17.11.2022 14:29 21,4 °C 5,7 °C 56 % 94 % 997,4 hPa 0,0 l/m² 22,1 km/h (4 Bft) O-NO 59 ° 0 min 12 W/m² 4,8 °C -3,0 °C 30,6 km/h (5 Bft)
17.11.2022 14:31 21,4 °C 5,7 °C 56 % 94 % 997,3 hPa 0,0 l/m² 17,3 km/h (3 Bft) O 94 ° 0 min 14 W/m² 4,8 °C -1,2 °C 32,2 km/h (5 Bft)
17.11.2022 14:32 21,4 °C 5,7 °C 56 % 94 % 997,3 hPa 0,0 l/m² 25,1 km/h (4 Bft) O 98 ° 0 min 16 W/m² 4,8 °C -4,0 °C 32,2 km/h (5 Bft)
17.11.2022 14:33 21,4 °C 5,7 °C 56 % 94 % 997,4 hPa 0,0 l/m² 21,8 km/h (4 Bft) O 86 ° 0 min 19 W/m² 4,8 °C -2,9 °C 27,4 km/h (5 Bft)
17.11.2022 14:35 21,4 °C 5,7 °C 56 % 94 % 997,4 hPa 0,0 l/m² 22,0 km/h (4 Bft) O 80 ° 0 min 21 W/m² 4,8 °C -3,0 °C 29,0 km/h (5 Bft)
17.11.2022 14:37 21,4 °C 5,7 °C 56 % 94 % 997,3 hPa 0,0 l/m² 22,0 km/h (4 Bft) O 91 ° 0 min 21 W/m² 4,8 °C -3,0 °C 33,8 km/h (5 Bft)
17.11.2022 14:39 21,4 °C 5,7 °C 56 % 94 % 997,3 hPa 0,0 l/m² 24,9 km/h (4 Bft) O 90 ° 0 min 21 W/m² 4,8 °C -4,0 °C 30,6 km/h (5 Bft)
17.11.2022 14:41 21,4 °C 5,7 °C 55 % 94 % 997,3 hPa 0,0 l/m² 23,0 km/h (4 Bft) O 83 ° 0 min 19 W/m² 4,8 °C -3,3 °C 33,8 km/h (5 Bft)
17.11.2022 14:42 21,4 °C 5,7 °C 55 % 94 % 997,3 hPa 0,0 l/m² 24,5 km/h (4 Bft) O 92 ° 0 min 19 W/m² 4,8 °C -3,8 °C 32,2 km/h (5 Bft)
17.11.2022 14:44 21,4 °C 5,7 °C 55 % 94 % 997,2 hPa 0,2 l/m² 25,0 km/h (4 Bft) O 100 ° 0 min 18 W/m² 4,8 °C -4,0 °C 32,2 km/h (5 Bft)
17.11.2022 14:46 21,4 °C 5,7 °C 54 % 94 % 997,2 hPa 0,0 l/m² 23,1 km/h (4 Bft) O 92 ° 0 min 14 W/m² 4,8 °C -3,4 °C 32,2 km/h (5 Bft)
17.11.2022 14:48 21,4 °C 5,7 °C 54 % 93 % 997,2 hPa 0,0 l/m² 24,9 km/h (4 Bft) O 98 ° 0 min 14 W/m² 4,7 °C -4,0 °C 33,8 km/h (5 Bft)
17.11.2022 14:50 21,4 °C 5,7 °C 54 % 93 % 997,2 hPa 0,2 l/m² 24,7 km/h (4 Bft) O 91 ° 0 min 12 W/m² 4,7 °C -3,9 °C 33,8 km/h (5 Bft)
17.11.2022 14:52 21,4 °C 5,7 °C 54 % 94 % 997,2 hPa 0,0 l/m² 21,2 km/h (4 Bft) O 90 ° 0 min 12 W/m² 4,8 °C -2,7 °C 30,6 km/h (5 Bft)
17.11.2022 14:53 21,4 °C 5,7 °C 54 % 93 % 997,2 hPa 0,0 l/m² 22,3 km/h (4 Bft) O 90 ° 0 min 12 W/m² 4,7 °C -3,1 °C 29,0 km/h (5 Bft)
17.11.2022 14:54 21,4 °C 5,7 °C 54 % 94 % 997,2 hPa 0,0 l/m² 23,0 km/h (4 Bft) O-NO 77 ° 0 min 14 W/m² 4,8 °C -3,3 °C 30,6 km/h (5 Bft)
17.11.2022 14:56 21,4 °C 5,7 °C 54 % 94 % 997,2 hPa 0,0 l/m² 22,4 km/h (4 Bft) O 92 ° 0 min 14 W/m² 4,8 °C -3,1 °C 32,2 km/h (5 Bft)
17.11.2022 14:58 21,4 °C 5,7 °C 54 % 94 % 997,3 hPa 0,0 l/m² 23,3 km/h (4 Bft) O-NO 76 ° 0 min 16 W/m² 4,8 °C -3,4 °C 27,4 km/h (5 Bft)
17.11.2022 15:00 21,4 °C 5,6 °C 55 % 94 % 997,3 hPa 0,0 l/m² 23,0 km/h (4 Bft) O 79 ° 0 min 16 W/m² 4,7 °C -3,5 °C 29,0 km/h (5 Bft)
17.11.2022 15:02 21,4 °C 5,7 °C 55 % 94 % 997,3 hPa 0,0 l/m² 21,1 km/h (4 Bft) O 89 ° 0 min 14 W/m² 4,8 °C -2,7 °C 30,6 km/h (5 Bft)
17.11.2022 15:03 21,4 °C 5,6 °C 55 % 94 % 997,3 hPa 0,0 l/m² 21,6 km/h (4 Bft) O 92 ° 0 min 14 W/m² 4,7 °C -3,0 °C 27,4 km/h (5 Bft)
17.11.2022 15:04 21,4 °C 5,7 °C 55 % 94 % 997,3 hPa 0,0 l/m² 24,7 km/h (4 Bft) O 96 ° 0 min 12 W/m² 4,8 °C -3,9 °C 29,0 km/h (5 Bft)
17.11.2022 15:06 21,4 °C 5,6 °C 55 % 94 % 997,3 hPa 0,0 l/m² 20,0 km/h (4 Bft) O-NO 73 ° 0 min 11 W/m² 4,7 °C -2,4 °C 25,7 km/h (4 Bft)
17.11.2022 15:08 21,4 °C 5,6 °C 55 % 94 % 997,3 hPa 0,0 l/m² 18,3 km/h (3 Bft) O-NO 73 ° 0 min 11 W/m² 4,7 °C -1,7 °C 22,5 km/h (4 Bft)
17.11.2022 15:10 21,4 °C 5,6 °C 55 % 94 % 997,3 hPa 0,0 l/m² 19,1 km/h (3 Bft) O-NO 59 ° 0 min 7 W/m² 4,7 °C -2,0 °C 30,6 km/h (5 Bft)
17.11.2022 15:12 21,4 °C 5,6 °C 55 % 94 % 997,2 hPa 0,2 l/m² 21,4 km/h (4 Bft) O 95 ° 0 min 7 W/m² 4,7 °C -2,9 °C 29,0 km/h (5 Bft)
17.11.2022 15:13 21,4 °C 5,7 °C 55 % 94 % 997,2 hPa 0,0 l/m² 16,7 km/h (3 Bft) O-NO 78 ° 0 min 7 W/m² 4,8 °C -0,9 °C 19,3 km/h (3 Bft)
17.11.2022 15:14 21,4 °C 5,7 °C 55 % 94 % 997,3 hPa 0,0 l/m² 20,1 km/h (4 Bft) O 94 ° 0 min 7 W/m² 4,8 °C -2,3 °C 27,4 km/h (5 Bft)
17.11.2022 15:16 21,4 °C 5,6 °C 55 % 94 % 997,2 hPa 0,0 l/m² 22,7 km/h (4 Bft) O 84 ° 0 min 7 W/m² 4,7 °C -3,4 °C 29,0 km/h (5 Bft)
17.11.2022 15:18 21,4 °C 5,6 °C 55 % 94 % 997,2 hPa 0,2 l/m² 20,3 km/h (4 Bft) O 86 ° 0 min 7 W/m² 4,7 °C -2,5 °C 29,0 km/h (5 Bft)
17.11.2022 15:20 21,4 °C 5,6 °C 55 % 94 % 997,2 hPa 0,0 l/m² 21,0 km/h (4 Bft) O 85 ° 0 min 7 W/m² 4,7 °C -2,8 °C 32,2 km/h (5 Bft)
17.11.2022 15:22 21,4 °C 5,6 °C 55 % 94 % 997,2 hPa 0,0 l/m² 21,9 km/h (4 Bft) O 87 ° 0 min 7 W/m² 4,7 °C -3,1 °C 29,0 km/h (5 Bft)
17.11.2022 15:23 21,4 °C 5,6 °C 55 % 94 % 997,2 hPa 0,2 l/m² 17,8 km/h (3 Bft) O-NO 78 ° 0 min 9 W/m² 4,7 °C -1,5 °C 22,5 km/h (4 Bft)
17.11.2022 15:24 21,4 °C 5,7 °C 55 % 94 % 997,2 hPa 0,0 l/m² 20,1 km/h (4 Bft) O-NO 78 ° 0 min 9 W/m² 4,8 °C -2,3 °C 30,6 km/h (5 Bft)
17.11.2022 15:26 21,4 °C 5,6 °C 55 % 94 % 997,3 hPa 0,0 l/m² 23,0 km/h (4 Bft) O 84 ° 0 min 9 W/m² 4,7 °C -3,5 °C 29,0 km/h (5 Bft)
17.11.2022 15:28 21,4 °C 5,6 °C 55 % 94 % 997,3 hPa 0,0 l/m² 21,6 km/h (4 Bft) O-NO 68 ° 0 min 9 W/m² 4,7 °C -3,0 °C 32,2 km/h (5 Bft)
17.11.2022 15:30 21,4 °C 5,6 °C 55 % 94 % 997,3 hPa 0,2 l/m² 20,5 km/h (4 Bft) O 89 ° 0 min 9 W/m² 4,7 °C -2,6 °C 24,1 km/h (4 Bft)
17.11.2022 15:32 21,4 °C 5,6 °C 55 % 94 % 997,2 hPa 0,0 l/m² 21,6 km/h (4 Bft) O 79 ° 0 min 11 W/m² 4,7 °C -3,0 °C 32,2 km/h (5 Bft)
17.11.2022 15:33 21,4 °C 5,6 °C 55 % 94 % 997,2 hPa 0,0 l/m² 24,1 km/h (4 Bft) O 82 ° 0 min 11 W/m² 4,7 °C -3,8 °C 30,6 km/h (5 Bft)
17.11.2022 15:34 21,4 °C 5,6 °C 55 % 94 % 997,3 hPa 0,0 l/m² 20,1 km/h (4 Bft) O 84 ° 0 min 11 W/m² 4,7 °C -2,4 °C 24,1 km/h (4 Bft)
17.11.2022 15:36 21,4 °C 5,6 °C 55 % 94 % 997,3 hPa 0,0 l/m² 19,9 km/h (4 Bft) O-NO 78 ° 0 min 11 W/m² 4,7 °C -2,4 °C 29,0 km/h (5 Bft)
17.11.2022 15:38 21,4 °C 5,6 °C 55 % 94 % 997,3 hPa 0,2 l/m² 19,1 km/h (3 Bft) O-NO 76 ° 0 min 11 W/m² 4,7 °C -2,0 °C 25,7 km/h (4 Bft)
17.11.2022 15:40 21,4 °C 5,6 °C 55 % 94 % 997,3 hPa 0,0 l/m² 18,0 km/h (3 Bft) O-NO 74 ° 0 min 11 W/m² 4,7 °C -1,6 °C 22,5 km/h (4 Bft)
17.11.2022 15:42 21,4 °C 5,6 °C 55 % 94 % 997,3 hPa 0,0 l/m² 16,4 km/h (3 Bft) O 86 ° 0 min 9 W/m² 4,7 °C -0,9 °C 27,4 km/h (5 Bft)
17.11.2022 15:43 21,4 °C 5,6 °C 55 % 94 % 997,3 hPa 0,0 l/m² 22,6 km/h (4 Bft) O 82 ° 0 min 9 W/m² 4,7 °C -3,3 °C 29,0 km/h (5 Bft)
17.11.2022 15:45 21,4 °C 5,6 °C 55 % 94 % 997,3 hPa 0,2 l/m² 16,9 km/h (3 Bft) O 80 ° 0 min 7 W/m² 4,7 °C -1,1 °C 29,0 km/h (5 Bft)
17.11.2022 15:46 21,4 °C 5,6 °C 55 % 94 % 997,3 hPa 0,0 l/m² 16,1 km/h (3 Bft) O-NO 65 ° 0 min 7 W/m² 4,7 °C -0,7 °C 25,7 km/h (4 Bft)
17.11.2022 15:47 21,4 °C 5,6 °C 55 % 94 % 997,3 hPa 0,0 l/m² 20,3 km/h (4 Bft) O 87 ° 0 min 7 W/m² 4,7 °C -2,5 °C 30,6 km/h (5 Bft)
17.11.2022 15:48 21,4 °C 5,6 °C 55 % 94 % 997,3 hPa 0,0 l/m² 19,0 km/h (3 Bft) O 96 ° 0 min 5 W/m² 4,7 °C -2,0 °C 22,5 km/h (4 Bft)
17.11.2022 15:49 21,4 °C 5,6 °C 55 % 94 % 997,3 hPa 0,0 l/m² 19,2 km/h (3 Bft) O 93 ° 0 min 5 W/m² 4,7 °C -2,1 °C 24,1 km/h (4 Bft)
17.11.2022 15:51 21,4 °C 5,6 °C 55 % 94 % 997,2 hPa 0,0 l/m² 18,2 km/h (3 Bft) O 79 ° 0 min 5 W/m² 4,7 °C -1,7 °C 24,1 km/h (4 Bft)
17.11.2022 15:52 21,4 °C 5,6 °C 55 % 94 % 997,2 hPa 0,0 l/m² 15,4 km/h (3 Bft) O 88 ° 0 min 5 W/m² 4,7 °C -0,4 °C 27,4 km/h (5 Bft)
17.11.2022 15:53 21,4 °C 5,6 °C 55 % 94 % 997,3 hPa 0,0 l/m² 22,3 km/h (4 Bft) O 84 ° 0 min 5 W/m² 4,7 °C -3,2 °C 29,0 km/h (5 Bft)
17.11.2022 15:55 21,4 °C 5,7 °C 55 % 94 % 997,3 hPa 0,0 l/m² 21,0 km/h (4 Bft) O-NO 74 ° 0 min 0 W/m² 4,8 °C -2,6 °C 30,6 km/h (5 Bft)
17.11.2022 15:57 21,4 °C 5,6 °C 55 % 94 % 997,3 hPa 0,0 l/m² 20,2 km/h (4 Bft) O 82 ° 0 min 0 W/m² 4,7 °C -2,5 °C 25,7 km/h (4 Bft)
17.11.2022 15:59 21,4 °C 5,7 °C 55 % 94 % 997,3 hPa 0,0 l/m² 19,5 km/h (3 Bft) O 79 ° 0 min 0 W/m² 4,8 °C -2,1 °C 29,0 km/h (5 Bft)
17.11.2022 16:01 21,4 °C 5,6 °C 55 % 94 % 997,3 hPa 0,2 l/m² 19,6 km/h (3 Bft) O-NO 72 ° 0 min 0 W/m² 4,7 °C -2,2 °C 25,7 km/h (4 Bft)
17.11.2022 16:02 21,4 °C 5,7 °C 55 % 94 % 997,3 hPa 0,0 l/m² 15,8 km/h (3 Bft) O-NO 78 ° 0 min 0 W/m² 4,8 °C -0,5 °C 22,5 km/h (4 Bft)
17.11.2022 16:03 21,4 °C 5,7 °C 55 % 94 % 997,2 hPa 0,0 l/m² 14,3 km/h (3 Bft) O 81 ° 0 min 0 W/m² 4,8 °C 0,3 °C 17,7 km/h (3 Bft)
17.11.2022 16:05 21,4 °C 5,7 °C 55 % 94 % 997,3 hPa 0,0 l/m² 15,5 km/h (3 Bft) O-NO 70 ° 0 min 0 W/m² 4,8 °C -0,3 °C 25,7 km/h (4 Bft)
17.11.2022 16:07 21,4 °C 5,7 °C 55 % 94 % 997,3 hPa 0,0 l/m² 15,6 km/h (3 Bft) O-NO 78 ° 0 min 0 W/m² 4,8 °C -0,4 °C 22,5 km/h (4 Bft)
17.11.2022 16:09 21,4 °C 5,7 °C 55 % 94 % 997,3 hPa 0,0 l/m² 20,9 km/h (4 Bft) O 91 ° 0 min 0 W/m² 4,8 °C -2,6 °C 30,6 km/h (5 Bft)
17.11.2022 16:11 21,4 °C 5,6 °C 55 % 94 % 997,3 hPa 0,0 l/m² 19,4 km/h (3 Bft) O-NO 57 ° 0 min 0 W/m² 4,7 °C -2,2 °C 25,7 km/h (4 Bft)
17.11.2022 16:12 21,4 °C 5,6 °C 55 % 94 % 997,3 hPa 0,0 l/m² 17,6 km/h (3 Bft) O 80 ° 0 min 0 W/m² 4,7 °C -1,4 °C 24,1 km/h (4 Bft)
17.11.2022 16:13 21,4 °C 5,6 °C 55 % 94 % 997,3 hPa 0,2 l/m² 20,2 km/h (4 Bft) O-NO 60 ° 0 min 0 W/m² 4,7 °C -2,5 °C 24,1 km/h (4 Bft)
17.11.2022 16:15 21,4 °C 5,7 °C 55 % 94 % 997,3 hPa 0,0 l/m² 19,6 km/h (3 Bft) O-NO 58 ° 0 min 0 W/m² 4,8 °C -2,1 °C 27,4 km/h (5 Bft)
17.11.2022 16:17 21,4 °C 5,6 °C 55 % 94 % 997,3 hPa 0,0 l/m² 18,4 km/h (3 Bft) O 79 ° 0 min 0 W/m² 4,7 °C -1,8 °C 24,1 km/h (4 Bft)
17.11.2022 16:19 21,4 °C 5,6 °C 55 % 94 % 997,3 hPa 0,0 l/m² 19,8 km/h (3 Bft) O-NO 58 ° 0 min 0 W/m² 4,7 °C -2,3 °C 25,7 km/h (4 Bft)
17.11.2022 16:21 21,4 °C 5,6 °C 55 % 94 % 997,3 hPa 0,0 l/m² 14,1 km/h (3 Bft) O-NO 74 ° 0 min 0 W/m² 4,7 °C 0,3 °C 20,9 km/h (4 Bft)
17.11.2022 16:22 21,4 °C 5,6 °C 55 % 94 % 997,3 hPa 0,0 l/m² 12,5 km/h (2 Bft) O 82 ° 0 min 0 W/m² 4,7 °C 1,2 °C 16,1 km/h (3 Bft)
17.11.2022 16:23 21,4 °C 5,6 °C 55 % 94 % 997,4 hPa 0,0 l/m² 18,1 km/h (3 Bft) O 94 ° 0 min 0 W/m² 4,7 °C -1,6 °C 29,0 km/h (5 Bft)
17.11.2022 16:24 21,4 °C 5,6 °C 55 % 94 % 997,3 hPa 0,0 l/m² 20,1 km/h (4 Bft) O 87 ° 0 min 0 W/m² 4,7 °C -2,4 °C 24,1 km/h (4 Bft)
17.11.2022 16:26 21,4 °C 5,6 °C 55 % 94 % 997,3 hPa 0,0 l/m² 14,4 km/h (3 Bft) O-NO 57 ° 0 min 0 W/m² 4,7 °C 0,1 °C 19,3 km/h (3 Bft)
17.11.2022 16:28 21,4 °C 5,6 °C 55 % 94 % 997,3 hPa 0,0 l/m² 15,0 km/h (3 Bft) O-NO 71 ° 0 min 0 W/m² 4,7 °C -0,2 °C 20,9 km/h (4 Bft)
17.11.2022 16:30 21,4 °C 5,6 °C 55 % 94 % 997,4 hPa 0,0 l/m² 19,3 km/h (3 Bft) O 93 ° 0 min 0 W/m² 4,7 °C -2,1 °C 25,7 km/h (4 Bft)
17.11.2022 16:32 21,4 °C 5,6 °C 55 % 94 % 997,4 hPa 0,0 l/m² 22,4 km/h (4 Bft) O 88 ° 0 min 0 W/m² 4,7 °C -3,3 °C 30,6 km/h (5 Bft)
17.11.2022 16:33 21,4 °C 5,6 °C 55 % 94 % 997,4 hPa 0,0 l/m² 18,0 km/h (3 Bft) O-NO 76 ° 0 min 0 W/m² 4,7 °C -1,6 °C 22,5 km/h (4 Bft)
17.11.2022 16:34 21,4 °C 5,6 °C 55 % 94 % 997,5 hPa 0,0 l/m² 20,3 km/h (4 Bft) O 98 ° 0 min 0 W/m² 4,7 °C -2,5 °C 29,0 km/h (5 Bft)
17.11.2022 16:36 21,4 °C 5,6 °C 55 % 94 % 997,5 hPa 0,0 l/m² 17,6 km/h (3 Bft) O-NO 77 ° 0 min 0 W/m² 4,7 °C -1,4 °C 30,6 km/h (5 Bft)
17.11.2022 16:38 21,4 °C 5,6 °C 55 % 94 % 997,5 hPa 0,0 l/m² 18,6 km/h (3 Bft) O-NO 71 ° 0 min 0 W/m² 4,7 °C -1,8 °C 27,4 km/h (5 Bft)
17.11.2022 16:40 21,4 °C 5,6 °C 55 % 95 % 997,4 hPa 0,0 l/m² 17,4 km/h (3 Bft) O-NO 77 ° 0 min 0 W/m² 4,9 °C -1,3 °C 32,2 km/h (5 Bft)
17.11.2022 16:42 21,4 °C 5,6 °C 55 % 95 % 997,3 hPa 0,0 l/m² 17,4 km/h (3 Bft) O-NO 77 ° 0 min 0 W/m² 4,9 °C -1,3 °C 25,7 km/h (4 Bft)
17.11.2022 16:43 21,4 °C 5,6 °C 55 % 95 % 997,3 hPa 0,0 l/m² 18,3 km/h (3 Bft) O-NO 69 ° 0 min 0 W/m² 4,9 °C -1,7 °C 22,5 km/h (4 Bft)
17.11.2022 16:44 21,4 °C 5,6 °C 55 % 95 % 997,4 hPa 0,0 l/m² 17,6 km/h (3 Bft) O 82 ° 0 min 0 W/m² 4,9 °C -1,4 °C 20,9 km/h (4 Bft)
17.11.2022 16:46 21,4 °C 5,6 °C 55 % 95 % 997,4 hPa 0,0 l/m² 20,3 km/h (4 Bft) O-NO 71 ° 0 min 0 W/m² 4,9 °C -2,5 °C 30,6 km/h (5 Bft)
17.11.2022 16:48 21,4 °C 5,6 °C 55 % 95 % 997,4 hPa 0,0 l/m² 21,9 km/h (4 Bft) O 82 ° 0 min 0 W/m² 4,9 °C -3,1 °C 27,4 km/h (5 Bft)
17.11.2022 16:50 21,4 °C 5,6 °C 55 % 95 % 997,4 hPa 0,0 l/m² 20,6 km/h (4 Bft) O-NO 72 ° 0 min 0 W/m² 4,9 °C -2,6 °C 29,0 km/h (5 Bft)
17.11.2022 16:52 21,4 °C 5,6 °C 55 % 95 % 997,5 hPa 0,0 l/m² 19,7 km/h (3 Bft) O 86 ° 0 min 0 W/m² 4,9 °C -2,3 °C 29,0 km/h (5 Bft)
17.11.2022 16:53 21,4 °C 5,6 °C 55 % 95 % 997,5 hPa 0,0 l/m² 15,8 km/h (3 Bft) O 84 ° 0 min 0 W/m² 4,9 °C -0,6 °C 22,5 km/h (4 Bft)
17.11.2022 16:54 21,4 °C 5,6 °C 55 % 95 % 997,5 hPa 0,0 l/m² 16,1 km/h (3 Bft) O 82 ° 0 min 0 W/m² 4,9 °C -0,7 °C 19,3 km/h (3 Bft)
17.11.2022 16:56 21,4 °C 5,6 °C 55 % 95 % 997,5 hPa 0,0 l/m² 17,0 km/h (3 Bft) O-NO 73 ° 0 min 0 W/m² 4,9 °C -1,1 °C 29,0 km/h (5 Bft)
17.11.2022 16:58 21,4 °C 5,6 °C 55 % 95 % 997,5 hPa 0,0 l/m² 16,6 km/h (3 Bft) O 88 ° 0 min 0 W/m² 4,9 °C -1,0 °C 27,4 km/h (5 Bft)
17.11.2022 16:59 21,4 °C 5,6 °C 55 % 95 % 997,4 hPa 0,0 l/m² 19,3 km/h (3 Bft) O 90 ° 0 min 0 W/m² 4,9 °C -2,1 °C 24,1 km/h (4 Bft)
17.11.2022 17:00 21,4 °C 5,7 °C 55 % 94 % 997,4 hPa 0,0 l/m² 19,3 km/h (3 Bft) O 90 ° 0 min 0 W/m² 4,8 °C -2,0 °C 24,1 km/h (4 Bft)
17.11.2022 17:01 21,4 °C 5,7 °C 55 % 94 % 997,5 hPa 0,0 l/m² 14,5 km/h (3 Bft) O-NO 67 ° 0 min 0 W/m² 4,8 °C 0,2 °C 22,5 km/h (4 Bft)
17.11.2022 17:02 21,4 °C 5,7 °C 55 % 95 % 997,4 hPa 0,0 l/m² 17,7 km/h (3 Bft) O-NO 67 ° 0 min 0 W/m² 5,0 °C -1,3 °C 27,4 km/h (5 Bft)
17.11.2022 17:10 21,4 °C 5,6 °C 55 % 95 % 997,4 hPa 0,0 l/m² 14,2 km/h (3 Bft) O 90 ° 0 min 0 W/m² 4,9 °C 0,2 °C 22,5 km/h (4 Bft)
17.11.2022 17:11 21,4 °C 5,7 °C 55 % 94 % 997,4 hPa 0,0 l/m² 11,7 km/h (2 Bft) O-NO 69 ° 0 min 0 W/m² 4,8 °C 1,7 °C 17,7 km/h (3 Bft)
17.11.2022 17:12 21,4 °C 5,7 °C 55 % 95 % 997,4 hPa 0,0 l/m² 18,1 km/h (3 Bft) O 92 ° 0 min 0 W/m² 5,0 °C -1,5 °C 25,7 km/h (4 Bft)
17.11.2022 17:13 21,4 °C 5,7 °C 55 % 95 % 997,5 hPa 0,0 l/m² 22,8 km/h (4 Bft) O-NO 74 ° 0 min 0 W/m² 5,0 °C -3,3 °C 25,7 km/h (4 Bft)
17.11.2022 17:14 21,4 °C 5,7 °C 55 % 95 % 997,5 hPa 0,0 l/m² 15,9 km/h (3 Bft) O 82 ° 0 min 0 W/m² 5,0 °C -0,5 °C 20,9 km/h (4 Bft)
17.11.2022 17:16 21,4 °C 5,7 °C 55 % 95 % 997,4 hPa 0,0 l/m² 16,4 km/h (3 Bft) O-NO 63 ° 0 min 0 W/m² 5,0 °C -0,7 °C 25,7 km/h (4 Bft)
17.11.2022 17:18 21,4 °C 5,7 °C 55 % 95 % 997,5 hPa 0,0 l/m² 18,8 km/h (3 Bft) O-NO 57 ° 0 min 0 W/m² 5,0 °C -1,8 °C 27,4 km/h (5 Bft)
17.11.2022 17:20 21,4 °C 5,7 °C 55 % 95 % 997,5 hPa 0,0 l/m² 16,0 km/h (3 Bft) O-NO 65 ° 0 min 0 W/m² 5,0 °C -0,6 °C 22,5 km/h (4 Bft)
17.11.2022 17:21 21,4 °C 5,7 °C 55 % 95 % 997,5 hPa 0,0 l/m² 17,9 km/h (3 Bft) O-NO 64 ° 0 min 0 W/m² 5,0 °C -1,4 °C 24,1 km/h (4 Bft)
17.11.2022 17:22 21,4 °C 5,7 °C 55 % 95 % 997,5 hPa 0,0 l/m² 16,3 km/h (3 Bft) O-NO 63 ° 0 min 0 W/m² 5,0 °C -0,7 °C 20,9 km/h (4 Bft)
17.11.2022 17:24 21,4 °C 5,7 °C 55 % 95 % 997,6 hPa 0,0 l/m² 18,2 km/h (3 Bft) O 86 ° 0 min 0 W/m² 5,0 °C -1,5 °C 27,4 km/h (5 Bft)
17.11.2022 17:25 21,4 °C 5,7 °C 55 % 95 % 997,6 hPa 0,0 l/m² 14,2 km/h (3 Bft) O-NO 60 ° 0 min 0 W/m² 5,0 °C 0,3 °C 20,9 km/h (4 Bft)
17.11.2022 17:27 21,4 °C 5,7 °C 55 % 95 % 997,6 hPa 0,0 l/m² 12,4 km/h (2 Bft) O 83 ° 0 min 0 W/m² 5,0 °C 1,3 °C 19,3 km/h (3 Bft)
17.11.2022 17:29 21,4 °C 5,7 °C 55 % 95 % 997,6 hPa 0,0 l/m² 11,5 km/h (2 Bft) O-NO 58 ° 0 min 0 W/m² 5,0 °C 1,9 °C 19,3 km/h (3 Bft)
17.11.2022 17:30 21,4 °C 5,7 °C 55 % 95 % 997,6 hPa 0,0 l/m² 14,1 km/h (3 Bft) O-NO 75 ° 0 min 0 W/m² 5,0 °C 0,4 °C 20,9 km/h (4 Bft)
17.11.2022 17:31 21,4 °C 5,7 °C 55 % 95 % 997,7 hPa 0,0 l/m² 11,5 km/h (2 Bft) O 84 ° 0 min 0 W/m² 5,0 °C 1,9 °C 14,5 km/h (3 Bft)
17.11.2022 17:32 21,4 °C 5,7 °C 55 % 95 % 997,7 hPa 0,0 l/m² 9,8 km/h (2 Bft) O 85 ° 0 min 0 W/m² 5,0 °C 3,0 °C 12,9 km/h (3 Bft)
17.11.2022 17:33 21,4 °C 5,8 °C 55 % 95 % 997,7 hPa 0,0 l/m² 8,8 km/h (2 Bft) O-NO 67 ° 0 min 0 W/m² 5,1 °C 3,8 °C 16,1 km/h (3 Bft)
17.11.2022 17:34 21,4 °C 5,8 °C 55 % 95 % 997,6 hPa 0,0 l/m² 3,0 km/h (1 Bft) O-NO 71 ° 0 min 0 W/m² 5,1 °C 5,8 °C 8,0 km/h (2 Bft)
17.11.2022 17:36 21,4 °C 5,8 °C 55 % 95 % 997,7 hPa 0,0 l/m² 8,7 km/h (2 Bft) O 96 ° 0 min 0 W/m² 5,1 °C 3,9 °C 14,5 km/h (3 Bft)
17.11.2022 17:38 21,4 °C 5,8 °C 55 % 95 % 997,7 hPa 0,0 l/m² 8,6 km/h (2 Bft) O-SO 117 ° 0 min 0 W/m² 5,1 °C 4,0 °C 17,7 km/h (3 Bft)
17.11.2022 17:40 21,4 °C 5,8 °C 55 % 95 % 997,8 hPa 0,0 l/m² 1,9 km/h (1 Bft) O 94 ° 0 min 0 W/m² 5,1 °C 5,8 °C 4,8 km/h (1 Bft)
17.11.2022 17:41 21,5 °C 5,8 °C 56 % 95 % 997,8 hPa 0,0 l/m² 2,4 km/h (1 Bft) O-SO 111 ° 0 min 0 W/m² 5,1 °C 5,8 °C 4,8 km/h (1 Bft)
17.11.2022 17:42 21,4 °C 5,8 °C 56 % 95 % 997,8 hPa 0,0 l/m² 2,3 km/h (1 Bft) O-SO 111 ° 0 min 0 W/m² 5,1 °C 5,8 °C 3,2 km/h (1 Bft)
17.11.2022 17:43 21,4 °C 5,8 °C 56 % 95 % 997,8 hPa 0,0 l/m² 2,2 km/h (1 Bft) SO 146 ° 0 min 0 W/m² 5,1 °C 5,8 °C 4,8 km/h (1 Bft)
17.11.2022 17:44 21,4 °C 5,8 °C 56 % 95 % 997,8 hPa 0,0 l/m² 4,5 km/h (1 Bft) SO 134 ° 0 min 0 W/m² 5,1 °C 5,8 °C 8,0 km/h (2 Bft)
17.11.2022 17:46 21,5 °C 5,8 °C 56 % 95 % 997,8 hPa 0,0 l/m² 4,0 km/h (1 Bft) S-SW 201 ° 0 min 0 W/m² 5,1 °C 5,8 °C 8,0 km/h (2 Bft)
17.11.2022 17:48 21,5 °C 5,8 °C 54 % 95 % 997,8 hPa 0,0 l/m² 1,8 km/h (1 Bft) S-SW 202 ° 0 min 0 W/m² 5,1 °C 5,8 °C 4,8 km/h (1 Bft)
17.11.2022 17:50 21,4 °C 5,8 °C 53 % 95 % 997,8 hPa 0,0 l/m² 4,3 km/h (1 Bft) O-NO 75 ° 0 min 0 W/m² 5,1 °C 5,8 °C 8,0 km/h (2 Bft)
17.11.2022 17:51 21,4 °C 5,8 °C 52 % 95 % 997,8 hPa 0,0 l/m² 9,5 km/h (2 Bft) O 80 ° 0 min 0 W/m² 5,1 °C 3,3 °C 12,9 km/h (3 Bft)
17.11.2022 17:52 21,4 °C 5,8 °C 52 % 95 % 997,7 hPa 0,0 l/m² 7,4 km/h (2 Bft) O 87 ° 0 min 0 W/m² 5,1 °C 4,9 °C 11,3 km/h (2 Bft)
17.11.2022 17:54 21,4 °C 5,8 °C 53 % 95 % 997,7 hPa 0,0 l/m² 13,1 km/h (3 Bft) O 85 ° 0 min 0 W/m² 5,1 °C 1,0 °C 16,1 km/h (3 Bft)
17.11.2022 17:55 21,4 °C 5,8 °C 53 % 95 % 997,8 hPa 0,0 l/m² 12,1 km/h (2 Bft) O 92 ° 0 min 0 W/m² 5,1 °C 1,6 °C 12,9 km/h (3 Bft)
17.11.2022 17:57 21,4 °C 5,8 °C 53 % 95 % 997,7 hPa 0,0 l/m² 13,7 km/h (3 Bft) O 81 ° 0 min 0 W/m² 5,1 °C 0,7 °C 16,1 km/h (3 Bft)
17.11.2022 17:59 21,4 °C 5,8 °C 53 % 95 % 997,7 hPa 0,0 l/m² 12,8 km/h (3 Bft) O 83 ° 0 min 0 W/m² 5,1 °C 1,2 °C 17,7 km/h (3 Bft)
17.11.2022 18:00 21,3 °C 5,8 °C 53 % 95 % 997,8 hPa 0,0 l/m² 9,6 km/h (2 Bft) O-NO 78 ° 0 min 0 W/m² 5,1 °C 3,2 °C 14,5 km/h (3 Bft)
17.11.2022 18:01 21,4 °C 5,8 °C 53 % 95 % 997,7 hPa 0,0 l/m² 11,5 km/h (2 Bft) O 88 ° 0 min 0 W/m² 5,1 °C 2,0 °C 16,1 km/h (3 Bft)
17.11.2022 18:02 21,4 °C 5,8 °C 53 % 95 % 997,7 hPa 0,0 l/m² 12,0 km/h (2 Bft) O-NO 65 ° 0 min 0 W/m² 5,1 °C 1,7 °C 16,1 km/h (3 Bft)
17.11.2022 18:04 21,3 °C 5,8 °C 53 % 95 % 997,7 hPa 0,0 l/m² 14,5 km/h (3 Bft) O 91 ° 0 min 0 W/m² 5,1 °C 0,3 °C 17,7 km/h (3 Bft)
17.11.2022 18:05 21,3 °C 5,8 °C 54 % 95 % 997,7 hPa 0,0 l/m² 9,9 km/h (2 Bft) O-NO 74 ° 0 min 0 W/m² 5,1 °C 3,0 °C 14,5 km/h (3 Bft)
17.11.2022 18:07 21,3 °C 5,8 °C 53 % 95 % 997,7 hPa 0,0 l/m² 12,3 km/h (2 Bft) O 88 ° 0 min 0 W/m² 5,1 °C 1,5 °C 17,7 km/h (3 Bft)
17.11.2022 18:09 21,3 °C 5,8 °C 54 % 95 % 997,7 hPa 0,0 l/m² 11,9 km/h (2 Bft) O-NO 61 ° 0 min 0 W/m² 5,1 °C 1,7 °C 16,1 km/h (3 Bft)
17.11.2022 18:10 21,3 °C 5,8 °C 54 % 95 % 997,7 hPa 0,0 l/m² 8,0 km/h (2 Bft) O-NO 69 ° 0 min 0 W/m² 5,1 °C 4,4 °C 12,9 km/h (3 Bft)
17.11.2022 18:11 21,3 °C 5,8 °C 54 % 95 % 997,7 hPa 0,0 l/m² 7,4 km/h (2 Bft) O 79 ° 0 min 0 W/m² 5,1 °C 4,9 °C 11,3 km/h (2 Bft)
17.11.2022 18:12 21,3 °C 5,8 °C 54 % 95 % 997,7 hPa 0,0 l/m² 9,9 km/h (2 Bft) O-NO 77 ° 0 min 0 W/m² 5,1 °C 3,0 °C 12,9 km/h (3 Bft)
17.11.2022 18:14 21,3 °C 5,8 °C 54 % 95 % 997,7 hPa 0,0 l/m² 11,7 km/h (2 Bft) O 80 ° 0 min 0 W/m² 5,1 °C 1,9 °C 17,7 km/h (3 Bft)
17.11.2022 18:16 21,3 °C 5,8 °C 54 % 95 % 997,7 hPa 0,0 l/m² 12,7 km/h (3 Bft) O-NO 67 ° 0 min 0 W/m² 5,1 °C 1,3 °C 17,7 km/h (3 Bft)
17.11.2022 18:18 21,4 °C 5,8 °C 54 % 95 % 997,8 hPa 0,0 l/m² 11,6 km/h (2 Bft) O-NO 75 ° 0 min 0 W/m² 5,1 °C 1,9 °C 19,3 km/h (3 Bft)
17.11.2022 18:20 21,3 °C 5,8 °C 54 % 95 % 997,7 hPa 0,0 l/m² 16,6 km/h (3 Bft) O-NO 78 ° 0 min 0 W/m² 5,1 °C -0,7 °C 20,9 km/h (4 Bft)
17.11.2022 18:21 21,3 °C 5,8 °C 54 % 95 % 997,7 hPa 0,0 l/m² 16,0 km/h (3 Bft) O 86 ° 0 min 0 W/m² 5,1 °C -0,4 °C 19,3 km/h (3 Bft)
17.11.2022 18:22 21,4 °C 5,8 °C 54 % 95 % 997,7 hPa 0,0 l/m² 13,7 km/h (3 Bft) O 82 ° 0 min 0 W/m² 5,1 °C 0,7 °C 16,1 km/h (3 Bft)
17.11.2022 18:23 21,3 °C 5,8 °C 54 % 95 % 997,8 hPa 0,0 l/m² 14,7 km/h (3 Bft) O-NO 69 ° 0 min 0 W/m² 5,1 °C 0,2 °C 20,9 km/h (4 Bft)
17.11.2022 18:25 21,3 °C 5,8 °C 55 % 95 % 997,7 hPa 0,0 l/m² 10,6 km/h (2 Bft) O-NO 68 ° 0 min 0 W/m² 5,1 °C 2,6 °C 17,7 km/h (3 Bft)
17.11.2022 18:27 21,3 °C 5,8 °C 55 % 95 % 997,7 hPa 0,0 l/m² 11,3 km/h (2 Bft) O 80 ° 0 min 0 W/m² 5,1 °C 2,1 °C 17,7 km/h (3 Bft)
17.11.2022 18:29 21,3 °C 5,8 °C 55 % 95 % 997,7 hPa 0,0 l/m² 10,6 km/h (2 Bft) O 79 ° 0 min 0 W/m² 5,1 °C 2,6 °C 17,7 km/h (3 Bft)
17.11.2022 18:30 21,4 °C 5,8 °C 55 % 95 % 997,8 hPa 0,0 l/m² 7,6 km/h (2 Bft) O-NO 59 ° 0 min 0 W/m² 5,1 °C 4,8 °C 11,3 km/h (2 Bft)
17.11.2022 18:31 21,4 °C 5,8 °C 55 % 95 % 997,8 hPa 0,0 l/m² 14,1 km/h (3 Bft) O-NO 69 ° 0 min 0 W/m² 5,1 °C 0,5 °C 17,7 km/h (3 Bft)
17.11.2022 18:32 21,3 °C 5,8 °C 55 % 95 % 997,8 hPa 0,0 l/m² 13,5 km/h (3 Bft) O 80 ° 0 min 0 W/m² 5,1 °C 0,8 °C 17,7 km/h (3 Bft)
17.11.2022 18:34 21,4 °C 5,8 °C 55 % 95 % 997,7 hPa 0,0 l/m² 11,2 km/h (2 Bft) O-NO 61 ° 0 min 0 W/m² 5,1 °C 2,2 °C 17,7 km/h (3 Bft)
17.11.2022 18:36 21,4 °C 5,8 °C 55 % 95 % 997,8 hPa 0,0 l/m² 11,9 km/h (2 Bft) O 85 ° 0 min 0 W/m² 5,1 °C 1,7 °C 17,7 km/h (3 Bft)
17.11.2022 18:38 21,4 °C 5,8 °C 55 % 95 % 997,7 hPa 0,0 l/m² 13,4 km/h (3 Bft) O-NO 62 ° 0 min 0 W/m² 5,1 °C 0,9 °C 17,7 km/h (3 Bft)
17.11.2022 18:40 21,3 °C 5,8 °C 55 % 95 % 997,7 hPa 0,0 l/m² 12,6 km/h (3 Bft) O-NO 76 ° 0 min 0 W/m² 5,1 °C 1,3 °C 17,7 km/h (3 Bft)
17.11.2022 18:41 21,4 °C 5,8 °C 55 % 95 % 997,7 hPa 0,0 l/m² 15,4 km/h (3 Bft) O 88 ° 0 min 0 W/m² 5,1 °C -0,2 °C 17,7 km/h (3 Bft)
17.11.2022 18:42 21,4 °C 5,8 °C 55 % 95 % 997,7 hPa 0,0 l/m² 14,8 km/h (3 Bft) O-NO 77 ° 0 min 0 W/m² 5,1 °C 0,1 °C 17,7 km/h (3 Bft)
17.11.2022 18:43 21,4 °C 5,7 °C 55 % 95 % 997,7 hPa 0,0 l/m² 15,6 km/h (3 Bft) O-NO 62 ° 0 min 0 W/m² 5,0 °C -0,4 °C 19,3 km/h (3 Bft)
17.11.2022 18:45 21,3 °C 5,7 °C 55 % 95 % 997,8 hPa 0,0 l/m² 10,8 km/h (2 Bft) O 85 ° 0 min 0 W/m² 5,0 °C 2,3 °C 16,1 km/h (3 Bft)
17.11.2022 18:46 21,4 °C 5,7 °C 55 % 95 % 997,8 hPa 0,0 l/m² 14,5 km/h (3 Bft) O 81 ° 0 min 0 W/m² 5,0 °C 0,2 °C 14,5 km/h (3 Bft)
17.11.2022 18:47 21,4 °C 5,7 °C 55 % 95 % 997,8 hPa 0,0 l/m² 11,0 km/h (2 Bft) O-NO 69 ° 0 min 0 W/m² 5,0 °C 2,2 °C 16,1 km/h (3 Bft)
17.11.2022 18:48 21,4 °C 5,7 °C 55 % 95 % 997,8 hPa 0,0 l/m² 12,1 km/h (2 Bft) O-NO 65 ° 0 min 0 W/m² 5,0 °C 1,5 °C 19,3 km/h (3 Bft)
17.11.2022 18:50 21,4 °C 5,7 °C 55 % 95 % 997,8 hPa 0,0 l/m² 12,2 km/h (2 Bft) O-NO 61 ° 0 min 0 W/m² 5,0 °C 1,4 °C 17,7 km/h (3 Bft)
17.11.2022 18:51 21,3 °C 5,7 °C 55 % 95 % 997,8 hPa 0,0 l/m² 10,8 km/h (2 Bft) O-NO 60 ° 0 min 0 W/m² 5,0 °C 2,3 °C 16,1 km/h (3 Bft)
17.11.2022 18:52 21,3 °C 5,7 °C 55 % 95 % 997,9 hPa 0,0 l/m² 10,0 km/h (2 Bft) O-NO 70 ° 0 min 0 W/m² 5,0 °C 2,8 °C 14,5 km/h (3 Bft)
17.11.2022 18:53 21,3 °C 5,8 °C 55 % 95 % 997,9 hPa 0,0 l/m² 12,2 km/h (2 Bft) O-NO 76 ° 0 min 0 W/m² 5,1 °C 1,6 °C 17,7 km/h (3 Bft)
17.11.2022 18:55 21,4 °C 5,7 °C 55 % 95 % 997,9 hPa 0,0 l/m² 13,9 km/h (3 Bft) O-NO 71 ° 0 min 0 W/m² 5,0 °C 0,5 °C 19,3 km/h (3 Bft)
17.11.2022 18:57 21,3 °C 5,7 °C 55 % 95 % 998,0 hPa 0,0 l/m² 11,7 km/h (2 Bft) O-NO 75 ° 0 min 0 W/m² 5,0 °C 1,7 °C 16,1 km/h (3 Bft)
17.11.2022 18:58 21,4 °C 5,7 °C 55 % 95 % 997,9 hPa 0,0 l/m² 13,5 km/h (3 Bft) O 82 ° 0 min 0 W/m² 5,0 °C 0,7 °C 19,3 km/h (3 Bft)
17.11.2022 18:59 21,4 °C 5,8 °C 55 % 95 % 997,9 hPa 0,0 l/m² 9,1 km/h (2 Bft) O-NO 77 ° 0 min 0 W/m² 5,1 °C 3,6 °C 14,5 km/h (3 Bft)
17.11.2022 19:01 21,4 °C 5,7 °C 55 % 95 % 997,9 hPa 0,0 l/m² 11,8 km/h (2 Bft) O-NO 77 ° 0 min 0 W/m² 5,0 °C 1,7 °C 16,1 km/h (3 Bft)
17.11.2022 19:03 21,3 °C 5,8 °C 55 % 95 % 998,0 hPa 0,0 l/m² 13,2 km/h (3 Bft) O 84 ° 0 min 0 W/m² 5,1 °C 1,0 °C 19,3 km/h (3 Bft)
17.11.2022 19:04 21,3 °C 5,8 °C 55 % 95 % 998,0 hPa 0,0 l/m² 14,2 km/h (3 Bft) O 80 ° 0 min 0 W/m² 5,1 °C 0,5 °C 19,3 km/h (3 Bft)
17.11.2022 19:06 21,4 °C 5,8 °C 55 % 95 % 998,0 hPa 0,0 l/m² 8,9 km/h (2 Bft) O 80 ° 0 min 0 W/m² 5,1 °C 3,7 °C 14,5 km/h (3 Bft)
17.11.2022 19:08 21,3 °C 5,7 °C 55 % 95 % 998,0 hPa 0,0 l/m² 10,8 km/h (2 Bft) O 84 ° 0 min 0 W/m² 5,0 °C 2,3 °C 17,7 km/h (3 Bft)
17.11.2022 19:10 21,4 °C 5,8 °C 55 % 95 % 998,0 hPa 0,0 l/m² 13,8 km/h (3 Bft) O-NO 73 ° 0 min 0 W/m² 5,1 °C 0,7 °C 19,3 km/h (3 Bft)
17.11.2022 19:11 21,3 °C 5,8 °C 56 % 95 % 998,0 hPa 0,0 l/m² 15,0 km/h (3 Bft) O-NO 73 ° 0 min 0 W/m² 5,1 °C 0,0 °C 20,9 km/h (4 Bft)
17.11.2022 19:12 21,4 °C 5,8 °C 55 % 95 % 998,0 hPa 0,0 l/m² 10,1 km/h (2 Bft) O 80 ° 0 min 0 W/m² 5,1 °C 2,9 °C 14,5 km/h (3 Bft)
17.11.2022 19:13 21,3 °C 5,8 °C 56 % 95 % 998,0 hPa 0,0 l/m² 9,3 km/h (2 Bft) O 79 ° 0 min 0 W/m² 5,1 °C 3,4 °C 14,5 km/h (3 Bft)
17.11.2022 19:15 21,4 °C 5,8 °C 56 % 95 % 998,0 hPa 0,0 l/m² 12,9 km/h (3 Bft) O-NO 59 ° 0 min 0 W/m² 5,1 °C 1,2 °C 17,7 km/h (3 Bft)
17.11.2022 19:17 21,4 °C 5,8 °C 56 % 95 % 997,9 hPa 0,0 l/m² 12,8 km/h (3 Bft) O-NO 65 ° 0 min 0 W/m² 5,1 °C 1,2 °C 19,3 km/h (3 Bft)
17.11.2022 19:19 21,4 °C 5,8 °C 56 % 95 % 998,0 hPa 0,0 l/m² 9,8 km/h (2 Bft) O-NO 61 ° 0 min 0 W/m² 5,1 °C 3,1 °C 16,1 km/h (3 Bft)
17.11.2022 19:20 21,4 °C 5,8 °C 56 % 95 % 998,0 hPa 0,0 l/m² 9,8 km/h (2 Bft) O-NO 68 ° 0 min 0 W/m² 5,1 °C 3,1 °C 14,5 km/h (3 Bft)
17.11.2022 19:21 21,4 °C 5,7 °C 56 % 95 % 998,0 hPa 0,0 l/m² 10,5 km/h (2 Bft) O 80 ° 0 min 0 W/m² 5,0 °C 2,5 °C 14,5 km/h (3 Bft)
17.11.2022 19:22 21,4 °C 5,7 °C 56 % 95 % 997,9 hPa 0,0 l/m² 11,7 km/h (2 Bft) O-NO 57 ° 0 min 0 W/m² 5,0 °C 1,7 °C 16,1 km/h (3 Bft)
17.11.2022 19:24 21,4 °C 5,7 °C 56 % 95 % 997,9 hPa 0,0 l/m² 12,9 km/h (3 Bft) O-NO 77 ° 0 min 0 W/m² 5,0 °C 1,0 °C 17,7 km/h (3 Bft)
17.11.2022 19:26 21,4 °C 5,7 °C 56 % 95 % 998,0 hPa 0,0 l/m² 14,8 km/h (3 Bft) O 96 ° 0 min 0 W/m² 5,0 °C 0,0 °C 19,3 km/h (3 Bft)
17.11.2022 19:28 21,4 °C 5,7 °C 56 % 95 % 998,0 hPa 0,0 l/m² 14,0 km/h (3 Bft) O 88 ° 0 min 0 W/m² 5,0 °C 0,4 °C 19,3 km/h (3 Bft)
17.11.2022 19:30 21,4 °C 5,7 °C 56 % 95 % 998,0 hPa 0,0 l/m² 10,6 km/h (2 Bft) O-NO 74 ° 0 min 0 W/m² 5,0 °C 2,4 °C 17,7 km/h (3 Bft)
17.11.2022 19:31 21,4 °C 5,7 °C 56 % 95 % 997,9 hPa 0,0 l/m² 7,7 km/h (2 Bft) O 88 ° 0 min 0 W/m² 5,0 °C 4,6 °C 14,5 km/h (3 Bft)
17.11.2022 19:32 21,4 °C 5,7 °C 56 % 95 % 998,0 hPa 0,0 l/m² 13,6 km/h (3 Bft) O-NO 74 ° 0 min 0 W/m² 5,0 °C 0,7 °C 16,1 km/h (3 Bft)
17.11.2022 19:33 21,4 °C 5,7 °C 56 % 95 % 998,0 hPa 0,0 l/m² 10,7 km/h (2 Bft) NO 54 ° 0 min 0 W/m² 5,0 °C 2,4 °C 16,1 km/h (3 Bft)
17.11.2022 19:35 21,4 °C 5,7 °C 56 % 95 % 998,0 hPa 0,0 l/m² 10,2 km/h (2 Bft) O-NO 78 ° 0 min 0 W/m² 5,0 °C 2,7 °C 19,3 km/h (3 Bft)
17.11.2022 19:37 21,4 °C 5,7 °C 56 % 95 % 998,0 hPa 0,0 l/m² 8,5 km/h (2 Bft) O 79 ° 0 min 0 W/m² 5,0 °C 3,9 °C 14,5 km/h (3 Bft)
17.11.2022 19:39 21,4 °C 5,7 °C 56 % 95 % 998,0 hPa 0,0 l/m² 9,6 km/h (2 Bft) O 82 ° 0 min 0 W/m² 5,0 °C 3,1 °C 14,5 km/h (3 Bft)
17.11.2022 19:40 21,4 °C 5,7 °C 56 % 95 % 998,0 hPa 0,0 l/m² 9,5 km/h (2 Bft) O 83 ° 0 min 0 W/m² 5,0 °C 3,2 °C 14,5 km/h (3 Bft)
17.11.2022 19:41 21,4 °C 5,7 °C 56 % 95 % 998,1 hPa 0,0 l/m² 12,6 km/h (3 Bft) O-NO 69 ° 0 min 0 W/m² 5,0 °C 1,2 °C 16,1 km/h (3 Bft)
17.11.2022 19:42 21,4 °C 5,7 °C 56 % 95 % 998,0 hPa 0,0 l/m² 12,4 km/h (2 Bft) O-NO 74 ° 0 min 0 W/m² 5,0 °C 1,3 °C 14,5 km/h (3 Bft)
17.11.2022 19:44 21,4 °C 5,7 °C 56 % 95 % 998,0 hPa 0,0 l/m² 11,9 km/h (2 Bft) O-NO 74 ° 0 min 0 W/m² 5,0 °C 1,6 °C 19,3 km/h (3 Bft)
17.11.2022 19:46 21,4 °C 5,7 °C 56 % 95 % 998,0 hPa 0,0 l/m² 9,7 km/h (2 Bft) O-NO 69 ° 0 min 0 W/m² 5,0 °C 3,1 °C 17,7 km/h (3 Bft)
17.11.2022 19:48 21,4 °C 5,7 °C 56 % 95 % 998,1 hPa 0,0 l/m² 13,0 km/h (3 Bft) O-NO 69 ° 0 min 0 W/m² 5,0 °C 1,0 °C 17,7 km/h (3 Bft)
17.11.2022 19:50 21,4 °C 5,6 °C 56 % 95 % 998,1 hPa 0,0 l/m² 9,5 km/h (2 Bft) O-NO 78 ° 0 min 0 W/m² 4,9 °C 3,1 °C 14,5 km/h (3 Bft)
17.11.2022 19:51 21,4 °C 5,7 °C 56 % 95 % 998,1 hPa 0,0 l/m² 8,5 km/h (2 Bft) O 84 ° 0 min 0 W/m² 5,0 °C 3,9 °C 12,9 km/h (3 Bft)
17.11.2022 19:52 21,4 °C 5,7 °C 56 % 95 % 998,0 hPa 0,0 l/m² 11,1 km/h (2 Bft) O-NO 60 ° 0 min 0 W/m² 5,0 °C 2,1 °C 17,7 km/h (3 Bft)
17.11.2022 19:53 21,4 °C 5,6 °C 56 % 95 % 998,0 hPa 0,0 l/m² 10,7 km/h (2 Bft) O-NO 76 ° 0 min 0 W/m² 4,9 °C 2,3 °C 16,1 km/h (3 Bft)
17.11.2022 19:55 21,4 °C 5,6 °C 56 % 95 % 998,0 hPa 0,0 l/m² 8,0 km/h (2 Bft) NO 56 ° 0 min 0 W/m² 4,9 °C 4,2 °C 14,5 km/h (3 Bft)
17.11.2022 19:57 21,4 °C 5,6 °C 56 % 95 % 998,0 hPa 0,0 l/m² 10,6 km/h (2 Bft) O-NO 65 ° 0 min 0 W/m² 4,9 °C 2,3 °C 17,7 km/h (3 Bft)
17.11.2022 19:59 21,4 °C 5,6 °C 56 % 95 % 998,1 hPa 0,0 l/m² 9,2 km/h (2 Bft) O-NO 76 ° 0 min 0 W/m² 4,9 °C 3,3 °C 16,1 km/h (3 Bft)
17.11.2022 20:00 21,4 °C 5,6 °C 56 % 95 % 998,1 hPa 0,0 l/m² 8,6 km/h (2 Bft) O-NO 74 ° 0 min 0 W/m² 4,9 °C 3,8 °C 14,5 km/h (3 Bft)
17.11.2022 20:01 21,4 °C 5,6 °C 56 % 95 % 998,1 hPa 0,0 l/m² 7,0 km/h (2 Bft) O-NO 69 ° 0 min 0 W/m² 4,9 °C 5,1 °C 11,3 km/h (2 Bft)
17.11.2022 20:02 21,4 °C 5,6 °C 56 % 95 % 998,1 hPa 0,0 l/m² 10,3 km/h (2 Bft) O-NO 63 ° 0 min 0 W/m² 4,9 °C 2,5 °C 12,9 km/h (3 Bft)
17.11.2022 20:04 21,4 °C 5,6 °C 56 % 95 % 998,1 hPa 0,0 l/m² 9,1 km/h (2 Bft) O-NO 74 ° 0 min 0 W/m² 4,9 °C 3,4 °C 12,9 km/h (3 Bft)
17.11.2022 20:06 21,4 °C 5,6 °C 56 % 95 % 998,0 hPa 0,0 l/m² 8,6 km/h (2 Bft) O-NO 67 ° 0 min 0 W/m² 4,9 °C 3,8 °C 17,7 km/h (3 Bft)
17.11.2022 20:08 21,4 °C 5,6 °C 56 % 95 % 998,1 hPa 0,0 l/m² 12,2 km/h (2 Bft) NO 55 ° 0 min 0 W/m² 4,9 °C 1,3 °C 19,3 km/h (3 Bft)
17.11.2022 20:10 21,4 °C 5,6 °C 56 % 95 % 998,2 hPa 0,0 l/m² 12,6 km/h (3 Bft) NO 50 ° 0 min 0 W/m² 4,9 °C 1,1 °C 17,7 km/h (3 Bft)
17.11.2022 20:11 21,4 °C 5,6 °C 56 % 95 % 998,2 hPa 0,0 l/m² 9,6 km/h (2 Bft) O-NO 68 ° 0 min 0 W/m² 4,9 °C 3,0 °C 16,1 km/h (3 Bft)
17.11.2022 20:12 21,4 °C 5,6 °C 56 % 95 % 998,2 hPa 0,0 l/m² 6,8 km/h (2 Bft) NO 55 ° 0 min 0 W/m² 4,9 °C 5,3 °C 14,5 km/h (3 Bft)
17.11.2022 20:13 21,4 °C 5,6 °C 56 % 95 % 998,2 hPa 0,0 l/m² 9,7 km/h (2 Bft) O-NO 68 ° 0 min 0 W/m² 4,9 °C 2,9 °C 16,1 km/h (3 Bft)
17.11.2022 20:15 21,4 °C 5,6 °C 56 % 95 % 998,2 hPa 0,0 l/m² 11,1 km/h (2 Bft) O-NO 78 ° 0 min 0 W/m² 4,9 °C 2,0 °C 19,3 km/h (3 Bft)
17.11.2022 20:17 21,4 °C 5,6 °C 56 % 95 % 998,0 hPa 0,0 l/m² 9,4 km/h (2 Bft) O 81 ° 0 min 0 W/m² 4,9 °C 3,2 °C 16,1 km/h (3 Bft)
17.11.2022 20:19 21,4 °C 5,6 °C 56 % 95 % 998,1 hPa 0,0 l/m² 12,5 km/h (2 Bft) O-NO 69 ° 0 min 0 W/m² 4,9 °C 1,2 °C 17,7 km/h (3 Bft)
17.11.2022 20:20 21,4 °C 5,6 °C 56 % 95 % 998,1 hPa 0,0 l/m² 12,4 km/h (2 Bft) NO 40 ° 0 min 0 W/m² 4,9 °C 1,2 °C 17,7 km/h (3 Bft)
17.11.2022 20:21 21,4 °C 5,6 °C 56 % 95 % 998,1 hPa 0,0 l/m² 13,0 km/h (3 Bft) O 87 ° 0 min 0 W/m² 4,9 °C 0,9 °C 17,7 km/h (3 Bft)
17.11.2022 20:22 21,4 °C 5,6 °C 56 % 95 % 998,1 hPa 0,0 l/m² 7,7 km/h (2 Bft) NO 45 ° 0 min 0 W/m² 4,9 °C 4,5 °C 14,5 km/h (3 Bft)
17.11.2022 20:24 21,4 °C 5,6 °C 56 % 95 % 998,1 hPa 0,0 l/m² 9,4 km/h (2 Bft) O-NO 76 ° 0 min 0 W/m² 4,9 °C 3,2 °C 16,1 km/h (3 Bft)
17.11.2022 20:26 21,4 °C 5,6 °C 56 % 95 % 998,2 hPa 0,0 l/m² 9,8 km/h (2 Bft) O 83 ° 0 min 0 W/m² 4,9 °C 2,9 °C 16,1 km/h (3 Bft)
17.11.2022 20:28 21,4 °C 5,6 °C 56 % 95 % 998,3 hPa 0,0 l/m² 11,9 km/h (2 Bft) O-NO 74 ° 0 min 0 W/m² 4,9 °C 1,5 °C 19,3 km/h (3 Bft)
17.11.2022 20:30 21,4 °C 5,6 °C 56 % 95 % 998,3 hPa 0,0 l/m² 7,1 km/h (2 Bft) O 84 ° 0 min 0 W/m² 4,9 °C 5,0 °C 12,9 km/h (3 Bft)
17.11.2022 20:31 21,4 °C 5,6 °C 56 % 95 % 998,3 hPa 0,0 l/m² 10,4 km/h (2 Bft) O-NO 61 ° 0 min 0 W/m² 4,9 °C 2,5 °C 16,1 km/h (3 Bft)
17.11.2022 20:32 21,4 °C 5,6 °C 56 % 95 % 998,3 hPa 0,0 l/m² 14,3 km/h (3 Bft) O-NO 78 ° 0 min 0 W/m² 4,9 °C 0,2 °C 17,7 km/h (3 Bft)
17.11.2022 20:33 21,4 °C 5,6 °C 56 % 95 % 998,2 hPa 0,0 l/m² 12,6 km/h (3 Bft) O-NO 70 ° 0 min 0 W/m² 4,9 °C 1,1 °C 17,7 km/h (3 Bft)
17.11.2022 20:35 21,4 °C 5,6 °C 56 % 95 % 998,3 hPa 0,0 l/m² 10,6 km/h (2 Bft) O-NO 69 ° 0 min 0 W/m² 4,9 °C 2,3 °C 16,1 km/h (3 Bft)
17.11.2022 20:37 21,4 °C 5,6 °C 56 % 95 % 998,2 hPa 0,0 l/m² 10,3 km/h (2 Bft) NO 49 ° 0 min 0 W/m² 4,9 °C 2,5 °C 14,5 km/h (3 Bft)
17.11.2022 20:39 21,5 °C 5,6 °C 56 % 95 % 998,2 hPa 0,0 l/m² 9,4 km/h (2 Bft) O-NO 70 ° 0 min 0 W/m² 4,9 °C 3,2 °C 17,7 km/h (3 Bft)
17.11.2022 20:40 21,5 °C 5,6 °C 56 % 95 % 998,1 hPa 0,0 l/m² 10,0 km/h (2 Bft) O-NO 78 ° 0 min 0 W/m² 4,9 °C 2,7 °C 14,5 km/h (3 Bft)
17.11.2022 20:41 21,5 °C 5,6 °C 56 % 95 % 998,2 hPa 0,0 l/m² 12,1 km/h (2 Bft) O-NO 77 ° 0 min 0 W/m² 4,9 °C 1,4 °C 14,5 km/h (3 Bft)
17.11.2022 20:42 21,5 °C 5,6 °C 56 % 95 % 998,1 hPa 0,0 l/m² 10,4 km/h (2 Bft) O 86 ° 0 min 0 W/m² 4,9 °C 2,5 °C 17,7 km/h (3 Bft)
17.11.2022 20:44 21,5 °C 5,6 °C 56 % 95 % 998,1 hPa 0,0 l/m² 8,7 km/h (2 Bft) NO 51 ° 0 min 0 W/m² 4,9 °C 3,7 °C 14,5 km/h (3 Bft)
17.11.2022 20:46 21,6 °C 5,6 °C 56 % 95 % 998,1 hPa 0,0 l/m² 12,0 km/h (2 Bft) O-NO 68 ° 0 min 0 W/m² 4,9 °C 1,4 °C 19,3 km/h (3 Bft)
17.11.2022 20:48 21,6 °C 5,6 °C 56 % 95 % 998,1 hPa 0,0 l/m² 10,0 km/h (2 Bft) O 81 ° 0 min 0 W/m² 4,9 °C 2,7 °C 16,1 km/h (3 Bft)
17.11.2022 20:50 21,6 °C 5,6 °C 56 % 95 % 998,1 hPa 0,0 l/m² 8,6 km/h (2 Bft) O 81 ° 0 min 0 W/m² 4,9 °C 3,8 °C 16,1 km/h (3 Bft)
17.11.2022 20:51 21,6 °C 5,6 °C 56 % 95 % 998,1 hPa 0,0 l/m² 9,0 km/h (2 Bft) O-NO 69 ° 0 min 0 W/m² 4,9 °C 3,5 °C 16,1 km/h (3 Bft)
17.11.2022 20:52 21,6 °C 5,6 °C 56 % 95 % 998,1 hPa 0,0 l/m² 9,0 km/h (2 Bft) O-NO 57 ° 0 min 0 W/m² 4,9 °C 3,5 °C 12,9 km/h (3 Bft)
17.11.2022 20:53 21,6 °C 5,5 °C 56 % 95 % 998,2 hPa 0,0 l/m² 10,7 km/h (2 Bft) O-NO 65 ° 0 min 0 W/m² 4,8 °C 2,2 °C 16,1 km/h (3 Bft)
17.11.2022 20:55 21,6 °C 5,6 °C 56 % 95 % 998,1 hPa 0,0 l/m² 8,8 km/h (2 Bft) NO 43 ° 0 min 0 W/m² 4,9 °C 3,6 °C 14,5 km/h (3 Bft)
17.11.2022 20:57 21,6 °C 5,5 °C 56 % 95 % 998,2 hPa 0,0 l/m² 8,3 km/h (2 Bft) NO 36 ° 0 min 0 W/m² 4,8 °C 3,9 °C 17,7 km/h (3 Bft)
17.11.2022 20:59 21,6 °C 5,5 °C 56 % 95 % 998,2 hPa 0,0 l/m² 8,1 km/h (2 Bft) O 85 ° 0 min 0 W/m² 4,8 °C 4,0 °C 17,7 km/h (3 Bft)
17.11.2022 21:01 21,6 °C 5,5 °C 56 % 95 % 998,2 hPa 0,0 l/m² 8,8 km/h (2 Bft) O-NO 65 ° 0 min 0 W/m² 4,8 °C 3,5 °C 14,5 km/h (3 Bft)
17.11.2022 21:02 21,6 °C 5,5 °C 56 % 95 % 998,3 hPa 0,0 l/m² 10,1 km/h (2 Bft) O-NO 71 ° 0 min 0 W/m² 4,8 °C 2,6 °C 17,7 km/h (3 Bft)
17.11.2022 21:03 21,6 °C 5,5 °C 56 % 95 % 998,3 hPa 0,0 l/m² 10,6 km/h (2 Bft) O-NO 59 ° 0 min 0 W/m² 4,8 °C 2,2 °C 14,5 km/h (3 Bft)
17.11.2022 21:04 21,6 °C 5,5 °C 56 % 95 % 998,3 hPa 0,0 l/m² 7,8 km/h (2 Bft) O-NO 74 ° 0 min 0 W/m² 4,8 °C 4,3 °C 12,9 km/h (3 Bft)
17.11.2022 21:06 21,7 °C 5,5 °C 56 % 95 % 998,3 hPa 0,0 l/m² 11,0 km/h (2 Bft) NO 45 ° 0 min 0 W/m² 4,8 °C 2,0 °C 19,3 km/h (3 Bft)
17.11.2022 21:08 21,7 °C 5,5 °C 56 % 95 % 998,3 hPa 0,0 l/m² 9,9 km/h (2 Bft) NO 55 ° 0 min 0 W/m² 4,8 °C 2,7 °C 14,5 km/h (3 Bft)
17.11.2022 21:10 21,6 °C 5,5 °C 56 % 95 % 998,3 hPa 0,0 l/m² 8,1 km/h (2 Bft) O-NO 74 ° 0 min 0 W/m² 4,8 °C 4,0 °C 16,1 km/h (3 Bft)
17.11.2022 21:11 21,7 °C 5,4 °C 56 % 95 % 998,4 hPa 0,0 l/m² 10,7 km/h (2 Bft) O-NO 77 ° 0 min 0 W/m² 4,7 °C 2,0 °C 17,7 km/h (3 Bft)
17.11.2022 21:12 21,7 °C 5,5 °C 56 % 95 % 998,4 hPa 0,0 l/m² 8,9 km/h (2 Bft) O-NO 69 ° 0 min 0 W/m² 4,8 °C 3,4 °C 16,1 km/h (3 Bft)
17.11.2022 21:13 21,7 °C 5,5 °C 56 % 95 % 998,4 hPa 0,0 l/m² 11,9 km/h (2 Bft) O-NO 57 ° 0 min 0 W/m² 4,8 °C 1,4 °C 14,5 km/h (3 Bft)
17.11.2022 21:15 21,7 °C 5,4 °C 56 % 95 % 998,4 hPa 0,0 l/m² 10,2 km/h (2 Bft) O-NO 63 ° 0 min 0 W/m² 4,7 °C 2,4 °C 17,7 km/h (3 Bft)
17.11.2022 21:17 21,7 °C 5,4 °C 56 % 95 % 998,4 hPa 0,0 l/m² 10,4 km/h (2 Bft) O-NO 68 ° 0 min 0 W/m² 4,7 °C 2,2 °C 19,3 km/h (3 Bft)
17.11.2022 21:19 21,7 °C 5,4 °C 56 % 95 % 998,4 hPa 0,0 l/m² 12,9 km/h (3 Bft) O-NO 57 ° 0 min 0 W/m² 4,7 °C 0,7 °C 20,9 km/h (4 Bft)
17.11.2022 21:20 21,7 °C 5,4 °C 56 % 95 % 998,4 hPa 0,0 l/m² 12,3 km/h (2 Bft) O-NO 76 ° 0 min 0 W/m² 4,7 °C 1,0 °C 16,1 km/h (3 Bft)
17.11.2022 21:21 21,7 °C 5,4 °C 56 % 95 % 998,4 hPa 0,0 l/m² 10,1 km/h (2 Bft) O-NO 71 ° 0 min 0 W/m² 4,7 °C 2,4 °C 16,1 km/h (3 Bft)
17.11.2022 21:22 21,7 °C 5,4 °C 56 % 95 % 998,4 hPa 0,0 l/m² 16,0 km/h (3 Bft) NO 56 ° 0 min 0 W/m² 4,7 °C -0,9 °C 22,5 km/h (4 Bft)
17.11.2022 21:24 21,7 °C 5,4 °C 56 % 95 % 998,5 hPa 0,0 l/m² 15,5 km/h (3 Bft) O-NO 69 ° 0 min 0 W/m² 4,7 °C -0,7 °C 24,1 km/h (4 Bft)
17.11.2022 21:26 21,7 °C 5,4 °C 56 % 95 % 998,4 hPa 0,0 l/m² 14,6 km/h (3 Bft) O 86 ° 0 min 0 W/m² 4,7 °C -0,2 °C 20,9 km/h (4 Bft)
17.11.2022 21:28 21,7 °C 5,4 °C 56 % 95 % 998,5 hPa 0,0 l/m² 14,6 km/h (3 Bft) O-NO 63 ° 0 min 0 W/m² 4,7 °C -0,2 °C 19,3 km/h (3 Bft)
17.11.2022 21:30 21,7 °C 5,4 °C 56 % 95 % 998,5 hPa 0,0 l/m² 14,0 km/h (3 Bft) O-NO 77 ° 0 min 0 W/m² 4,7 °C 0,1 °C 19,3 km/h (3 Bft)
17.11.2022 21:31 21,7 °C 5,4 °C 56 % 95 % 998,6 hPa 0,0 l/m² 12,6 km/h (3 Bft) O-NO 76 ° 0 min 0 W/m² 4,7 °C 0,9 °C 17,7 km/h (3 Bft)
17.11.2022 21:32 21,7 °C 5,4 °C 56 % 95 % 998,6 hPa 0,0 l/m² 13,1 km/h (3 Bft) O-NO 75 ° 0 min 0 W/m² 4,7 °C 0,6 °C 17,7 km/h (3 Bft)
17.11.2022 21:33 21,7 °C 5,4 °C 56 % 95 % 998,6 hPa 0,0 l/m² 10,6 km/h (2 Bft) NO 51 ° 0 min 0 W/m² 4,7 °C 2,1 °C 17,7 km/h (3 Bft)
17.11.2022 21:35 21,7 °C 5,4 °C 57 % 95 % 998,6 hPa 0,0 l/m² 7,9 km/h (2 Bft) O 86 ° 0 min 0 W/m² 4,7 °C 4,1 °C 12,9 km/h (3 Bft)
17.11.2022 21:37 21,7 °C 5,4 °C 57 % 95 % 998,7 hPa 0,0 l/m² 9,2 km/h (2 Bft) O-NO 58 ° 0 min 0 W/m² 4,7 °C 3,1 °C 14,5 km/h (3 Bft)
17.11.2022 21:39 21,7 °C 5,4 °C 57 % 95 % 998,6 hPa 0,0 l/m² 11,1 km/h (2 Bft) O-NO 61 ° 0 min 0 W/m² 4,7 °C 1,8 °C 17,7 km/h (3 Bft)
17.11.2022 21:41 21,7 °C 5,4 °C 57 % 95 % 998,5 hPa 0,0 l/m² 9,7 km/h (2 Bft) O-NO 69 ° 0 min 0 W/m² 4,7 °C 2,7 °C 17,7 km/h (3 Bft)
17.11.2022 21:42 21,7 °C 5,4 °C 57 % 95 % 998,6 hPa 0,0 l/m² 13,3 km/h (3 Bft) NO 55 ° 0 min 0 W/m² 4,7 °C 0,5 °C 17,7 km/h (3 Bft)
17.11.2022 21:43 21,7 °C 5,4 °C 57 % 95 % 998,6 hPa 0,0 l/m² 11,3 km/h (2 Bft) O 87 ° 0 min 0 W/m² 4,7 °C 1,7 °C 16,1 km/h (3 Bft)
17.11.2022 21:45 21,7 °C 5,4 °C 57 % 95 % 998,5 hPa 0,0 l/m² 13,6 km/h (3 Bft) O-NO 67 ° 0 min 0 W/m² 4,7 °C 0,3 °C 22,5 km/h (4 Bft)
17.11.2022 21:47 21,8 °C 5,3 °C 57 % 95 % 998,4 hPa 0,0 l/m² 12,6 km/h (3 Bft) O 84 ° 0 min 0 W/m² 4,6 °C 0,7 °C 22,5 km/h (4 Bft)
17.11.2022 21:48 21,8 °C 5,3 °C 57 % 95 % 998,4 hPa 0,0 l/m² 13,1 km/h (3 Bft) O-NO 57 ° 0 min 0 W/m² 4,6 °C 0,5 °C 19,3 km/h (3 Bft)
17.11.2022 21:50 21,8 °C 5,3 °C 57 % 95 % 998,5 hPa 0,0 l/m² 13,1 km/h (3 Bft) NO 50 ° 0 min 0 W/m² 4,6 °C 0,5 °C 20,9 km/h (4 Bft)
17.11.2022 21:52 21,8 °C 5,3 °C 57 % 95 % 998,6 hPa 0,0 l/m² 11,9 km/h (2 Bft) O-NO 73 ° 0 min 0 W/m² 4,6 °C 1,2 °C 22,5 km/h (4 Bft)
17.11.2022 21:53 21,8 °C 5,3 °C 57 % 95 % 998,6 hPa 0,0 l/m² 10,5 km/h (2 Bft) O-NO 71 ° 0 min 0 W/m² 4,6 °C 2,1 °C 17,7 km/h (3 Bft)
17.11.2022 21:54 21,8 °C 5,3 °C 57 % 95 % 998,6 hPa 0,0 l/m² 12,0 km/h (2 Bft) O 81 ° 0 min 0 W/m² 4,6 °C 1,1 °C 16,1 km/h (3 Bft)
17.11.2022 21:56 21,8 °C 5,3 °C 57 % 95 % 998,5 hPa 0,0 l/m² 13,5 km/h (3 Bft) O-NO 59 ° 0 min 0 W/m² 4,6 °C 0,2 °C 19,3 km/h (3 Bft)
17.11.2022 21:57 21,8 °C 5,3 °C 57 % 95 % 998,6 hPa 0,0 l/m² 10,6 km/h (2 Bft) O 100 ° 0 min 0 W/m² 4,6 °C 2,0 °C 14,5 km/h (3 Bft)
17.11.2022 21:59 21,8 °C 5,3 °C 57 % 95 % 998,6 hPa 0,0 l/m² 13,1 km/h (3 Bft) NO 55 ° 0 min 0 W/m² 4,6 °C 0,5 °C 19,3 km/h (3 Bft)
17.11.2022 22:01 21,8 °C 5,3 °C 57 % 95 % 998,5 hPa 0,0 l/m² 15,8 km/h (3 Bft) O-NO 71 ° 0 min 0 W/m² 4,6 °C -1,0 °C 20,9 km/h (4 Bft)
17.11.2022 22:03 21,8 °C 5,3 °C 57 % 95 % 998,6 hPa 0,0 l/m² 12,8 km/h (3 Bft) N-NO 26 ° 0 min 0 W/m² 4,6 °C 0,6 °C 19,3 km/h (3 Bft)
17.11.2022 22:05 21,8 °C 5,3 °C 57 % 95 % 998,5 hPa 0,0 l/m² 10,9 km/h (2 Bft) O-NO 75 ° 0 min 0 W/m² 4,6 °C 1,8 °C 20,9 km/h (4 Bft)
17.11.2022 22:06 21,8 °C 5,3 °C 57 % 95 % 998,7 hPa 0,0 l/m² 9,9 km/h (2 Bft) O-NO 61 ° 0 min 0 W/m² 4,6 °C 2,5 °C 16,1 km/h (3 Bft)
17.11.2022 22:07 21,8 °C 5,3 °C 57 % 95 % 998,7 hPa 0,0 l/m² 11,5 km/h (2 Bft) O-SO 104 ° 0 min 0 W/m² 4,6 °C 1,4 °C 16,1 km/h (3 Bft)
17.11.2022 22:08 21,8 °C 5,3 °C 57 % 95 % 998,6 hPa 0,0 l/m² 12,5 km/h (2 Bft) NO 51 ° 0 min 0 W/m² 4,6 °C 0,8 °C 19,3 km/h (3 Bft)
17.11.2022 22:10 21,8 °C 5,3 °C 57 % 95 % 998,6 hPa 0,0 l/m² 13,5 km/h (3 Bft) O-NO 65 ° 0 min 0 W/m² 4,6 °C 0,2 °C 24,1 km/h (4 Bft)
17.11.2022 22:12 21,8 °C 5,2 °C 57 % 95 % 998,6 hPa 0,0 l/m² 10,9 km/h (2 Bft) NO 54 ° 0 min 0 W/m² 4,5 °C 1,7 °C 17,7 km/h (3 Bft)
17.11.2022 22:13 21,8 °C 5,3 °C 57 % 95 % 998,6 hPa 0,0 l/m² 9,6 km/h (2 Bft) O-NO 65 ° 0 min 0 W/m² 4,6 °C 2,7 °C 16,1 km/h (3 Bft)
17.11.2022 22:14 21,8 °C 5,2 °C 57 % 95 % 998,6 hPa 0,0 l/m² 9,6 km/h (2 Bft) O-NO 75 ° 0 min 0 W/m² 4,5 °C 2,6 °C 14,5 km/h (3 Bft)
17.11.2022 22:16 21,8 °C 5,2 °C 57 % 95 % 998,6 hPa 0,0 l/m² 9,8 km/h (2 Bft) O-NO 67 ° 0 min 0 W/m² 4,5 °C 2,4 °C 19,3 km/h (3 Bft)
17.11.2022 22:18 21,8 °C 5,2 °C 57 % 95 % 998,6 hPa 0,0 l/m² 13,1 km/h (3 Bft) O-NO 71 ° 0 min 0 W/m² 4,5 °C 0,3 °C 20,9 km/h (4 Bft)
17.11.2022 22:20 21,8 °C 5,2 °C 57 % 95 % 998,6 hPa 0,0 l/m² 10,1 km/h (2 Bft) O-NO 73 ° 0 min 0 W/m² 4,5 °C 2,2 °C 17,7 km/h (3 Bft)
17.11.2022 22:22 21,8 °C 5,2 °C 57 % 95 % 998,6 hPa 0,0 l/m² 13,1 km/h (3 Bft) O-NO 69 ° 0 min 0 W/m² 4,5 °C 0,3 °C 20,9 km/h (4 Bft)
17.11.2022 22:23 21,8 °C 5,2 °C 57 % 95 % 998,5 hPa 0,0 l/m² 17,3 km/h (3 Bft) O-NO 73 ° 0 min 0 W/m² 4,5 °C -1,8 °C 24,1 km/h (4 Bft)
17.11.2022 22:24 21,8 °C 5,2 °C 57 % 95 % 998,5 hPa 0,0 l/m² 12,1 km/h (2 Bft) O-NO 66 ° 0 min 0 W/m² 4,5 °C 0,9 °C 19,3 km/h (3 Bft)
17.11.2022 22:26 21,8 °C 5,2 °C 57 % 95 % 998,6 hPa 0,0 l/m² 11,7 km/h (2 Bft) O-NO 69 ° 0 min 0 W/m² 4,5 °C 1,2 °C 19,3 km/h (3 Bft)
17.11.2022 22:28 21,8 °C 5,1 °C 57 % 95 % 998,6 hPa 0,0 l/m² 14,2 km/h (3 Bft) NO 56 ° 0 min 0 W/m² 4,4 °C -0,4 °C 22,5 km/h (4 Bft)
17.11.2022 22:30 21,8 °C 5,1 °C 57 % 95 % 998,6 hPa 0,0 l/m² 16,0 km/h (3 Bft) O-NO 61 ° 0 min 0 W/m² 4,4 °C -1,3 °C 24,1 km/h (4 Bft)
17.11.2022 22:32 21,9 °C 5,1 °C 57 % 95 % 998,7 hPa 0,0 l/m² 16,7 km/h (3 Bft) O-NO 76 ° 0 min 0 W/m² 4,4 °C -1,6 °C 25,7 km/h (4 Bft)
17.11.2022 22:33 21,8 °C 5,1 °C 57 % 95 % 998,7 hPa 0,0 l/m² 17,6 km/h (3 Bft) O-NO 63 ° 0 min 0 W/m² 4,4 °C -2,0 °C 24,1 km/h (4 Bft)
17.11.2022 22:34 21,9 °C 5,1 °C 57 % 95 % 998,7 hPa 0,0 l/m² 11,2 km/h (2 Bft) NO 56 ° 0 min 0 W/m² 4,4 °C 1,4 °C 16,1 km/h (3 Bft)
17.11.2022 22:36 21,9 °C 5,1 °C 57 % 95 % 998,8 hPa 0,0 l/m² 10,6 km/h (2 Bft) O 98 ° 0 min 0 W/m² 4,4 °C 1,8 °C 19,3 km/h (3 Bft)
17.11.2022 22:38 21,8 °C 5,1 °C 57 % 95 % 998,8 hPa 0,0 l/m² 11,3 km/h (2 Bft) O-NO 72 ° 0 min 0 W/m² 4,4 °C 1,3 °C 17,7 km/h (3 Bft)
17.11.2022 22:40 21,9 °C 5,1 °C 56 % 95 % 998,9 hPa 0,0 l/m² 15,4 km/h (3 Bft) O-NO 71 ° 0 min 0 W/m² 4,4 °C -1,0 °C 20,9 km/h (4 Bft)
17.11.2022 22:41 21,8 °C 5,1 °C 56 % 95 % 998,9 hPa 0,0 l/m² 16,0 km/h (3 Bft) NO 42 ° 0 min 0 W/m² 4,4 °C -1,3 °C 20,9 km/h (4 Bft)
17.11.2022 22:42 21,8 °C 5,1 °C 56 % 95 % 998,9 hPa 0,0 l/m² 15,7 km/h (3 Bft) O-NO 75 ° 0 min 0 W/m² 4,4 °C -1,2 °C 22,5 km/h (4 Bft)
17.11.2022 22:44 21,8 °C 5,1 °C 56 % 95 % 999,0 hPa 0,0 l/m² 14,9 km/h (3 Bft) O-NO 64 ° 0 min 0 W/m² 4,4 °C -0,8 °C 20,9 km/h (4 Bft)
17.11.2022 22:46 21,8 °C 5,1 °C 56 % 95 % 999,0 hPa 0,0 l/m² 15,0 km/h (3 Bft) O-NO 77 ° 0 min 0 W/m² 4,4 °C -0,8 °C 20,9 km/h (4 Bft)
17.11.2022 22:48 21,8 °C 5,1 °C 56 % 95 % 999,1 hPa 0,0 l/m² 11,6 km/h (2 Bft) O 87 ° 0 min 0 W/m² 4,4 °C 1,1 °C 24,1 km/h (4 Bft)
17.11.2022 22:50 21,8 °C 5,1 °C 56 % 95 % 999,0 hPa 0,0 l/m² 15,3 km/h (3 Bft) O-NO 74 ° 0 min 0 W/m² 4,4 °C -1,0 °C 22,5 km/h (4 Bft)
17.11.2022 22:52 21,8 °C 5,0 °C 56 % 95 % 999,1 hPa 0,0 l/m² 13,2 km/h (3 Bft) O-NO 62 ° 0 min 0 W/m² 4,3 °C 0,0 °C 20,9 km/h (4 Bft)
17.11.2022 22:53 21,8 °C 5,0 °C 56 % 95 % 999,1 hPa 0,0 l/m² 13,2 km/h (3 Bft) O-NO 69 ° 0 min 0 W/m² 4,3 °C 0,0 °C 17,7 km/h (3 Bft)
17.11.2022 22:54 21,8 °C 5,0 °C 56 % 95 % 999,1 hPa 0,0 l/m² 12,0 km/h (2 Bft) O-NO 68 ° 0 min 0 W/m² 4,3 °C 0,8 °C 19,3 km/h (3 Bft)
17.11.2022 22:56 21,8 °C 5,0 °C 56 % 95 % 999,1 hPa 0,0 l/m² 12,6 km/h (3 Bft) O-NO 75 ° 0 min 0 W/m² 4,3 °C 0,4 °C 19,3 km/h (3 Bft)
17.11.2022 22:58 21,8 °C 5,0 °C 56 % 95 % 999,1 hPa 0,0 l/m² 14,0 km/h (3 Bft) O 86 ° 0 min 0 W/m² 4,3 °C -0,4 °C 22,5 km/h (4 Bft)
17.11.2022 23:00 21,8 °C 5,0 °C 56 % 95 % 998,9 hPa 0,0 l/m² 17,6 km/h (3 Bft) O 98 ° 0 min 0 W/m² 4,3 °C -2,2 °C 22,5 km/h (4 Bft)
17.11.2022 23:02 21,7 °C 5,0 °C 56 % 95 % 998,9 hPa 0,0 l/m² 11,7 km/h (2 Bft) O-NO 67 ° 0 min 0 W/m² 4,3 °C 0,9 °C 19,3 km/h (3 Bft)
17.11.2022 23:03 21,7 °C 5,0 °C 56 % 95 % 998,8 hPa 0,0 l/m² 14,1 km/h (3 Bft) NO 46 ° 0 min 0 W/m² 4,3 °C -0,5 °C 19,3 km/h (3 Bft)
17.11.2022 23:04 21,7 °C 4,9 °C 56 % 95 % 998,8 hPa 0,0 l/m² 13,6 km/h (3 Bft) O 86 ° 0 min 0 W/m² 4,2 °C -0,3 °C 17,7 km/h (3 Bft)
17.11.2022 23:06 21,7 °C 4,9 °C 56 % 95 % 998,9 hPa 0,0 l/m² 13,8 km/h (3 Bft) O-NO 68 ° 0 min 0 W/m² 4,2 °C -0,4 °C 20,9 km/h (4 Bft)
17.11.2022 23:08 21,7 °C 4,9 °C 57 % 95 % 999,0 hPa 0,0 l/m² 12,4 km/h (2 Bft) O-NO 71 ° 0 min 0 W/m² 4,2 °C 0,4 °C 19,3 km/h (3 Bft)
17.11.2022 23:10 21,7 °C 4,9 °C 57 % 95 % 998,9 hPa 0,0 l/m² 11,5 km/h (2 Bft) O 80 ° 0 min 0 W/m² 4,2 °C 1,0 °C 19,3 km/h (3 Bft)
17.11.2022 23:12 21,7 °C 4,9 °C 57 % 95 % 998,9 hPa 0,0 l/m² 8,9 km/h (2 Bft) NO 56 ° 0 min 0 W/m² 4,2 °C 2,8 °C 17,7 km/h (3 Bft)
17.11.2022 23:13 21,7 °C 4,9 °C 57 % 95 % 998,8 hPa 0,0 l/m² 10,8 km/h (2 Bft) O-NO 76 ° 0 min 0 W/m² 4,2 °C 1,4 °C 16,1 km/h (3 Bft)
17.11.2022 23:14 21,7 °C 4,9 °C 57 % 95 % 998,8 hPa 0,0 l/m² 12,8 km/h (3 Bft) O 79 ° 0 min 0 W/m² 4,2 °C 0,2 °C 17,7 km/h (3 Bft)
17.11.2022 23:15 21,7 °C 4,9 °C 57 % 95 % 998,9 hPa 0,0 l/m² 11,3 km/h (2 Bft) O-NO 67 ° 0 min 0 W/m² 4,2 °C 1,1 °C 17,7 km/h (3 Bft)
17.11.2022 23:16 21,7 °C 4,9 °C 57 % 95 % 998,8 hPa 0,0 l/m² 16,1 km/h (3 Bft) O-NO 67 ° 0 min 0 W/m² 4,2 °C -1,6 °C 20,9 km/h (4 Bft)
17.11.2022 23:22 21,7 °C 4,9 °C 57 % 95 % 999,0 hPa 0,0 l/m² 7,0 km/h (2 Bft) O-NO 77 ° 0 min 0 W/m² 4,2 °C 4,4 °C 11,3 km/h (2 Bft)
17.11.2022 23:24 21,7 °C 4,9 °C 57 % 95 % 999,0 hPa 0,0 l/m² 11,5 km/h (2 Bft) NO 42 ° 0 min 0 W/m² 4,2 °C 1,0 °C 22,5 km/h (4 Bft)
17.11.2022 23:25 21,7 °C 4,9 °C 57 % 95 % 999,1 hPa 0,0 l/m² 11,4 km/h (2 Bft) O-NO 71 ° 0 min 0 W/m² 4,2 °C 1,0 °C 19,3 km/h (3 Bft)
17.11.2022 23:26 21,7 °C 4,9 °C 57 % 95 % 999,1 hPa 0,0 l/m² 11,5 km/h (2 Bft) O-NO 72 ° 0 min 0 W/m² 4,2 °C 1,0 °C 17,7 km/h (3 Bft)
17.11.2022 23:28 21,7 °C 4,9 °C 57 % 95 % 999,1 hPa 0,0 l/m² 13,5 km/h (3 Bft) O-NO 58 ° 0 min 0 W/m² 4,2 °C -0,2 °C 22,5 km/h (4 Bft)
17.11.2022 23:30 21,7 °C 4,9 °C 57 % 95 % 999,2 hPa 0,0 l/m² 9,0 km/h (2 Bft) NO 51 ° 0 min 0 W/m² 4,2 °C 2,7 °C 17,7 km/h (3 Bft)
17.11.2022 23:31 21,6 °C 4,9 °C 57 % 95 % 999,2 hPa 0,0 l/m² 4,0 km/h (1 Bft) N-NO 24 ° 0 min 0 W/m² 4,2 °C 4,9 °C 6,4 km/h (2 Bft)
17.11.2022 23:32 21,6 °C 4,9 °C 57 % 95 % 999,2 hPa 0,0 l/m² 5,6 km/h (2 Bft) NO 49 ° 0 min 0 W/m² 4,2 °C 4,9 °C 11,3 km/h (2 Bft)
17.11.2022 23:34 21,7 °C 4,9 °C 57 % 95 % 999,2 hPa 0,0 l/m² 11,2 km/h (2 Bft) O-NO 71 ° 0 min 0 W/m² 4,2 °C 1,1 °C 24,1 km/h (4 Bft)
17.11.2022 23:35 21,6 °C 4,9 °C 57 % 95 % 999,3 hPa 0,0 l/m² 12,1 km/h (2 Bft) NO 51 ° 0 min 0 W/m² 4,2 °C 0,6 °C 17,7 km/h (3 Bft)
17.11.2022 23:37 21,7 °C 4,9 °C 57 % 95 % 999,3 hPa 0,0 l/m² 8,4 km/h (2 Bft) NO 49 ° 0 min 0 W/m² 4,2 °C 3,2 °C 17,7 km/h (3 Bft)
17.11.2022 23:39 21,6 °C 4,9 °C 57 % 95 % 999,4 hPa 0,0 l/m² 8,4 km/h (2 Bft) O-NO 61 ° 0 min 0 W/m² 4,2 °C 3,2 °C 14,5 km/h (3 Bft)
17.11.2022 23:40 21,6 °C 4,9 °C 57 % 95 % 999,4 hPa 0,0 l/m² 5,6 km/h (2 Bft) O-NO 69 ° 0 min 0 W/m² 4,2 °C 4,9 °C 11,3 km/h (2 Bft)
17.11.2022 23:41 21,7 °C 4,9 °C 57 % 95 % 999,4 hPa 0,0 l/m² 8,2 km/h (2 Bft) O-NO 71 ° 0 min 0 W/m² 4,2 °C 3,3 °C 17,7 km/h (3 Bft)
17.11.2022 23:42 21,7 °C 4,9 °C 57 % 95 % 999,4 hPa 0,0 l/m² 7,9 km/h (2 Bft) O 81 ° 0 min 0 W/m² 4,2 °C 3,6 °C 12,9 km/h (3 Bft)
17.11.2022 23:44 21,6 °C 4,9 °C 57 % 95 % 999,5 hPa 0,0 l/m² 10,2 km/h (2 Bft) O-NO 75 ° 0 min 0 W/m² 4,2 °C 1,8 °C 17,7 km/h (3 Bft)
17.11.2022 23:45 21,6 °C 4,9 °C 57 % 95 % 999,5 hPa 0,0 l/m² 7,7 km/h (2 Bft) O-NO 70 ° 0 min 0 W/m² 4,2 °C 3,8 °C 14,5 km/h (3 Bft)
17.11.2022 23:47 21,6 °C 4,9 °C 57 % 95 % 999,6 hPa 0,0 l/m² 8,8 km/h (2 Bft) O-NO 74 ° 0 min 0 W/m² 4,2 °C 2,9 °C 14,5 km/h (3 Bft)
17.11.2022 23:49 21,6 °C 4,9 °C 57 % 95 % 999,7 hPa 0,0 l/m² 9,8 km/h (2 Bft) O-NO 67 ° 0 min 0 W/m² 4,2 °C 2,1 °C 16,1 km/h (3 Bft)
17.11.2022 23:50 21,6 °C 4,9 °C 57 % 95 % 999,6 hPa 0,0 l/m² 10,2 km/h (2 Bft) O-NO 75 ° 0 min 0 W/m² 4,2 °C 1,8 °C 14,5 km/h (3 Bft)
17.11.2022 23:51 21,6 °C 4,9 °C 57 % 95 % 999,6 hPa 0,0 l/m² 8,8 km/h (2 Bft) O 94 ° 0 min 0 W/m² 4,2 °C 2,9 °C 14,5 km/h (3 Bft)
17.11.2022 23:52 21,6 °C 4,9 °C 57 % 95 % 999,6 hPa 0,0 l/m² 8,6 km/h (2 Bft) O-NO 67 ° 0 min 0 W/m² 4,2 °C 3,0 °C 12,9 km/h (3 Bft)
17.11.2022 23:54 21,6 °C 4,9 °C 57 % 95 % 999,5 hPa 0,0 l/m² 6,5 km/h (2 Bft) O-NO 73 ° 0 min 0 W/m² 4,2 °C 4,8 °C 17,7 km/h (3 Bft)
17.11.2022 23:55 21,6 °C 4,9 °C 57 % 95 % 999,5 hPa 0,0 l/m² 8,9 km/h (2 Bft) NO 48 ° 0 min 0 W/m² 4,2 °C 2,8 °C 14,5 km/h (3 Bft)
17.11.2022 23:57 21,6 °C 4,9 °C 57 % 95 % 999,5 hPa 0,0 l/m² 8,5 km/h (2 Bft) NO 51 ° 0 min 0 W/m² 4,2 °C 3,1 °C 14,5 km/h (3 Bft)
17.11.2022 23:59 21,6 °C 4,9 °C 57 % 95 % 999,5 hPa 0,0 l/m² 11,6 km/h (2 Bft) O-NO 70 ° 0 min 0 W/m² 4,2 °C 0,9 °C 17,7 km/h (3 Bft)
_ Min-Zeit 19:13 08:03 17:52 07:03 16:03 - 17:48 - - - - 07:03 07:31 17:42
Minimum _ 21,3 °C 4,2 °C 52 % 90 % 997,2 hPa - 1,8 km/h (1 Bft) - - - - 2,8 °C -7,1 °C 3,2 km/h (1 Bft)
_ Max-Zeit 00:10 19:20 07:10 23:59 00:05 16:13 05:14 - - 13:39 13:27 19:20 17:50 05:14
Maximum _ 22,1 °C 5,8 °C 58 % 95 % 1003,7 hPa 0,2 l/m² 30,0 km/h
O (5 Bft)
- - 2 min 95 W/m² 5,1 °C 5,8 °C 43,5 km/h
O (6 Bft)
Durchschnitt _ 21,6 °C 5,1 °C 56 % 93 % 999,3 hPa #6,4 l/m² 16,9 km/h (3 Bft) O - #59 min. 10 W/m² 4,1 °C -1,5 °C 24,3 km/h (4 Bft)
© 2009 Mathias Hoßbach